| time (UTC) | temp F | wind direction | speed knots | gust knots | rain 1hr in | rain 24hr in | rain mn in | humidity % | barometer mb |
| 20260506033056 | 69 | 164 | 1.7 | 16.5 | 0.00 | 0.00 | 0.00 | 61 | 1007.2 |
| 20260506033020 | 69 | 175 | 0.0 | 16.5 | 0.00 | 0.00 | 0.00 | 61 | 1007.4 |
| 20260506032956 | 69 | 188 | 2.6 | 16.5 | 0.00 | 0.00 | 0.00 | 61 | 1007.3 |
| 20260506032909 | 69 | 200 | 3.5 | 16.5 | 0.00 | 0.00 | 0.00 | 61 | 1007.3 |
| 20260506032903 | 69 | 211 | 2.6 | 16.5 | 0.00 | 0.00 | 0.00 | 60 | 1007.3 |
| 20260506032713 | 69 | 161 | 3.5 | 16.5 | 0.00 | 0.00 | 0.00 | 60 | 1007.3 |
| 20260506032708 | 69 | 156 | 2.6 | 16.5 | 0.00 | 0.00 | 0.00 | 60 | 1007.3 |
| 20260506032659 | 69 | 181 | 2.6 | 16.5 | 0.00 | 0.00 | 0.00 | 60 | 1007.3 |
| 20260506032520 | 69 | 194 | 0.0 | 13.0 | 0.00 | 0.00 | 0.00 | 60 | 1007.4 |
| 20260506032453 | 69 | 167 | 3.5 | 13.0 | 0.00 | 0.00 | 0.00 | 60 | 1007.3 |
| 20260506032409 | 69 | 159 | 2.6 | 13.0 | 0.00 | 0.00 | 0.00 | 60 | 1007.3 |
| 20260506032405 | 69 | 198 | 2.6 | 13.0 | 0.00 | 0.00 | 0.00 | 60 | 1007.3 |
| 20260506032400 | 69 | 175 | 3.5 | 13.0 | 0.00 | 0.00 | 0.00 | 60 | 1007.2 |
| 20260506032232 | 69 | 170 | 2.6 | 13.0 | 0.00 | 0.00 | 0.00 | 60 | 1007.3 |
| 20260506032050 | 69 | 155 | 1.7 | 12.2 | 0.00 | 0.00 | 0.00 | 60 | 1007.3 |
| 20260506032020 | 69 | 148 | 12.2 | 12.2 | 0.00 | 0.00 | 0.00 | 60 | 1007.4 |
| 20260506032004 | 69 | 132 | 1.7 | 12.2 | 0.00 | 0.00 | 0.00 | 60 | 1007.3 |
| 20260506031959 | 69 | 148 | 1.7 | 12.2 | 0.00 | 0.00 | 0.00 | 60 | 1007.3 |
| 20260506031749 | 69 | 150 | 0.9 | 12.2 | 0.00 | 0.00 | 0.00 | 60 | 1007.3 |
| 20260506031708 | 69 | 192 | 0.9 | 9.6 | 0.00 | 0.00 | 0.00 | 60 | 1007.4 |
| 20260506031703 | 69 | 0 | 0.9 | 12.2 | 0.00 | 0.00 | 0.00 | 60 | 1007.3 |
| 20260506031655 | 69 | 192 | 0.9 | 12.2 | 0.00 | 0.00 | 0.00 | 60 | 1007.3 |
| 20260506031520 | 69 | 175 | 0.0 | 8.7 | 0.00 | 0.00 | 0.00 | 60 | 1007.5 |
| 20260506031448 | 69 | 147 | 0.9 | 8.7 | 0.00 | 0.00 | 0.00 | 60 | 1007.4 |
| 20260506031347 | 69 | 217 | 0.9 | 8.7 | 0.00 | 0.00 | 0.00 | 60 | 1007.3 |
| 20260506031247 | 69 | 150 | 0.9 | 8.7 | 0.00 | 0.00 | 0.00 | 60 | 1007.3 |
| 20260506031144 | 69 | 132 | 0.9 | 8.7 | 0.00 | 0.00 | 0.00 | 60 | 1007.3 |
| 20260506031125 | 69 | 211 | 0.9 | 11.3 | 0.00 | 0.00 | 0.00 | 60 | 1007.3 |
| 20260506031045 | 69 | 198 | 0.9 | 11.3 | 0.00 | 0.00 | 0.00 | 60 | 1007.3 |
| 20260506031020 | 69 | 360 | 0.9 | 11.3 | 0.00 | 0.00 | 0.00 | 60 | 1007.5 |
| 20260506030943 | 69 | 175 | 0.9 | 11.3 | 0.00 | 0.00 | 0.00 | 60 | 1007.4 |
| 20260506030844 | 69 | 225 | 0.9 | 11.3 | 0.00 | 0.00 | 0.00 | 59 | 1007.3 |
| 20260506030743 | 69 | 147 | 0.9 | 11.3 | 0.00 | 0.00 | 0.00 | 59 | 1007.3 |
| 20260506030703 | 69 | 159 | 0.9 | 11.3 | 0.00 | 0.00 | 0.00 | 59 | 1007.3 |
| 20260506030658 | 69 | 0 | 0.9 | 11.3 | 0.00 | 0.00 | 0.00 | 59 | 1007.3 |
| 20260506030650 | 69 | 197 | 0.9 | 11.3 | 0.00 | 0.00 | 0.00 | 59 | 1007.3 |
| 20260506030520 | 70 | 170 | 0.0 | 11.3 | 0.00 | 0.00 | 0.00 | 59 | 1007.5 |
| 20260506030443 | 69 | 152 | 0.9 | 11.3 | 0.00 | 0.00 | 0.00 | 59 | 1007.4 |
| 20260506030341 | 70 | 159 | 0.9 | 11.3 | 0.00 | 0.00 | 0.00 | 58 | 1007.4 |
| 20260506030241 | 70 | 167 | 0.9 | 11.3 | 0.00 | 0.00 | 0.00 | 58 | 1007.4 |
| 20260506030218 | 70 | 141 | 0.9 | 8.7 | 0.00 | 0.00 | 0.00 | 58 | 1007.3 |
| 20260506030214 | 70 | 0 | 0.9 | 8.7 | 0.00 | 0.00 | 0.00 | 58 | 1007.3 |
| 20260506030210 | 70 | 138 | 0.9 | 10.4 | 0.00 | 0.00 | 0.00 | 57 | 1007.3 |
| 20260506030206 | 70 | 137 | 0.9 | 10.4 | 0.00 | 0.00 | 0.00 | 57 | 1007.3 |
| 20260506030202 | 70 | 154 | 0.9 | 10.4 | 0.00 | 0.00 | 0.00 | 57 | 1007.4 |
| 20260506030156 | 70 | 167 | 0.9 | 11.3 | 0.00 | 0.00 | 0.00 | 58 | 1007.4 |
| 20260506030149 | 70 | 146 | 0.9 | 8.7 | 0.00 | 0.00 | 0.00 | 58 | 1007.4 |
| 20260506030035 | 70 | 0 | 0.9 | 10.4 | 0.00 | 0.00 | 0.00 | 57 | 1007.5 |
| 20260506030028 | 70 | 186 | 0.9 | 8.7 | 0.00 | 0.00 | 0.00 | 58 | 1007.4 |
| 20260506030020 | 70 | 139 | 0.0 | 8.7 | 0.00 | 0.00 | 0.00 | 58 | 1007.5 |
| 20260506025910 | 70 | 169 | 0.9 | 8.7 | 0.00 | 0.00 | 0.00 | 57 | 1007.4 |
| 20260506025520 | 70 | 159 | 0.0 | 10.4 | 0.00 | 0.00 | 0.00 | 57 | 1007.6 |
| 20260506025336 | 70 | 172 | 0.9 | 10.4 | 0.00 | 0.00 | 0.00 | 56 | 1007.5 |
| 20260506025247 | 70 | 134 | 0.9 | 10.4 | 0.00 | 0.00 | 0.00 | 56 | 1007.4 |
| 20260506025243 | 70 | 165 | 0.9 | 10.4 | 0.00 | 0.00 | 0.00 | 56 | 1007.3 |
| 20260506025122 | 70 | 152 | 0.9 | 10.4 | 0.00 | 0.00 | 0.00 | 56 | 1007.4 |
| 20260506025033 | 71 | 147 | 0.9 | 10.4 | 0.00 | 0.00 | 0.00 | 56 | 1007.4 |
| 20260506025020 | 71 | 169 | 5.2 | 10.4 | 0.00 | 0.00 | 0.00 | 56 | 1007.5 |
| 20260506024932 | 71 | 160 | 0.9 | 13.9 | 0.00 | 0.00 | 0.00 | 55 | 1007.4 |
| 20260506024846 | 71 | 0 | 0.9 | 13.9 | 0.00 | 0.00 | 0.00 | 55 | 1007.5 |
| 20260506024840 | 71 | 0 | 0.9 | 13.9 | 0.00 | 0.00 | 0.00 | 55 | 1007.4 |
| 20260506024632 | 71 | 130 | 0.9 | 13.9 | 0.00 | 0.00 | 0.00 | 55 | 1007.5 |
| 20260506024622 | 71 | 0 | 0.9 | 13.9 | 0.00 | 0.00 | 0.00 | 55 | 1007.5 |
| 20260506024531 | 71 | 173 | 0.9 | 13.9 | 0.00 | 0.00 | 0.00 | 55 | 1007.4 |
| 20260506024520 | 71 | 165 | 0.0 | 13.0 | 0.00 | 0.00 | 0.00 | 55 | 1007.5 |
| 20260506024445 | 71 | 172 | 0.9 | 13.9 | 0.00 | 0.00 | 0.00 | 54 | 1007.4 |
| 20260506024439 | 71 | 205 | 0.9 | 13.9 | 0.00 | 0.00 | 0.00 | 55 | 1007.4 |
| 20260506024229 | 71 | 155 | 0.9 | 13.9 | 0.00 | 0.00 | 0.00 | 54 | 1007.4 |
| 20260506024128 | 71 | 143 | 0.9 | 13.9 | 0.00 | 0.00 | 0.00 | 54 | 1007.4 |
| 20260506024121 | 71 | 188 | 0.9 | 13.9 | 0.00 | 0.00 | 0.00 | 54 | 1007.4 |
| 20260506024035 | 71 | 166 | 0.9 | 13.0 | 0.00 | 0.00 | 0.00 | 54 | 1007.5 |
| 20260506024028 | 71 | 144 | 0.9 | 13.9 | 0.00 | 0.00 | 0.00 | 54 | 1007.5 |
| 20260506023927 | 71 | 182 | 0.0 | 8.7 | 0.00 | 0.00 | 0.00 | 53 | 1007.4 |
| 20260506023826 | 71 | 180 | 0.0 | 8.7 | 0.00 | 0.00 | 0.00 | 53 | 1007.5 |
| 20260506023726 | 71 | 168 | 0.0 | 8.7 | 0.00 | 0.00 | 0.00 | 53 | 1007.4 |
| 20260506023628 | 71 | 163 | 0.0 | 8.7 | 0.00 | 0.00 | 0.00 | 53 | 1007.4 |
| 20260506023621 | 71 | 161 | 0.0 | 8.7 | 0.00 | 0.00 | 0.00 | 53 | 1007.4 |
| 20260506023539 | 71 | 162 | 0.0 | 8.7 | 0.00 | 0.00 | 0.00 | 52 | 1007.5 |
| 20260506023533 | 71 | 165 | 0.0 | 8.7 | 0.00 | 0.00 | 0.00 | 53 | 1007.5 |
| 20260506023521 | 71 | 164 | 0.0 | 8.7 | 0.00 | 0.00 | 0.00 | 53 | 1007.6 |
| 20260506023323 | 71 | 195 | 0.0 | 8.7 | 0.00 | 0.00 | 0.00 | 52 | 1007.5 |
| 20260506023243 | 72 | 153 | 0.0 | 8.7 | 0.00 | 0.00 | 0.00 | 52 | 1007.5 |
| 20260506023238 | 71 | 161 | 0.0 | 8.7 | 0.00 | 0.00 | 0.00 | 52 | 1007.4 |
| 20260506023124 | 72 | 153 | 0.0 | 8.7 | 0.00 | 0.00 | 0.00 | 52 | 1007.5 |
| 20260506023023 | 72 | 171 | 0.0 | 7.0 | 0.00 | 0.00 | 0.00 | 52 | 1007.5 |
| 20260506023020 | 72 | 169 | 0.0 | 4.3 | 0.00 | 0.00 | 0.00 | 52 | 1007.5 |
| 20260506022921 | 72 | 177 | 0.0 | 9.6 | 0.00 | 0.00 | 0.00 | 52 | 1007.4 |
| 20260506022821 | 72 | 155 | 0.0 | 9.6 | 0.00 | 0.00 | 0.00 | 51 | 1007.4 |
| 20260506022734 | 72 | 165 | 0.0 | 9.6 | 0.00 | 0.00 | 0.00 | 51 | 1007.5 |
| 20260506022725 | 72 | 0 | 0.9 | 9.6 | 0.00 | 0.00 | 0.00 | 51 | 1007.5 |
| 20260506022520 | 72 | 159 | 0.0 | 8.7 | 0.00 | 0.00 | 0.00 | 51 | 1007.6 |
| 20260506022419 | 72 | 201 | 0.9 | 9.6 | 0.00 | 0.00 | 0.00 | 51 | 1007.5 |
| 20260506022319 | 72 | 153 | 0.9 | 9.6 | 0.00 | 0.00 | 0.00 | 51 | 1007.5 |
| 20260506022217 | 72 | 164 | 0.9 | 9.6 | 0.00 | 0.00 | 0.00 | 51 | 1007.5 |
| 20260506022122 | 72 | 159 | 0.9 | 9.6 | 0.00 | 0.00 | 0.00 | 50 | 1007.5 |
| 20260506022117 | 72 | 153 | 0.9 | 9.6 | 0.00 | 0.00 | 0.00 | 50 | 1007.5 |
| 20260506022035 | 72 | 182 | 4.3 | 9.6 | 0.00 | 0.00 | 0.00 | 50 | 1007.5 |
| 20260506022017 | 72 | 175 | 0.9 | 9.6 | 0.00 | 0.00 | 0.00 | 50 | 1007.4 |
| 20260506021917 | 72 | 184 | 0.9 | 9.6 | 0.00 | 0.00 | 0.00 | 50 | 1007.4 |
| 20260506021831 | 72 | 186 | 0.9 | 9.6 | 0.00 | 0.00 | 0.00 | 50 | 1007.4 |
| 20260506021826 | 72 | 181 | 0.9 | 9.6 | 0.00 | 0.00 | 0.00 | 50 | 1007.4 |
| 20260506021621 | 73 | 189 | 0.9 | 9.6 | 0.00 | 0.00 | 0.00 | 50 | 1007.4 |
| 20260506021616 | 72 | 190 | 0.9 | 9.6 | 0.00 | 0.00 | 0.00 | 50 | 1007.4 |
| 20260506021542 | 73 | 177 | 0.9 | 7.8 | 0.00 | 0.00 | 0.00 | 50 | 1007.4 |
| 20260506021538 | 73 | 140 | 1.7 | 7.8 | 0.00 | 0.00 | 0.00 | 50 | 1007.4 |
| 20260506021533 | 73 | 142 | 0.9 | 9.6 | 0.00 | 0.00 | 0.00 | 50 | 1007.4 |
| 20260506021520 | 73 | 155 | 0.0 | 9.6 | 0.00 | 0.00 | 0.00 | 50 | 1007.5 |
| 20260506021214 | 73 | 167 | 0.9 | 10.4 | 0.00 | 0.00 | 0.00 | 50 | 1007.4 |
| 20260506021120 | 73 | 148 | 0.9 | 10.4 | 0.00 | 0.00 | 0.00 | 50 | 1007.4 |
| 20260506021113 | 73 | 167 | 0.9 | 10.4 | 0.00 | 0.00 | 0.00 | 50 | 1007.5 |
| 20260506021049 | 73 | 200 | 0.0 | 10.4 | 0.00 | 0.00 | 0.00 | 50 | 1007.5 |
| 20260506021013 | 73 | 173 | 0.9 | 10.4 | 0.00 | 0.00 | 0.00 | 50 | 1007.4 |
| 20260506020914 | 73 | 195 | 0.9 | 10.4 | 0.00 | 0.00 | 0.00 | 49 | 1007.4 |
| 20260506020812 | 73 | 188 | 0.9 | 10.4 | 0.00 | 0.00 | 0.00 | 49 | 1007.4 |
| 20260506020712 | 73 | 192 | 0.9 | 11.3 | 0.00 | 0.00 | 0.00 | 49 | 1007.4 |
| 20260506020619 | 73 | 186 | 0.9 | 11.3 | 0.00 | 0.00 | 0.00 | 49 | 1007.4 |
| 20260506020611 | 73 | 186 | 1.7 | 11.3 | 0.00 | 0.00 | 0.00 | 49 | 1007.3 |
| 20260506020535 | 73 | 200 | 0.0 | 12.2 | 0.00 | 0.00 | 0.00 | 49 | 1007.5 |
| 20260506020511 | 73 | 202 | 1.7 | 12.2 | 0.00 | 0.00 | 0.00 | 49 | 1007.4 |
| 20260506020424 | 73 | 209 | 1.7 | 12.2 | 0.00 | 0.00 | 0.00 | 49 | 1007.4 |
| 20260506020419 | 73 | 190 | 1.7 | 12.2 | 0.00 | 0.00 | 0.00 | 49 | 1007.3 |
| 20260506020242 | 73 | 168 | 1.7 | 12.2 | 0.00 | 0.00 | 0.00 | 49 | 1007.4 |
| 20260506020237 | 73 | 184 | 1.7 | 12.2 | 0.00 | 0.00 | 0.00 | 48 | 1007.4 |
| 20260506020232 | 73 | 165 | 1.7 | 12.2 | 0.00 | 0.00 | 0.00 | 49 | 1007.3 |
| 20260506020224 | 73 | 90 | 1.7 | 12.2 | 0.00 | 0.00 | 0.00 | 49 | 1007.3 |
| 20260506020020 | 73 | 196 | 0.0 | 12.2 | 0.00 | 0.00 | 0.00 | 48 | 1007.5 |
| 20260506015908 | 73 | 199 | 1.7 | 12.2 | 0.00 | 0.00 | 0.00 | 48 | 1007.4 |
| 20260506015807 | 73 | 162 | 1.7 | 12.2 | 0.00 | 0.00 | 0.00 | 48 | 1007.4 |
| 20260506015708 | 73 | 160 | 1.7 | 12.2 | 0.00 | 0.00 | 0.00 | 48 | 1007.4 |
| 20260506015618 | 73 | 199 | 1.7 | 12.2 | 0.00 | 0.00 | 0.00 | 48 | 1007.4 |
| 20260506015608 | 73 | 132 | 1.7 | 12.2 | 0.00 | 0.00 | 0.00 | 48 | 1007.4 |
| 20260506015520 | 73 | 167 | 12.2 | 12.2 | 0.00 | 0.00 | 0.00 | 48 | 1007.3 |
| 20260506015506 | 73 | 169 | 1.7 | 12.2 | 0.00 | 0.00 | 0.00 | 48 | 1007.3 |
| 20260506015406 | 73 | 136 | 1.7 | 14.8 | 0.00 | 0.00 | 0.00 | 48 | 1007.3 |
| 20260506015306 | 73 | 179 | 1.7 | 14.8 | 0.00 | 0.00 | 0.00 | 48 | 1007.3 |
| 20260506015204 | 73 | 136 | 1.7 | 14.8 | 0.00 | 0.00 | 0.00 | 47 | 1007.3 |
| 20260506015146 | 74 | 190 | 1.7 | 14.8 | 0.00 | 0.00 | 0.00 | 47 | 1007.3 |
| 20260506015140 | 73 | 147 | 1.7 | 14.8 | 0.00 | 0.00 | 0.00 | 48 | 1007.3 |
| 20260506015134 | 73 | 168 | 1.7 | 14.8 | 0.00 | 0.00 | 0.00 | 48 | 1007.3 |
| 20260506015020 | 73 | 174 | 0.0 | 14.8 | 0.00 | 0.00 | 0.00 | 47 | 1007.3 |
| 20260506014702 | 74 | 150 | 1.7 | 14.8 | 0.00 | 0.00 | 0.00 | 47 | 1007.3 |
| 20260506014619 | 74 | 189 | 1.7 | 14.8 | 0.00 | 0.00 | 0.00 | 47 | 1007.3 |
| 20260506014601 | 74 | 181 | 1.7 | 14.8 | 0.00 | 0.00 | 0.00 | 47 | 1007.3 |
| 20260506014535 | 74 | 143 | 0.0 | 14.8 | 0.00 | 0.00 | 0.00 | 47 | 1007.2 |
| 20260506014500 | 74 | 146 | 1.7 | 14.8 | 0.00 | 0.00 | 0.00 | 47 | 1007.2 |
| 20260506014400 | 74 | 166 | 2.6 | 19.1 | 0.00 | 0.00 | 0.00 | 47 | 1007.3 |
| 20260506014351 | 74 | 167 | 2.6 | 19.1 | 0.00 | 0.00 | 0.00 | 47 | 1007.2 |
| 20260506014340 | 74 | 153 | 2.6 | 19.1 | 0.00 | 0.00 | 0.00 | 47 | 1007.2 |
| 20260506014333 | 74 | 184 | 2.6 | 19.1 | 0.00 | 0.00 | 0.00 | 47 | 1007.2 |
| 20260506014100 | 74 | 173 | 2.6 | 19.1 | 0.00 | 0.00 | 0.00 | 47 | 1007.2 |
| 20260506014020 | 74 | 130 | 2.6 | 19.1 | 0.00 | 0.00 | 0.00 | 47 | 1007.1 |
| 20260506014012 | 74 | 184 | 2.6 | 19.1 | 0.00 | 0.00 | 0.00 | 47 | 1007.2 |
| 20260506014007 | 74 | 151 | 2.6 | 19.1 | 0.00 | 0.00 | 0.00 | 47 | 1007.1 |
| 20260506013757 | 74 | 169 | 2.6 | 19.1 | 0.00 | 0.00 | 0.00 | 47 | 1007.2 |
| 20260506013729 | 74 | 169 | 2.6 | 19.1 | 0.00 | 0.00 | 0.00 | 46 | 1007.1 |
| 20260506013724 | 74 | 212 | 2.6 | 19.1 | 0.00 | 0.00 | 0.00 | 46 | 1007.1 |
| 20260506013718 | 74 | 167 | 2.6 | 19.1 | 0.00 | 0.00 | 0.00 | 46 | 1007.1 |
| 20260506013710 | 74 | 161 | 2.6 | 19.1 | 0.00 | 0.00 | 0.00 | 46 | 1007.1 |
| 20260506013520 | 74 | 150 | 0.0 | 19.1 | 0.00 | 0.00 | 0.00 | 46 | 1007.1 |
| 20260506013441 | 74 | 192 | 1.7 | 16.5 | 0.00 | 0.00 | 0.00 | 46 | 1007.1 |
| 20260506013354 | 74 | 160 | 1.7 | 16.5 | 0.00 | 0.00 | 0.00 | 46 | 1007.2 |
| 20260506013343 | 74 | 192 | 1.7 | 16.5 | 0.00 | 0.00 | 0.00 | 46 | 1007.1 |
| 20260506013337 | 74 | 173 | 1.7 | 16.5 | 0.00 | 0.00 | 0.00 | 46 | 1007.1 |
| 20260506013327 | 74 | 185 | 1.7 | 16.5 | 0.00 | 0.00 | 0.00 | 46 | 1007.1 |
| 20260506013020 | 74 | 148 | 3.5 | 16.5 | 0.00 | 0.00 | 0.00 | 46 | 1007.1 |
| 20260506012959 | 74 | 198 | 1.7 | 15.6 | 0.00 | 0.00 | 0.00 | 46 | 1007.1 |
| 20260506012749 | 74 | 186 | 0.9 | 13.0 | 0.00 | 0.00 | 0.00 | 46 | 1007.0 |
| 20260506012648 | 74 | 155 | 0.9 | 13.0 | 0.00 | 0.00 | 0.00 | 46 | 1007.1 |
| 20260506012614 | 74 | 179 | 0.9 | 13.0 | 0.00 | 0.00 | 0.00 | 46 | 1007.1 |
| 20260506012547 | 74 | 180 | 0.9 | 13.0 | 0.00 | 0.00 | 0.00 | 46 | 1007.1 |
| 20260506012520 | 74 | 163 | 0.0 | 13.0 | 0.00 | 0.00 | 0.00 | 46 | 1007.1 |
| 20260506012447 | 74 | 168 | 0.9 | 13.0 | 0.00 | 0.00 | 0.00 | 46 | 1007.1 |
| 20260506012401 | 74 | 209 | 0.9 | 13.0 | 0.00 | 0.00 | 0.00 | 46 | 1007.0 |
| 20260506012355 | 74 | 177 | 0.9 | 13.0 | 0.00 | 0.00 | 0.00 | 46 | 1007.0 |
| 20260506012146 | 74 | 137 | 0.9 | 8.7 | 0.00 | 0.00 | 0.00 | 46 | 1007.0 |
| 20260506012114 | 74 | 150 | 0.9 | 8.7 | 0.00 | 0.00 | 0.00 | 46 | 1007.1 |
| 20260506012045 | 74 | 188 | 0.9 | 8.7 | 0.00 | 0.00 | 0.00 | 46 | 1007.1 |
| 20260506012020 | 74 | 178 | 0.0 | 8.7 | 0.00 | 0.00 | 0.00 | 46 | 1007.0 |
| 20260506011946 | 74 | 186 | 0.9 | 8.7 | 0.00 | 0.00 | 0.00 | 46 | 1007.0 |
| 20260506011845 | 74 | 191 | 0.9 | 13.0 | 0.00 | 0.00 | 0.00 | 45 | 1007.0 |
| 20260506011744 | 74 | 194 | 0.9 | 13.9 | 0.00 | 0.00 | 0.00 | 45 | 1007.1 |
| 20260506011703 | 74 | 160 | 0.9 | 13.9 | 0.00 | 0.00 | 0.00 | 45 | 1007.0 |
| 20260506011658 | 74 | 199 | 0.9 | 13.9 | 0.00 | 0.00 | 0.00 | 45 | 1007.0 |
| 20260506011650 | 74 | 0 | 0.9 | 13.9 | 0.00 | 0.00 | 0.00 | 45 | 1007.0 |
| 20260506011520 | 74 | 169 | 0.0 | 13.9 | 0.00 | 0.00 | 0.00 | 45 | 1007.0 |
| 20260506011443 | 74 | 195 | 0.9 | 13.9 | 0.00 | 0.00 | 0.00 | 45 | 1007.0 |
| 20260506011343 | 74 | 151 | 0.9 | 13.9 | 0.00 | 0.00 | 0.00 | 45 | 1006.9 |
| 20260506011242 | 74 | 198 | 0.9 | 13.9 | 0.00 | 0.00 | 0.00 | 45 | 1006.9 |
| 20260506011201 | 74 | 148 | 0.9 | 13.9 | 0.00 | 0.00 | 0.00 | 45 | 1006.9 |
| 20260506011156 | 74 | 197 | 0.9 | 13.9 | 0.00 | 0.00 | 0.00 | 45 | 1006.9 |
| 20260506011149 | 74 | 195 | 0.9 | 13.9 | 0.00 | 0.00 | 0.00 | 45 | 1006.9 |
| 20260506011035 | 74 | 171 | 0.9 | 13.9 | 0.00 | 0.00 | 0.00 | 45 | 1006.9 |
| 20260506011008 | 74 | 165 | 0.0 | 13.9 | 0.00 | 0.00 | 0.00 | 45 | 1006.9 |
| 20260506011004 | 74 | 161 | 0.0 | 5.2 | 0.00 | 0.00 | 0.00 | 45 | 1007.0 |
| 20260506010958 | 74 | 171 | 0.0 | 13.9 | 0.00 | 0.00 | 0.00 | 45 | 1006.9 |
| 20260506010640 | 74 | 0 | 0.0 | 5.2 | 0.00 | 0.00 | 0.00 | 44 | 1006.9 |
| 20260506010612 | 74 | 155 | 0.0 | 5.2 | 0.00 | 0.00 | 0.00 | 44 | 1006.9 |
| 20260506010539 | 74 | 179 | 0.0 | 5.2 | 0.00 | 0.00 | 0.00 | 44 | 1006.9 |
| 20260506010520 | 75 | 187 | 0.0 | 5.2 | 0.00 | 0.00 | 0.00 | 44 | 1006.9 |
| 20260506010438 | 74 | 163 | 0.0 | 5.2 | 0.00 | 0.00 | 0.00 | 44 | 1006.9 |
| 20260506010337 | 75 | 200 | 0.0 | 11.3 | 0.00 | 0.00 | 0.00 | 44 | 1006.9 |
| 20260506010239 | 75 | 0 | 0.9 | 11.3 | 0.00 | 0.00 | 0.00 | 44 | 1006.8 |
| 20260506010139 | 75 | 186 | 0.9 | 11.3 | 0.00 | 0.00 | 0.00 | 44 | 1006.9 |
| 20260506010110 | 75 | 0 | 0.9 | 11.3 | 0.00 | 0.00 | 0.00 | 44 | 1006.9 |
| 20260506010038 | 75 | 186 | 0.9 | 11.3 | 0.00 | 0.00 | 0.00 | 44 | 1006.9 |
| 20260506010020 | 75 | 189 | 0.0 | 11.3 | 0.00 | 0.00 | 0.00 | 44 | 1006.9 |
| 20260506005937 | 75 | 148 | 0.9 | 11.3 | 0.00 | 0.00 | 0.00 | 44 | 1006.9 |
| 20260506005841 | 75 | 155 | 0.9 | 11.3 | 0.00 | 0.00 | 0.00 | 44 | 1006.8 |
| 20260506005836 | 75 | 175 | 0.9 | 11.3 | 0.00 | 0.00 | 0.00 | 44 | 1006.8 |
| 20260506005735 | 75 | 188 | 0.9 | 11.3 | 0.00 | 0.00 | 0.00 | 44 | 1006.8 |
| 20260506005718 | 75 | 157 | 0.9 | 11.3 | 0.00 | 0.00 | 0.00 | 44 | 1006.7 |
| 20260506005545 | 75 | 196 | 0.9 | 11.3 | 0.00 | 0.00 | 0.00 | 43 | 1006.7 |
| 20260506005540 | 75 | 186 | 0.9 | 11.3 | 0.00 | 0.00 | 0.00 | 44 | 1006.8 |
| 20260506005520 | 75 | 187 | 0.0 | 11.3 | 0.00 | 0.00 | 0.00 | 44 | 1006.7 |
| 20260506005330 | 75 | 182 | 0.9 | 8.7 | 0.00 | 0.00 | 0.00 | 43 | 1006.8 |
| 20260506005232 | 75 | 127 | 0.9 | 8.7 | 0.00 | 0.00 | 0.00 | 43 | 1006.7 |
| 20260506005132 | 75 | 200 | 0.9 | 9.6 | 0.00 | 0.00 | 0.00 | 43 | 1006.7 |
| 20260506005109 | 75 | 186 | 0.9 | 9.6 | 0.00 | 0.00 | 0.00 | 43 | 1006.7 |
| 20260506005042 | 75 | 164 | 0.9 | 10.4 | 0.00 | 0.00 | 0.00 | 43 | 1006.8 |
| 20260506005038 | 75 | 141 | 0.9 | 9.6 | 0.00 | 0.00 | 0.00 | 43 | 1006.7 |
| 20260506005020 | 75 | 138 | 7.8 | 7.8 | 0.00 | 0.00 | 0.00 | 43 | 1006.8 |
| 20260506004828 | 75 | 158 | 1.7 | 13.0 | 0.00 | 0.00 | 0.00 | 43 | 1006.7 |
| 20260506004728 | 75 | 180 | 1.7 | 13.0 | 0.00 | 0.00 | 0.00 | 43 | 1006.8 |
| 20260506004628 | 75 | 221 | 1.7 | 13.0 | 0.00 | 0.00 | 0.00 | 43 | 1006.7 |
| 20260506004610 | 75 | 179 | 1.7 | 13.0 | 0.00 | 0.00 | 0.00 | 43 | 1006.8 |
| 20260506004538 | 75 | 138 | 2.6 | 13.0 | 0.00 | 0.00 | 0.00 | 43 | 1006.8 |
| 20260506004534 | 75 | 191 | 1.7 | 13.0 | 0.00 | 0.00 | 0.00 | 43 | 1006.8 |
| 20260506004520 | 75 | 175 | 0.0 | 13.0 | 0.00 | 0.00 | 0.00 | 43 | 1006.7 |
| 20260506004325 | 75 | 200 | 2.6 | 20.0 | 0.00 | 0.00 | 0.00 | 43 | 1006.8 |
| 20260506004223 | 75 | 169 | 2.6 | 20.0 | 0.00 | 0.00 | 0.00 | 43 | 1006.8 |
| 20260506004123 | 75 | 188 | 2.6 | 20.0 | 0.00 | 0.00 | 0.00 | 43 | 1006.8 |
| 20260506004109 | 75 | 200 | 2.6 | 20.0 | 0.00 | 0.00 | 0.00 | 43 | 1006.8 |
| 20260506004023 | 75 | 146 | 2.6 | 20.0 | 0.00 | 0.00 | 0.00 | 43 | 1006.8 |
| 20260506004020 | 76 | 148 | 0.0 | 20.0 | 0.00 | 0.00 | 0.00 | 43 | 1006.6 |
| 20260506003921 | 76 | 171 | 2.6 | 20.0 | 0.00 | 0.00 | 0.00 | 43 | 1006.7 |
| 20260506003835 | 76 | 220 | 2.6 | 20.0 | 0.00 | 0.00 | 0.00 | 43 | 1006.7 |
| 20260506003821 | 76 | 204 | 2.6 | 20.0 | 0.00 | 0.00 | 0.00 | 43 | 1006.8 |
| 20260506003725 | 76 | 155 | 2.6 | 20.0 | 0.00 | 0.00 | 0.00 | 43 | 1006.8 |
| 20260506003716 | 76 | 150 | 2.6 | 20.0 | 0.00 | 0.00 | 0.00 | 43 | 1006.7 |
| 20260506003543 | 76 | 161 | 1.7 | 14.8 | 0.00 | 0.00 | 0.00 | 43 | 1006.7 |
| 20260506003539 | 76 | 160 | 1.7 | 11.3 | 0.00 | 0.00 | 0.00 | 43 | 1006.7 |
| 20260506003535 | 76 | 200 | 2.6 | 20.0 | 0.00 | 0.00 | 0.00 | 43 | 1006.7 |
| 20260506003521 | 76 | 163 | 0.9 | 20.0 | 0.00 | 0.00 | 0.00 | 43 | 1006.6 |
| 20260506003216 | 76 | 183 | 0.9 | 11.3 | 0.00 | 0.00 | 0.00 | 43 | 1006.7 |
| 20260506003116 | 76 | 182 | 1.7 | 11.3 | 0.00 | 0.00 | 0.00 | 43 | 1006.7 |
| 20260506003108 | 76 | 162 | 1.7 | 11.3 | 0.00 | 0.00 | 0.00 | 43 | 1006.7 |
| 20260506003020 | 76 | 194 | 0.0 | 11.3 | 0.00 | 0.00 | 0.00 | 43 | 1006.5 |
| 20260506003014 | 76 | 194 | 1.7 | 11.3 | 0.00 | 0.00 | 0.00 | 43 | 1006.6 |
| 20260506002934 | 75 | 180 | 0.9 | 10.4 | 0.00 | 0.00 | 0.00 | 43 | 1006.6 |
| 20260506002930 | 75 | 177 | 0.9 | 11.3 | 0.00 | 0.00 | 0.00 | 43 | 1006.6 |
| 20260506002812 | 75 | 176 | 0.9 | 10.4 | 0.00 | 0.00 | 0.00 | 43 | 1006.6 |
| 20260506002658 | 76 | 192 | 0.9 | 10.4 | 0.00 | 0.00 | 0.00 | 44 | 1006.6 |
| 20260506002652 | 76 | 193 | 0.9 | 10.4 | 0.00 | 0.00 | 0.00 | 44 | 1006.6 |
| 20260506002520 | 76 | 161 | 5.2 | 12.2 | 0.00 | 0.00 | 0.00 | 44 | 1006.5 |
| 20260506002430 | 76 | 190 | 1.7 | 12.2 | 0.00 | 0.00 | 0.00 | 44 | 1006.5 |
| 20260506002426 | 76 | 194 | 0.9 | 12.2 | 0.00 | 0.00 | 0.00 | 44 | 1006.6 |
| 20260506002114 | 76 | 165 | 1.7 | 12.2 | 0.00 | 0.00 | 0.00 | 44 | 1006.5 |
| 20260506002108 | 76 | 163 | 1.7 | 12.2 | 0.00 | 0.00 | 0.00 | 44 | 1006.5 |
| 20260506002019 | 76 | 167 | 0.0 | 12.2 | 0.00 | 0.00 | 0.00 | 44 | 1006.4 |
| 20260506002007 | 76 | 156 | 1.7 | 12.2 | 0.00 | 0.00 | 0.00 | 44 | 1006.5 |
| 20260506001907 | 76 | 163 | 1.7 | 12.2 | 0.00 | 0.00 | 0.00 | 44 | 1006.5 |
| 20260506001806 | 76 | 174 | 1.7 | 12.2 | 0.00 | 0.00 | 0.00 | 44 | 1006.5 |
| 20260506001706 | 76 | 183 | 1.7 | 12.2 | 0.00 | 0.00 | 0.00 | 44 | 1006.5 |
| 20260506001611 | 76 | 175 | 0.9 | 12.2 | 0.00 | 0.00 | 0.00 | 44 | 1006.4 |
| 20260506001605 | 76 | 152 | 0.9 | 12.2 | 0.00 | 0.00 | 0.00 | 44 | 1006.4 |
| 20260506001526 | 76 | 180 | 0.9 | 11.3 | 0.00 | 0.00 | 0.00 | 44 | 1006.5 |
| 20260506001520 | 76 | 170 | 1.7 | 11.3 | 0.00 | 0.00 | 0.00 | 44 | 1006.4 |
| 20260506001413 | 76 | 136 | 0.9 | 11.3 | 0.00 | 0.00 | 0.00 | 44 | 1006.4 |
| 20260506001203 | 76 | 171 | 0.9 | 11.3 | 0.00 | 0.00 | 0.00 | 44 | 1006.5 |
| 20260506001108 | 76 | 178 | 0.9 | 7.0 | 0.00 | 0.00 | 0.00 | 44 | 1006.4 |
| 20260506001102 | 76 | 167 | 0.9 | 7.0 | 0.00 | 0.00 | 0.00 | 44 | 1006.4 |
| 20260506001020 | 76 | 146 | 3.5 | 7.0 | 0.00 | 0.00 | 0.00 | 44 | 1006.3 |
| 20260506001014 | 76 | 202 | 0.0 | 7.0 | 0.00 | 0.00 | 0.00 | 44 | 1006.4 |
| 20260506001010 | 76 | 171 | 0.9 | 7.0 | 0.00 | 0.00 | 0.00 | 44 | 1006.4 |
| 20260506000812 | 76 | 169 | 0.0 | 5.2 | 0.00 | 0.00 | 0.00 | 44 | 1006.4 |
| 20260506000808 | 76 | 194 | 0.0 | 7.0 | 0.00 | 0.00 | 0.00 | 44 | 1006.4 |
| 20260506000608 | 76 | 166 | 0.0 | 4.3 | 0.00 | 0.00 | 0.00 | 44 | 1006.4 |
| 20260506000559 | 76 | 179 | 0.0 | 4.3 | 0.00 | 0.00 | 0.00 | 44 | 1006.4 |
| 20260506000535 | 76 | 242 | 0.0 | 4.3 | 0.00 | 0.00 | 0.00 | 44 | 1006.3 |
| 20260506000459 | 76 | 183 | 0.0 | 4.3 | 0.00 | 0.00 | 0.00 | 44 | 1006.4 |
| 20260506000401 | 76 | 145 | 0.0 | 4.3 | 0.00 | 0.00 | 0.00 | 44 | 1006.4 |
| 20260506000258 | 76 | 151 | 0.0 | 4.3 | 0.00 | 0.00 | 0.00 | 44 | 1006.4 |
| 20260506000157 | 76 | 170 | 0.0 | 6.1 | 0.00 | 0.00 | 0.00 | 44 | 1006.4 |
| 20260506000107 | 76 | 166 | 0.0 | 6.1 | 0.00 | 0.00 | 0.00 | 44 | 1006.4 |
| 20260506000056 | 76 | 163 | 0.0 | 6.1 | 0.00 | 0.00 | 0.00 | 44 | 1006.4 |
| 20260506000050 | 76 | 165 | 0.0 | 7.8 | 0.00 | 0.00 | 0.00 | 44 | 1006.3 |
| 20260505235955 | 76 | 168 | 0.0 | 7.8 | 0.00 | 0.00 | 0.00 | 44 | 1006.4 |
| 20260505235853 | 76 | 177 | 0.0 | 7.8 | 0.00 | 0.00 | 0.00 | 44 | 1006.4 |
| 20260505235752 | 76 | 171 | 0.0 | 7.8 | 0.00 | 0.00 | 0.00 | 44 | 1006.3 |
| 20260505235652 | 76 | 159 | 0.0 | 7.8 | 0.00 | 0.00 | 0.00 | 44 | 1006.3 |
| 20260505235623 | 76 | 177 | 0.0 | 7.8 | 0.00 | 0.00 | 0.00 | 43 | 1006.3 |
| 20260505235619 | 76 | 188 | 0.9 | 7.8 | 0.00 | 0.00 | 0.00 | 43 | 1006.3 |
| 20260505235614 | 76 | 188 | 0.0 | 7.8 | 0.00 | 0.00 | 0.00 | 44 | 1006.3 |
| 20260505235608 | 76 | 186 | 0.0 | 7.8 | 0.00 | 0.00 | 0.00 | 44 | 1006.3 |
| 20260505235520 | 76 | 149 | 0.0 | 7.8 | 0.00 | 0.00 | 0.00 | 43 | 1006.2 |
| 20260505235250 | 76 | 167 | 0.9 | 8.7 | 0.00 | 0.00 | 0.00 | 43 | 1006.3 |
| 20260505235149 | 77 | 186 | 0.9 | 8.7 | 0.00 | 0.00 | 0.00 | 43 | 1006.3 |
| 20260505235104 | 77 | 173 | 0.9 | 8.7 | 0.00 | 0.00 | 0.00 | 43 | 1006.2 |
| 20260505235049 | 77 | 146 | 0.9 | 8.7 | 0.00 | 0.00 | 0.00 | 43 | 1006.2 |
| 20260505235019 | 77 | 156 | 7.8 | 8.7 | 0.00 | 0.00 | 0.00 | 43 | 1006.2 |
| 20260505234949 | 77 | 171 | 0.9 | 8.7 | 0.00 | 0.00 | 0.00 | 42 | 1006.3 |
| 20260505234935 | 77 | 162 | 0.9 | 8.7 | 0.00 | 0.00 | 0.00 | 42 | 1006.3 |
| 20260505234749 | 77 | 152 | 0.9 | 8.7 | 0.00 | 0.00 | 0.00 | 42 | 1006.2 |
| 20260505234713 | 77 | 183 | 0.9 | 8.7 | 0.00 | 0.00 | 0.00 | 42 | 1006.2 |
| 20260505234548 | 77 | 152 | 0.9 | 8.7 | 0.00 | 0.00 | 0.00 | 41 | 1006.3 |
| 20260505234520 | 77 | 165 | 0.0 | 8.7 | 0.00 | 0.00 | 0.00 | 41 | 1006.1 |
| 20260505234447 | 77 | 173 | 0.9 | 8.7 | 0.00 | 0.00 | 0.00 | 41 | 1006.2 |
| 20260505234346 | 77 | 179 | 0.0 | 8.7 | 0.00 | 0.00 | 0.00 | 41 | 1006.2 |
| 20260505234246 | 77 | 167 | 0.0 | 7.0 | 0.00 | 0.00 | 0.00 | 41 | 1006.2 |
| 20260505234144 | 77 | 159 | 0.0 | 7.0 | 0.00 | 0.00 | 0.00 | 41 | 1006.2 |
| 20260505234104 | 77 | 167 | 0.0 | 7.0 | 0.00 | 0.00 | 0.00 | 41 | 1006.2 |
| 20260505234044 | 77 | 153 | 0.0 | 7.0 | 0.00 | 0.00 | 0.00 | 41 | 1006.2 |
| 20260505234020 | 77 | 169 | 0.0 | 7.0 | 0.00 | 0.00 | 0.00 | 41 | 1006.0 |
| 20260505233942 | 77 | 138 | 0.0 | 7.0 | 0.00 | 0.00 | 0.00 | 40 | 1006.1 |
| 20260505233858 | 77 | 178 | 0.0 | 4.3 | 0.00 | 0.00 | 0.00 | 40 | 1006.2 |
| 20260505233854 | 77 | 0 | 0.0 | 7.0 | 0.00 | 0.00 | 0.00 | 40 | 1006.2 |
| 20260505233849 | 77 | 159 | 0.0 | 7.0 | 0.00 | 0.00 | 0.00 | 40 | 1006.2 |
| 20260505233714 | 77 | 0 | 0.0 | 7.0 | 0.00 | 0.00 | 0.00 | 40 | 1006.2 |
| 20260505233538 | 77 | 0 | 0.0 | 7.0 | 0.00 | 0.00 | 0.00 | 40 | 1006.2 |
| 20260505233520 | 77 | 360 | 0.0 | 7.0 | 0.00 | 0.00 | 0.00 | 40 | 1006.1 |
| 20260505233437 | 78 | 0 | 0.0 | 7.0 | 0.00 | 0.00 | 0.00 | 40 | 1006.2 |
| 20260505233337 | 78 | 0 | 0.0 | 7.0 | 0.00 | 0.00 | 0.00 | 40 | 1006.2 |
| 20260505233235 | 78 | 188 | 0.0 | 7.0 | 0.00 | 0.00 | 0.00 | 40 | 1006.1 |
| 20260505233135 | 78 | 175 | 0.0 | 7.0 | 0.00 | 0.00 | 0.00 | 40 | 1006.1 |
| 20260505233103 | 78 | 174 | 0.0 | 7.0 | 0.00 | 0.00 | 0.00 | 39 | 1006.1 |
| 20260505233034 | 78 | 173 | 0.0 | 7.0 | 0.00 | 0.00 | 0.00 | 39 | 1006.1 |
| 20260505233020 | 78 | 176 | 0.0 | 7.0 | 0.00 | 0.00 | 0.00 | 39 | 1006.0 |
| 20260505232934 | 78 | 188 | 0.0 | 7.0 | 0.00 | 0.00 | 0.00 | 39 | 1006.1 |
| 20260505232846 | 78 | 175 | 0.0 | 7.0 | 0.00 | 0.00 | 0.00 | 39 | 1006.1 |
| 20260505232842 | 78 | 212 | 0.0 | 7.0 | 0.00 | 0.00 | 0.00 | 39 | 1006.1 |
| 20260505232632 | 78 | 199 | 0.0 | 5.2 | 0.00 | 0.00 | 0.00 | 39 | 1006.1 |
| 20260505232603 | 78 | 188 | 0.0 | 5.2 | 0.00 | 0.00 | 0.00 | 39 | 1006.1 |
| 20260505232531 | 78 | 188 | 0.0 | 5.2 | 0.00 | 0.00 | 0.00 | 39 | 1006.1 |
| 20260505232520 | 78 | 188 | 0.0 | 4.3 | 0.00 | 0.00 | 0.00 | 39 | 1006.0 |
| 20260505232430 | 78 | 171 | 0.0 | 5.2 | 0.00 | 0.00 | 0.00 | 39 | 1006.1 |
| 20260505232329 | 78 | 202 | 0.0 | 8.7 | 0.00 | 0.00 | 0.00 | 39 | 1006.1 |
| 20260505232229 | 78 | 187 | 0.0 | 8.7 | 0.00 | 0.00 | 0.00 | 39 | 1006.1 |
| 20260505232129 | 78 | 202 | 0.0 | 8.7 | 0.00 | 0.00 | 0.00 | 39 | 1006.1 |
| 20260505232103 | 78 | 200 | 0.0 | 8.7 | 0.00 | 0.00 | 0.00 | 38 | 1006.1 |
| 20260505232028 | 78 | 188 | 0.0 | 8.7 | 0.00 | 0.00 | 0.00 | 38 | 1006.1 |
| 20260505232020 | 78 | 182 | 4.3 | 8.7 | 0.00 | 0.00 | 0.00 | 39 | 1006.0 |
| 20260505231940 | 78 | 203 | 0.0 | 8.7 | 0.00 | 0.00 | 0.00 | 38 | 1006.1 |
| 20260505231935 | 78 | 191 | 0.0 | 8.7 | 0.00 | 0.00 | 0.00 | 39 | 1006.1 |
| 20260505231726 | 78 | 196 | 0.0 | 8.7 | 0.00 | 0.00 | 0.00 | 38 | 1006.1 |
| 20260505231626 | 78 | 200 | 0.0 | 9.6 | 0.00 | 0.00 | 0.00 | 38 | 1006.0 |
| 20260505231603 | 78 | 203 | 0.0 | 9.6 | 0.00 | 0.00 | 0.00 | 38 | 1006.0 |
| 20260505231524 | 78 | 198 | 0.0 | 9.6 | 0.00 | 0.00 | 0.00 | 38 | 1006.0 |
| 20260505231520 | 78 | 176 | 0.0 | 9.6 | 0.00 | 0.00 | 0.00 | 38 | 1005.9 |
| 20260505231424 | 78 | 196 | 0.0 | 9.6 | 0.00 | 0.00 | 0.00 | 38 | 1006.0 |
| 20260505231323 | 78 | 190 | 0.0 | 9.6 | 0.00 | 0.00 | 0.00 | 38 | 1006.0 |
| 20260505231223 | 78 | 184 | 0.0 | 9.6 | 0.00 | 0.00 | 0.00 | 38 | 1006.1 |
| 20260505231123 | 78 | 176 | 0.0 | 9.6 | 0.00 | 0.00 | 0.00 | 38 | 1006.0 |
| 20260505231102 | 78 | 206 | 0.0 | 9.6 | 0.00 | 0.00 | 0.00 | 38 | 1006.0 |
| 20260505231021 | 78 | 164 | 0.0 | 9.6 | 0.00 | 0.00 | 0.00 | 38 | 1006.0 |
| 20260505230933 | 78 | 169 | 0.9 | 9.6 | 0.00 | 0.00 | 0.00 | 37 | 1006.0 |
| 20260505230929 | 78 | 203 | 0.0 | 9.6 | 0.00 | 0.00 | 0.00 | 38 | 1006.0 |
| 20260505230719 | 78 | 152 | 0.9 | 9.6 | 0.00 | 0.00 | 0.00 | 38 | 1006.0 |
| 20260505230619 | 78 | 190 | 0.0 | 9.6 | 0.00 | 0.00 | 0.00 | 38 | 1006.0 |
| 20260505230602 | 78 | 188 | 0.9 | 9.6 | 0.00 | 0.00 | 0.00 | 38 | 1006.0 |
| 20260505230520 | 79 | 167 | 0.0 | 12.2 | 0.00 | 0.00 | 0.00 | 37 | 1005.9 |
| 20260505230518 | 78 | 167 | 0.9 | 9.6 | 0.00 | 0.00 | 0.00 | 37 | 1006.0 |
| 20260505230429 | 78 | 194 | 0.9 | 12.2 | 0.00 | 0.00 | 0.00 | 37 | 1006.0 |
| 20260505230424 | 78 | 211 | 0.9 | 12.2 | 0.00 | 0.00 | 0.00 | 38 | 1006.0 |
| 20260505230228 | 79 | 228 | 0.9 | 12.2 | 0.00 | 0.00 | 0.00 | 37 | 1006.0 |
| 20260505230224 | 79 | 197 | 0.9 | 12.2 | 0.00 | 0.00 | 0.00 | 37 | 1005.9 |
| 20260505230020 | 79 | 212 | 0.0 | 12.2 | 0.00 | 0.00 | 0.00 | 37 | 1005.9 |
| 20260505230014 | 79 | 212 | 1.7 | 12.2 | 0.00 | 0.00 | 0.00 | 37 | 1006.0 |
| 20260505225914 | 79 | 213 | 0.9 | 12.2 | 0.00 | 0.00 | 0.00 | 37 | 1005.9 |
| 20260505225826 | 79 | 188 | 0.9 | 12.2 | 0.00 | 0.00 | 0.00 | 37 | 1006.0 |
| 20260505225822 | 79 | 171 | 0.9 | 12.2 | 0.00 | 0.00 | 0.00 | 37 | 1006.0 |
| 20260505225612 | 79 | 191 | 0.9 | 12.2 | 0.00 | 0.00 | 0.00 | 36 | 1005.9 |
| 20260505225600 | 79 | 203 | 0.9 | 12.2 | 0.00 | 0.00 | 0.00 | 36 | 1005.9 |
| 20260505225520 | 79 | 208 | 12.2 | 12.2 | 0.00 | 0.00 | 0.00 | 36 | 1005.7 |
| 20260505225512 | 79 | 194 | 0.9 | 12.2 | 0.00 | 0.00 | 0.00 | 36 | 1005.9 |
| 20260505225410 | 79 | 159 | 0.9 | 12.2 | 0.00 | 0.00 | 0.00 | 37 | 1006.0 |
| 20260505225310 | 79 | 203 | 0.9 | 13.9 | 0.00 | 0.00 | 0.00 | 36 | 1006.0 |
| 20260505225211 | 79 | 210 | 0.9 | 13.9 | 0.00 | 0.00 | 0.00 | 37 | 1005.9 |
| 20260505225110 | 79 | 184 | 0.9 | 13.9 | 0.00 | 0.00 | 0.00 | 36 | 1006.0 |
| 20260505225100 | 79 | 177 | 0.9 | 13.9 | 0.00 | 0.00 | 0.00 | 36 | 1006.0 |
| 20260505225020 | 79 | 184 | 5.2 | 13.9 | 0.00 | 0.00 | 0.00 | 36 | 1005.7 |
| 20260505225010 | 79 | 180 | 0.9 | 13.9 | 0.00 | 0.00 | 0.00 | 36 | 1005.9 |
| 20260505224909 | 79 | 238 | 0.9 | 13.9 | 0.00 | 0.00 | 0.00 | 36 | 1005.9 |
| 20260505224808 | 79 | 225 | 0.9 | 13.9 | 0.00 | 0.00 | 0.00 | 36 | 1005.9 |
| 20260505224709 | 79 | 182 | 0.9 | 13.9 | 0.00 | 0.00 | 0.00 | 36 | 1005.9 |
| 20260505224607 | 79 | 194 | 0.9 | 13.9 | 0.00 | 0.00 | 0.00 | 35 | 1005.9 |
| 20260505224558 | 79 | 207 | 0.9 | 13.9 | 0.00 | 0.00 | 0.00 | 35 | 1005.9 |
| 20260505224520 | 79 | 240 | 0.0 | 13.9 | 0.00 | 0.00 | 0.00 | 35 | 1005.7 |
| 20260505224506 | 79 | 207 | 0.9 | 13.9 | 0.00 | 0.00 | 0.00 | 35 | 1005.9 |
| 20260505224406 | 79 | 192 | 0.9 | 13.9 | 0.00 | 0.00 | 0.00 | 35 | 1005.9 |
| 20260505224305 | 80 | 202 | 0.9 | 13.0 | 0.00 | 0.00 | 0.00 | 35 | 1006.0 |
| 20260505224205 | 80 | 227 | 0.9 | 13.0 | 0.00 | 0.00 | 0.00 | 35 | 1005.9 |
| 20260505224106 | 80 | 180 | 0.0 | 13.0 | 0.00 | 0.00 | 0.00 | 35 | 1006.0 |
| 20260505224100 | 80 | 183 | 0.0 | 13.0 | 0.00 | 0.00 | 0.00 | 35 | 1006.0 |
| 20260505224020 | 80 | 196 | 4.3 | 7.8 | 0.00 | 0.00 | 0.00 | 35 | 1005.8 |
| 20260505224004 | 80 | 182 | 0.0 | 7.8 | 0.00 | 0.00 | 0.00 | 35 | 1005.9 |
| 20260505223902 | 80 | 191 | 0.0 | 8.7 | 0.00 | 0.00 | 0.00 | 35 | 1005.9 |
| 20260505223829 | 80 | 200 | 0.0 | 8.7 | 0.00 | 0.00 | 0.00 | 35 | 1005.9 |
| 20260505223715 | 80 | 178 | 0.0 | 8.7 | 0.00 | 0.00 | 0.00 | 35 | 1005.9 |
| 20260505223602 | 80 | 208 | 0.0 | 8.7 | 0.00 | 0.00 | 0.00 | 35 | 1005.9 |
| 20260505223520 | 80 | 232 | 0.0 | 8.7 | 0.00 | 0.00 | 0.00 | 35 | 1005.7 |
| 20260505223500 | 80 | 212 | 0.0 | 8.7 | 0.00 | 0.00 | 0.00 | 35 | 1005.8 |
| 20260505223400 | 80 | 197 | 0.0 | 8.7 | 0.00 | 0.00 | 0.00 | 35 | 1005.8 |
| 20260505223259 | 80 | 167 | 0.0 | 8.7 | 0.00 | 0.00 | 0.00 | 35 | 1005.8 |
| 20260505223159 | 80 | 221 | 0.0 | 8.7 | 0.00 | 0.00 | 0.00 | 35 | 1005.9 |
| 20260505223100 | 80 | 206 | 0.0 | 8.7 | 0.00 | 0.00 | 0.00 | 35 | 1005.8 |
| 20260505223021 | 80 | 204 | 0.0 | 10.4 | 0.00 | 0.00 | 0.00 | 35 | 1005.7 |
| 20260505223010 | 80 | 214 | 0.9 | 13.0 | 0.00 | 0.00 | 0.00 | 35 | 1005.8 |
| 20260505223005 | 80 | 220 | 0.0 | 10.4 | 0.00 | 0.00 | 0.00 | 35 | 1005.8 |
| 20260505222756 | 80 | 252 | 0.9 | 13.0 | 0.00 | 0.00 | 0.00 | 35 | 1005.8 |
| 20260505222654 | 80 | 229 | 0.9 | 13.0 | 0.00 | 0.00 | 0.00 | 34 | 1005.8 |
| 20260505222601 | 80 | 223 | 0.9 | 13.0 | 0.00 | 0.00 | 0.00 | 34 | 1005.8 |
| 20260505222555 | 80 | 199 | 0.9 | 13.0 | 0.00 | 0.00 | 0.00 | 34 | 1005.8 |
| 20260505222535 | 81 | 200 | 0.0 | 13.0 | 0.00 | 0.00 | 0.00 | 34 | 1005.7 |
| 20260505222516 | 80 | 215 | 0.9 | 13.0 | 0.00 | 0.00 | 0.00 | 34 | 1005.8 |
| 20260505222403 | 80 | 211 | 0.9 | 13.0 | 0.00 | 0.00 | 0.00 | 34 | 1005.8 |
| 20260505222152 | 81 | 186 | 0.9 | 13.0 | 0.00 | 0.00 | 0.00 | 34 | 1005.9 |
| 20260505222111 | 81 | 238 | 0.9 | 13.0 | 0.00 | 0.00 | 0.00 | 35 | 1005.8 |
| 20260505222106 | 81 | 212 | 0.9 | 13.0 | 0.00 | 0.00 | 0.00 | 34 | 1005.8 |
| 20260505222100 | 81 | 204 | 0.9 | 13.0 | 0.00 | 0.00 | 0.00 | 34 | 1005.8 |
| 20260505222020 | 81 | 236 | 0.9 | 13.0 | 0.00 | 0.00 | 0.00 | 35 | 1005.7 |
| 20260505221851 | 81 | 196 | 0.9 | 13.0 | 0.00 | 0.00 | 0.00 | 34 | 1005.8 |
| 20260505221750 | 81 | 185 | 0.9 | 13.0 | 0.00 | 0.00 | 0.00 | 34 | 1005.7 |
| 20260505221649 | 81 | 238 | 0.9 | 13.0 | 0.00 | 0.00 | 0.00 | 34 | 1005.8 |
| 20260505221557 | 81 | 195 | 0.9 | 13.0 | 0.00 | 0.00 | 0.00 | 35 | 1005.8 |
| 20260505221549 | 81 | 209 | 0.9 | 13.0 | 0.00 | 0.00 | 0.00 | 35 | 1005.8 |
| 20260505221520 | 81 | 236 | 0.0 | 9.6 | 0.00 | 0.00 | 0.00 | 35 | 1005.7 |
| 20260505221500 | 81 | 197 | 0.9 | 13.0 | 0.00 | 0.00 | 0.00 | 34 | 1005.7 |
| 20260505221456 | 81 | 163 | 0.9 | 13.0 | 0.00 | 0.00 | 0.00 | 35 | 1005.8 |
| 20260505221246 | 81 | 175 | 0.9 | 13.0 | 0.00 | 0.00 | 0.00 | 34 | 1005.7 |
| 20260505221146 | 81 | 247 | 0.9 | 13.0 | 0.00 | 0.00 | 0.00 | 34 | 1005.7 |
| 20260505221056 | 81 | 184 | 0.9 | 8.7 | 0.00 | 0.00 | 0.00 | 34 | 1005.7 |
| 20260505221045 | 81 | 190 | 0.9 | 8.7 | 0.00 | 0.00 | 0.00 | 34 | 1005.7 |
| 20260505221020 | 81 | 153 | 8.7 | 8.7 | 0.00 | 0.00 | 0.00 | 34 | 1005.6 |
| 20260505220945 | 81 | 219 | 0.9 | 7.8 | 0.00 | 0.00 | 0.00 | 34 | 1005.7 |
| 20260505220912 | 81 | 239 | 0.9 | 8.7 | 0.00 | 0.00 | 0.00 | 35 | 1005.7 |
| 20260505220908 | 81 | 183 | 0.9 | 8.7 | 0.00 | 0.00 | 0.00 | 34 | 1005.7 |
| 20260505220903 | 81 | 192 | 0.9 | 7.8 | 0.00 | 0.00 | 0.00 | 34 | 1005.8 |
| 20260505220603 | 81 | 207 | 1.7 | 18.2 | 0.00 | 0.00 | 0.00 | 34 | 1005.7 |
| 20260505220558 | 81 | 180 | 0.9 | 18.2 | 0.00 | 0.00 | 0.00 | 34 | 1005.7 |
| 20260505220553 | 81 | 165 | 0.9 | 18.2 | 0.00 | 0.00 | 0.00 | 34 | 1005.7 |
| 20260505220520 | 81 | 195 | 0.0 | 18.2 | 0.00 | 0.00 | 0.00 | 34 | 1005.6 |
| 20260505220343 | 81 | 174 | 1.7 | 18.2 | 0.00 | 0.00 | 0.00 | 34 | 1005.7 |
| 20260505220243 | 81 | 229 | 1.7 | 19.1 | 0.00 | 0.00 | 0.00 | 34 | 1005.7 |
| 20260505220202 | 80 | 201 | 2.6 | 19.1 | 0.00 | 0.00 | 0.00 | 34 | 1005.7 |
| 20260505220156 | 80 | 265 | 2.6 | 19.1 | 0.00 | 0.00 | 0.00 | 34 | 1005.7 |
| 20260505220148 | 80 | 216 | 2.6 | 19.1 | 0.00 | 0.00 | 0.00 | 34 | 1005.7 |
| 20260505220020 | 80 | 173 | 0.9 | 19.1 | 0.00 | 0.00 | 0.00 | 34 | 1005.6 |
| 20260505215940 | 80 | 213 | 2.6 | 19.1 | 0.00 | 0.00 | 0.00 | 34 | 1005.7 |
| 20260505215840 | 80 | 205 | 2.6 | 19.1 | 0.00 | 0.00 | 0.00 | 34 | 1005.7 |
| 20260505215739 | 80 | 196 | 2.6 | 19.1 | 0.00 | 0.00 | 0.00 | 33 | 1005.6 |
| 20260505215658 | 81 | 163 | 1.7 | 19.1 | 0.00 | 0.00 | 0.00 | 33 | 1005.7 |
| 20260505215653 | 80 | 192 | 2.6 | 19.1 | 0.00 | 0.00 | 0.00 | 33 | 1005.6 |
| 20260505215645 | 81 | 170 | 1.7 | 19.1 | 0.00 | 0.00 | 0.00 | 33 | 1005.7 |
| 20260505215520 | 81 | 210 | 0.9 | 19.1 | 0.00 | 0.00 | 0.00 | 33 | 1005.6 |
| 20260505215437 | 81 | 178 | 1.7 | 19.1 | 0.00 | 0.00 | 0.00 | 33 | 1005.7 |
| 20260505215337 | 81 | 196 | 1.7 | 19.1 | 0.00 | 0.00 | 0.00 | 33 | 1005.7 |
| 20260505215237 | 81 | 159 | 0.9 | 14.8 | 0.00 | 0.00 | 0.00 | 34 | 1005.7 |
| 20260505215137 | 81 | 188 | 0.9 | 14.8 | 0.00 | 0.00 | 0.00 | 33 | 1005.5 |
| 20260505215053 | 81 | 248 | 1.7 | 13.0 | 0.00 | 0.00 | 0.00 | 34 | 1005.7 |
| 20260505215037 | 81 | 223 | 1.7 | 13.0 | 0.00 | 0.00 | 0.00 | 34 | 1005.7 |
| 20260505215020 | 81 | 196 | 0.0 | 13.0 | 0.00 | 0.00 | 0.00 | 35 | 1005.6 |
| 20260505214936 | 81 | 193 | 1.7 | 13.0 | 0.00 | 0.00 | 0.00 | 34 | 1005.7 |
| 20260505214833 | 81 | 168 | 2.6 | 13.0 | 0.00 | 0.00 | 0.00 | 34 | 1005.7 |
| 20260505214733 | 81 | 237 | 2.6 | 13.0 | 0.00 | 0.00 | 0.00 | 34 | 1005.8 |
| 20260505214652 | 81 | 193 | 2.6 | 13.0 | 0.00 | 0.00 | 0.00 | 34 | 1005.7 |
| 20260505214647 | 81 | 202 | 2.6 | 13.0 | 0.00 | 0.00 | 0.00 | 34 | 1005.7 |
| 20260505214639 | 81 | 198 | 2.6 | 13.0 | 0.00 | 0.00 | 0.00 | 34 | 1005.7 |
| 20260505214521 | 81 | 244 | 3.5 | 13.0 | 0.00 | 0.00 | 0.00 | 34 | 1005.6 |
| 20260505214430 | 81 | 222 | 2.6 | 13.0 | 0.00 | 0.00 | 0.00 | 34 | 1005.7 |
| 20260505214330 | 81 | 211 | 2.6 | 13.0 | 0.00 | 0.00 | 0.00 | 34 | 1005.7 |
| 20260505214315 | 81 | 205 | 1.7 | 13.0 | 0.00 | 0.00 | 0.00 | 33 | 1005.6 |
| 20260505214230 | 81 | 261 | 2.6 | 13.0 | 0.00 | 0.00 | 0.00 | 33 | 1005.6 |
| 20260505214200 | 81 | 205 | 2.6 | 13.0 | 0.00 | 0.00 | 0.00 | 33 | 1005.7 |
| 20260505214028 | 81 | 202 | 1.7 | 13.0 | 0.00 | 0.00 | 0.00 | 33 | 1005.6 |
| 20260505214020 | 81 | 157 | 9.6 | 13.0 | 0.00 | 0.00 | 0.00 | 34 | 1005.6 |
| 20260505213929 | 81 | 185 | 1.7 | 11.3 | 0.00 | 0.00 | 0.00 | 34 | 1005.7 |
| 20260505213827 | 81 | 241 | 1.7 | 11.3 | 0.00 | 0.00 | 0.00 | 34 | 1005.6 |
| 20260505213727 | 81 | 183 | 1.7 | 15.6 | 0.00 | 0.00 | 0.00 | 35 | 1005.6 |
| 20260505213627 | 81 | 207 | 1.7 | 15.6 | 0.00 | 0.00 | 0.00 | 34 | 1005.6 |
| 20260505213550 | 81 | 183 | 1.7 | 15.6 | 0.00 | 0.00 | 0.00 | 34 | 1005.5 |
| 20260505213527 | 81 | 191 | 1.7 | 15.6 | 0.00 | 0.00 | 0.00 | 34 | 1005.5 |
| 20260505213521 | 81 | 173 | 7.8 | 15.6 | 0.00 | 0.00 | 0.00 | 34 | 1005.4 |
| 20260505213427 | 81 | 195 | 1.7 | 15.6 | 0.00 | 0.00 | 0.00 | 33 | 1005.5 |
| 20260505213327 | 81 | 160 | 1.7 | 15.6 | 0.00 | 0.00 | 0.00 | 34 | 1005.6 |
| 20260505213320 | 81 | 209 | 2.6 | 15.6 | 0.00 | 0.00 | 0.00 | 33 | 1005.5 |
| 20260505213226 | 81 | 211 | 2.6 | 15.6 | 0.00 | 0.00 | 0.00 | 34 | 1005.6 |
| 20260505213158 | 81 | 196 | 1.7 | 15.6 | 0.00 | 0.00 | 0.00 | 34 | 1005.5 |
| 20260505213025 | 81 | 196 | 2.6 | 15.6 | 0.00 | 0.00 | 0.00 | 33 | 1005.5 |
| 20260505213020 | 81 | 221 | 0.0 | 15.6 | 0.00 | 0.00 | 0.00 | 33 | 1005.4 |
| 20260505212924 | 81 | 213 | 2.6 | 20.9 | 0.00 | 0.00 | 0.00 | 33 | 1005.5 |
| 20260505212824 | 81 | 175 | 2.6 | 20.9 | 0.00 | 0.00 | 0.00 | 33 | 1005.5 |
| 20260505212722 | 81 | 194 | 2.6 | 20.9 | 0.00 | 0.00 | 0.00 | 33 | 1005.5 |
| 20260505212622 | 81 | 181 | 2.6 | 20.9 | 0.00 | 0.00 | 0.00 | 33 | 1005.5 |
| 20260505212551 | 81 | 162 | 2.6 | 20.9 | 0.00 | 0.00 | 0.00 | 33 | 1005.5 |
| 20260505212522 | 81 | 177 | 2.6 | 20.9 | 0.00 | 0.00 | 0.00 | 33 | 1005.5 |
| 20260505212520 | 81 | 165 | 3.5 | 20.9 | 0.00 | 0.00 | 0.00 | 33 | 1005.4 |
| 20260505212421 | 81 | 192 | 2.6 | 20.9 | 0.00 | 0.00 | 0.00 | 33 | 1005.5 |
| 20260505212321 | 81 | 195 | 1.7 | 20.9 | 0.00 | 0.00 | 0.00 | 33 | 1005.5 |
| 20260505212220 | 81 | 217 | 2.6 | 20.9 | 0.00 | 0.00 | 0.00 | 33 | 1005.6 |
| 20260505212119 | 81 | 229 | 2.6 | 20.9 | 0.00 | 0.00 | 0.00 | 33 | 1005.6 |
| 20260505212050 | 81 | 220 | 2.6 | 20.9 | 0.00 | 0.00 | 0.00 | 33 | 1005.6 |
| 20260505212032 | 81 | 186 | 1.7 | 17.4 | 0.00 | 0.00 | 0.00 | 32 | 1005.6 |
| 20260505212027 | 81 | 213 | 2.6 | 20.9 | 0.00 | 0.00 | 0.00 | 32 | 1005.6 |
| 20260505212020 | 81 | 185 | 2.6 | 20.9 | 0.00 | 0.00 | 0.00 | 32 | 1005.5 |
| 20260505211816 | 82 | 219 | 1.7 | 14.8 | 0.00 | 0.00 | 0.00 | 33 | 1005.6 |
| 20260505211717 | 82 | 228 | 0.9 | 14.8 | 0.00 | 0.00 | 0.00 | 33 | 1005.6 |
| 20260505211710 | 81 | 211 | 1.7 | 14.8 | 0.00 | 0.00 | 0.00 | 33 | 1005.5 |
| 20260505211704 | 82 | 193 | 1.7 | 14.8 | 0.00 | 0.00 | 0.00 | 33 | 1005.6 |
| 20260505211553 | 81 | 198 | 1.7 | 14.8 | 0.00 | 0.00 | 0.00 | 33 | 1005.5 |
| 20260505211546 | 82 | 171 | 0.9 | 13.0 | 0.00 | 0.00 | 0.00 | 33 | 1005.6 |
| 20260505211541 | 81 | 240 | 1.7 | 14.8 | 0.00 | 0.00 | 0.00 | 32 | 1005.5 |
| 20260505211520 | 81 | 207 | 0.0 | 13.9 | 0.00 | 0.00 | 0.00 | 32 | 1005.4 |
| 20260505211111 | 81 | 190 | 1.7 | 9.6 | 0.00 | 0.00 | 0.00 | 32 | 1005.5 |
| 20260505211048 | 82 | 215 | 1.7 | 9.6 | 0.00 | 0.00 | 0.00 | 32 | 1005.6 |
| 20260505211020 | 81 | 179 | 0.0 | 18.2 | 0.00 | 0.00 | 0.00 | 32 | 1005.4 |
| 20260505211011 | 81 | 179 | 0.9 | 18.2 | 0.00 | 0.00 | 0.00 | 32 | 1005.5 |
| 20260505210925 | 81 | 198 | 1.7 | 18.2 | 0.00 | 0.00 | 0.00 | 33 | 1005.6 |
| 20260505210920 | 81 | 236 | 0.9 | 18.2 | 0.00 | 0.00 | 0.00 | 32 | 1005.6 |
| 20260505210710 | 81 | 194 | 1.7 | 18.2 | 0.00 | 0.00 | 0.00 | 32 | 1005.6 |
| 20260505210610 | 82 | 203 | 1.7 | 18.2 | 0.00 | 0.00 | 0.00 | 31 | 1005.7 |
| 20260505210547 | 82 | 242 | 1.7 | 18.2 | 0.00 | 0.00 | 0.00 | 31 | 1005.7 |
| 20260505210520 | 82 | 219 | 0.9 | 18.2 | 0.00 | 0.00 | 0.00 | 32 | 1005.5 |
| 20260505210509 | 82 | 229 | 1.7 | 18.2 | 0.00 | 0.00 | 0.00 | 32 | 1005.6 |
| 20260505210408 | 82 | 193 | 1.7 | 18.2 | 0.00 | 0.00 | 0.00 | 31 | 1005.8 |
| 20260505210307 | 82 | 213 | 1.7 | 18.2 | 0.00 | 0.00 | 0.00 | 31 | 1005.8 |
| 20260505210207 | 82 | 217 | 1.7 | 18.2 | 0.00 | 0.00 | 0.00 | 31 | 1005.7 |
| 20260505210106 | 82 | 197 | 1.7 | 18.2 | 0.00 | 0.00 | 0.00 | 31 | 1005.7 |
| 20260505210047 | 82 | 196 | 1.7 | 18.2 | 0.00 | 0.00 | 0.00 | 31 | 1005.7 |
| 20260505210020 | 82 | 235 | 0.0 | 14.8 | 0.00 | 0.00 | 0.00 | 31 | 1005.6 |
| 20260505210005 | 82 | 234 | 1.7 | 15.6 | 0.00 | 0.00 | 0.00 | 31 | 1005.7 |
| 20260505205903 | 82 | 221 | 1.7 | 15.6 | 0.00 | 0.00 | 0.00 | 32 | 1005.7 |
| 20260505205803 | 82 | 235 | 1.7 | 15.6 | 0.00 | 0.00 | 0.00 | 31 | 1005.7 |
| 20260505205727 | 82 | 189 | 1.7 | 15.6 | 0.00 | 0.00 | 0.00 | 31 | 1005.8 |
| 20260505205614 | 82 | 175 | 2.6 | 20.9 | 0.00 | 0.00 | 0.00 | 31 | 1005.8 |
| 20260505205607 | 82 | 223 | 2.6 | 20.9 | 0.00 | 0.00 | 0.00 | 31 | 1005.8 |
| 20260505205559 | 82 | 188 | 1.7 | 20.9 | 0.00 | 0.00 | 0.00 | 31 | 1005.8 |
| 20260505205520 | 82 | 197 | 0.0 | 20.9 | 0.00 | 0.00 | 0.00 | 31 | 1005.6 |
| 20260505205446 | 82 | 252 | 1.7 | 20.9 | 0.00 | 0.00 | 0.00 | 32 | 1005.8 |
| 20260505205334 | 81 | 194 | 1.7 | 20.9 | 0.00 | 0.00 | 0.00 | 31 | 1005.6 |
| 20260505205330 | 81 | 192 | 2.6 | 20.9 | 0.00 | 0.00 | 0.00 | 31 | 1005.6 |
| 20260505205324 | 81 | 211 | 1.7 | 20.9 | 0.00 | 0.00 | 0.00 | 31 | 1005.6 |
| 20260505205315 | 81 | 234 | 1.7 | 20.9 | 0.00 | 0.00 | 0.00 | 31 | 1005.6 |
| 20260505205051 | 81 | 220 | 1.7 | 20.9 | 0.00 | 0.00 | 0.00 | 31 | 1005.6 |
| 20260505205020 | 81 | 212 | 0.0 | 20.9 | 0.00 | 0.00 | 0.00 | 31 | 1005.5 |
| 20260505204610 | 82 | 174 | 1.7 | 17.4 | 0.00 | 0.00 | 0.00 | 31 | 1005.7 |
| 20260505204603 | 82 | 185 | 1.7 | 17.4 | 0.00 | 0.00 | 0.00 | 31 | 1005.7 |
| 20260505204520 | 82 | 215 | 2.6 | 17.4 | 0.00 | 0.00 | 0.00 | 32 | 1005.5 |
| 20260505204355 | 82 | 232 | 1.7 | 17.4 | 0.00 | 0.00 | 0.00 | 31 | 1005.7 |
| 20260505204254 | 82 | 180 | 2.6 | 17.4 | 0.00 | 0.00 | 0.00 | 31 | 1005.7 |
| 20260505204209 | 82 | 232 | 2.6 | 18.2 | 0.00 | 0.00 | 0.00 | 31 | 1005.7 |
| 20260505204204 | 82 | 222 | 2.6 | 18.2 | 0.00 | 0.00 | 0.00 | 31 | 1005.7 |
| 20260505204048 | 82 | 194 | 2.6 | 18.2 | 0.00 | 0.00 | 0.00 | 31 | 1005.7 |
| 20260505204020 | 82 | 228 | 0.0 | 17.4 | 0.00 | 0.00 | 0.00 | 31 | 1005.6 |
| 20260505203952 | 82 | 198 | 2.6 | 18.2 | 0.00 | 0.00 | 0.00 | 31 | 1005.8 |
| 20260505203851 | 82 | 184 | 2.6 | 18.2 | 0.00 | 0.00 | 0.00 | 31 | 1005.8 |
| 20260505203749 | 82 | 255 | 3.5 | 18.2 | 0.00 | 0.00 | 0.00 | 30 | 1005.8 |
| 20260505203649 | 82 | 213 | 2.6 | 21.7 | 0.00 | 0.00 | 0.00 | 31 | 1005.8 |
| 20260505203553 | 82 | 219 | 2.6 | 21.7 | 0.00 | 0.00 | 0.00 | 30 | 1005.7 |
| 20260505203546 | 82 | 240 | 2.6 | 21.7 | 0.00 | 0.00 | 0.00 | 30 | 1005.7 |
| 20260505203520 | 82 | 167 | 0.0 | 21.7 | 0.00 | 0.00 | 0.00 | 31 | 1005.6 |
| 20260505203510 | 82 | 250 | 2.6 | 21.7 | 0.00 | 0.00 | 0.00 | 31 | 1005.8 |
| 20260505203357 | 82 | 238 | 2.6 | 21.7 | 0.00 | 0.00 | 0.00 | 31 | 1005.7 |
| 20260505203229 | 82 | 200 | 1.7 | 21.7 | 0.00 | 0.00 | 0.00 | 31 | 1005.7 |
| 20260505203223 | 82 | 192 | 1.7 | 21.7 | 0.00 | 0.00 | 0.00 | 31 | 1005.7 |
| 20260505203213 | 82 | 230 | 1.7 | 21.7 | 0.00 | 0.00 | 0.00 | 31 | 1005.7 |
| 20260505203020 | 82 | 165 | 0.0 | 21.7 | 0.00 | 0.00 | 0.00 | 30 | 1005.5 |
| 20260505202955 | 82 | 202 | 1.7 | 21.7 | 0.00 | 0.00 | 0.00 | 30 | 1005.7 |
| 20260505202745 | 82 | 169 | 0.9 | 21.7 | 0.00 | 0.00 | 0.00 | 30 | 1005.7 |
| 20260505202646 | 82 | 207 | 0.9 | 11.3 | 0.00 | 0.00 | 0.00 | 31 | 1005.9 |
| 20260505202545 | 82 | 152 | 0.9 | 11.3 | 0.00 | 0.00 | 0.00 | 30 | 1005.7 |
| 20260505202520 | 82 | 258 | 0.0 | 11.3 | 0.00 | 0.00 | 0.00 | 30 | 1005.6 |
| 20260505202445 | 82 | 211 | 0.9 | 11.3 | 0.00 | 0.00 | 0.00 | 30 | 1005.8 |
| 20260505202343 | 82 | 246 | 0.9 | 11.3 | 0.00 | 0.00 | 0.00 | 30 | 1005.7 |
| 20260505202243 | 82 | 194 | 0.9 | 11.3 | 0.00 | 0.00 | 0.00 | 30 | 1005.8 |
| 20260505202141 | 82 | 165 | 1.7 | 12.2 | 0.00 | 0.00 | 0.00 | 31 | 1005.8 |
| 20260505202047 | 82 | 191 | 1.7 | 19.1 | 0.00 | 0.00 | 0.00 | 31 | 1005.8 |
| 20260505202040 | 82 | 182 | 1.7 | 19.1 | 0.00 | 0.00 | 0.00 | 31 | 1005.8 |
| 20260505202020 | 82 | 179 | 0.0 | 19.1 | 0.00 | 0.00 | 0.00 | 31 | 1005.5 |
| 20260505201940 | 82 | 219 | 1.7 | 19.1 | 0.00 | 0.00 | 0.00 | 31 | 1005.7 |
| 20260505201840 | 82 | 210 | 1.7 | 19.1 | 0.00 | 0.00 | 0.00 | 31 | 1005.7 |
| 20260505201738 | 82 | 178 | 1.7 | 19.1 | 0.00 | 0.00 | 0.00 | 31 | 1005.7 |
| 20260505201638 | 82 | 288 | 2.6 | 19.1 | 0.00 | 0.00 | 0.00 | 31 | 1005.7 |
| 20260505201545 | 82 | 175 | 2.6 | 19.1 | 0.00 | 0.00 | 0.00 | 31 | 1005.8 |
| 20260505201538 | 82 | 182 | 2.6 | 19.1 | 0.00 | 0.00 | 0.00 | 31 | 1005.8 |
| 20260505201520 | 82 | 176 | 0.0 | 19.1 | 0.00 | 0.00 | 0.00 | 31 | 1005.5 |
| 20260505201437 | 82 | 231 | 2.6 | 19.1 | 0.00 | 0.00 | 0.00 | 30 | 1005.7 |
| 20260505201337 | 82 | 236 | 2.6 | 19.1 | 0.00 | 0.00 | 0.00 | 31 | 1005.8 |
| 20260505201316 | 82 | 199 | 2.6 | 19.1 | 0.00 | 0.00 | 0.00 | 31 | 1005.8 |
| 20260505201235 | 82 | 167 | 2.6 | 19.1 | 0.00 | 0.00 | 0.00 | 31 | 1005.7 |
| 20260505201203 | 82 | 199 | 2.6 | 19.1 | 0.00 | 0.00 | 0.00 | 31 | 1005.8 |
| 20260505201158 | 82 | 180 | 1.7 | 19.1 | 0.00 | 0.00 | 0.00 | 30 | 1005.8 |
| 20260505201043 | 82 | 174 | 2.6 | 19.1 | 0.00 | 0.00 | 0.00 | 31 | 1005.8 |
| 20260505201020 | 82 | 207 | 0.0 | 18.2 | 0.00 | 0.00 | 0.00 | 31 | 1005.6 |
| 20260505200833 | 82 | 200 | 2.6 | 19.1 | 0.00 | 0.00 | 0.00 | 31 | 1005.8 |
| 20260505200733 | 82 | 184 | 2.6 | 19.1 | 0.00 | 0.00 | 0.00 | 30 | 1005.8 |
| 20260505200632 | 82 | 190 | 2.6 | 19.1 | 0.00 | 0.00 | 0.00 | 30 | 1005.8 |
| 20260505200545 | 82 | 188 | 2.6 | 16.5 | 0.00 | 0.00 | 0.00 | 30 | 1005.8 |
| 20260505200532 | 82 | 196 | 2.6 | 16.5 | 0.00 | 0.00 | 0.00 | 31 | 1005.8 |
| 20260505200520 | 82 | 209 | 0.0 | 13.9 | 0.00 | 0.00 | 0.00 | 31 | 1005.6 |
| 20260505200431 | 82 | 210 | 2.6 | 16.5 | 0.00 | 0.00 | 0.00 | 30 | 1005.8 |
| 20260505200349 | 82 | 194 | 2.6 | 16.5 | 0.00 | 0.00 | 0.00 | 31 | 1005.9 |
| 20260505200345 | 82 | 179 | 2.6 | 15.6 | 0.00 | 0.00 | 0.00 | 30 | 1005.9 |
| 20260505200340 | 82 | 186 | 2.6 | 16.5 | 0.00 | 0.00 | 0.00 | 30 | 1005.8 |
| 20260505200153 | 82 | 202 | 2.6 | 16.5 | 0.00 | 0.00 | 0.00 | 30 | 1005.8 |
| 20260505200030 | 82 | 164 | 2.6 | 15.6 | 0.00 | 0.00 | 0.00 | 30 | 1005.9 |
| 20260505200020 | 82 | 148 | 7.8 | 13.0 | 0.00 | 0.00 | 0.00 | 31 | 1005.7 |
| 20260505195928 | 82 | 218 | 2.6 | 13.9 | 0.00 | 0.00 | 0.00 | 30 | 1005.9 |
| 20260505195842 | 82 | 252 | 2.6 | 13.9 | 0.00 | 0.00 | 0.00 | 30 | 1005.9 |
| 20260505195837 | 82 | 191 | 2.6 | 13.9 | 0.00 | 0.00 | 0.00 | 30 | 1005.9 |
| 20260505195627 | 82 | 171 | 2.6 | 13.9 | 0.00 | 0.00 | 0.00 | 30 | 1005.9 |
| 20260505195544 | 82 | 208 | 2.6 | 13.9 | 0.00 | 0.00 | 0.00 | 31 | 1005.9 |
| 20260505195525 | 82 | 169 | 2.6 | 19.1 | 0.00 | 0.00 | 0.00 | 31 | 1005.9 |
| 20260505195520 | 82 | 259 | 0.0 | 19.1 | 0.00 | 0.00 | 0.00 | 30 | 1005.7 |
| 20260505195424 | 82 | 141 | 2.6 | 19.1 | 0.00 | 0.00 | 0.00 | 31 | 1005.9 |
| 20260505195325 | 82 | 163 | 2.6 | 19.1 | 0.00 | 0.00 | 0.00 | 31 | 1006.0 |
| 20260505195224 | 82 | 213 | 2.6 | 19.1 | 0.00 | 0.00 | 0.00 | 32 | 1006.0 |
| 20260505195123 | 82 | 238 | 2.6 | 19.1 | 0.00 | 0.00 | 0.00 | 30 | 1006.0 |
| 20260505195044 | 82 | 180 | 1.7 | 19.1 | 0.00 | 0.00 | 0.00 | 31 | 1006.0 |
| 20260505195030 | 82 | 196 | 1.7 | 19.1 | 0.00 | 0.00 | 0.00 | 31 | 1006.0 |
| 20260505195021 | 82 | 173 | 1.7 | 19.1 | 0.00 | 0.00 | 0.00 | 31 | 1006.1 |
| 20260505194910 | 82 | 187 | 2.6 | 16.5 | 0.00 | 0.00 | 0.00 | 30 | 1006.0 |
| 20260505194904 | 82 | 143 | 1.7 | 19.1 | 0.00 | 0.00 | 0.00 | 31 | 1006.0 |
| 20260505194750 | 82 | 179 | 1.7 | 19.1 | 0.00 | 0.00 | 0.00 | 30 | 1005.9 |
| 20260505194633 | 82 | 169 | 2.6 | 19.1 | 0.00 | 0.00 | 0.00 | 30 | 1006.0 |
| 20260505194550 | 82 | 218 | 0.9 | 16.5 | 0.00 | 0.00 | 0.00 | 30 | 1005.8 |
| 20260505194317 | 82 | 182 | 2.6 | 16.5 | 0.00 | 0.00 | 0.00 | 31 | 1005.9 |
| 20260505194215 | 82 | 202 | 2.6 | 16.5 | 0.00 | 0.00 | 0.00 | 31 | 1006.0 |
| 20260505194115 | 82 | 197 | 2.6 | 16.5 | 0.00 | 0.00 | 0.00 | 32 | 1006.0 |
| 20260505194044 | 82 | 213 | 2.6 | 16.5 | 0.00 | 0.00 | 0.00 | 31 | 1005.9 |
| 20260505194020 | 82 | 176 | 0.0 | 16.5 | 0.00 | 0.00 | 0.00 | 31 | 1005.8 |
| 20260505194015 | 82 | 176 | 2.6 | 16.5 | 0.00 | 0.00 | 0.00 | 31 | 1005.9 |
| 20260505193929 | 82 | 198 | 2.6 | 16.5 | 0.00 | 0.00 | 0.00 | 30 | 1006.0 |
| 20260505193924 | 82 | 232 | 2.6 | 16.5 | 0.00 | 0.00 | 0.00 | 31 | 1006.0 |
| 20260505193714 | 82 | 196 | 3.5 | 18.2 | 0.00 | 0.00 | 0.00 | 30 | 1006.0 |
| 20260505193633 | 82 | 209 | 1.7 | 18.2 | 0.00 | 0.00 | 0.00 | 30 | 1006.0 |
| 20260505193628 | 82 | 207 | 2.6 | 18.2 | 0.00 | 0.00 | 0.00 | 30 | 1006.1 |
| 20260505193620 | 82 | 178 | 1.7 | 18.2 | 0.00 | 0.00 | 0.00 | 30 | 1006.1 |
| 20260505193520 | 82 | 236 | 0.9 | 18.2 | 0.00 | 0.00 | 0.00 | 30 | 1005.8 |
| 20260505193413 | 82 | 180 | 1.7 | 20.9 | 0.00 | 0.00 | 0.00 | 30 | 1006.0 |
| 20260505193313 | 82 | 252 | 1.7 | 20.9 | 0.00 | 0.00 | 0.00 | 30 | 1006.1 |
| 20260505193212 | 82 | 212 | 1.7 | 20.9 | 0.00 | 0.00 | 0.00 | 31 | 1006.0 |
| 20260505193111 | 82 | 232 | 1.7 | 20.9 | 0.00 | 0.00 | 0.00 | 32 | 1006.1 |
| 20260505193041 | 82 | 216 | 1.7 | 20.9 | 0.00 | 0.00 | 0.00 | 32 | 1006.1 |
| 20260505193020 | 82 | 247 | 0.0 | 20.9 | 0.00 | 0.00 | 0.00 | 30 | 1005.8 |
| 20260505193010 | 82 | 240 | 2.6 | 20.9 | 0.00 | 0.00 | 0.00 | 30 | 1006.0 |
| 20260505192908 | 82 | 192 | 2.6 | 20.9 | 0.00 | 0.00 | 0.00 | 31 | 1006.1 |
| 20260505192809 | 82 | 222 | 2.6 | 20.9 | 0.00 | 0.00 | 0.00 | 30 | 1006.1 |
| 20260505192707 | 82 | 198 | 2.6 | 20.9 | 0.00 | 0.00 | 0.00 | 31 | 1006.1 |
| 20260505192636 | 82 | 205 | 3.5 | 20.9 | 0.00 | 0.00 | 0.00 | 31 | 1006.1 |
| 20260505192628 | 82 | 177 | 3.5 | 20.9 | 0.00 | 0.00 | 0.00 | 31 | 1006.1 |
| 20260505192520 | 82 | 232 | 0.9 | 20.9 | 0.00 | 0.00 | 0.00 | 31 | 1005.9 |
| 20260505192517 | 82 | 193 | 3.5 | 20.9 | 0.00 | 0.00 | 0.00 | 31 | 1006.1 |
| 20260505192325 | 82 | 180 | 3.5 | 18.2 | 0.00 | 0.00 | 0.00 | 31 | 1006.1 |
| 20260505192321 | 82 | 252 | 3.5 | 18.2 | 0.00 | 0.00 | 0.00 | 32 | 1006.2 |
| 20260505192316 | 82 | 192 | 3.5 | 18.2 | 0.00 | 0.00 | 0.00 | 32 | 1006.2 |
| 20260505192147 | 82 | 186 | 3.5 | 18.2 | 0.00 | 0.00 | 0.00 | 31 | 1006.1 |
| 20260505192020 | 82 | 211 | 0.0 | 16.5 | 0.00 | 0.00 | 0.00 | 31 | 1005.9 |
| 20260505192005 | 82 | 227 | 2.6 | 18.2 | 0.00 | 0.00 | 0.00 | 31 | 1006.1 |
| 20260505191906 | 82 | 223 | 2.6 | 15.6 | 0.00 | 0.00 | 0.00 | 31 | 1006.2 |
| 20260505191805 | 82 | 165 | 1.7 | 15.6 | 0.00 | 0.00 | 0.00 | 32 | 1006.1 |
| 20260505191717 | 82 | 215 | 1.7 | 18.2 | 0.00 | 0.00 | 0.00 | 31 | 1006.1 |
| 20260505191713 | 82 | 168 | 1.7 | 15.6 | 0.00 | 0.00 | 0.00 | 31 | 1006.1 |
| 20260505191538 | 83 | 157 | 1.7 | 18.2 | 0.00 | 0.00 | 0.00 | 31 | 1006.1 |
| 20260505191520 | 83 | 175 | 0.9 | 17.4 | 0.00 | 0.00 | 0.00 | 31 | 1006.0 |
| 20260505191516 | 83 | 182 | 1.7 | 18.2 | 0.00 | 0.00 | 0.00 | 32 | 1006.2 |
| 20260505191512 | 83 | 150 | 1.7 | 18.2 | 0.00 | 0.00 | 0.00 | 33 | 1006.2 |
| 20260505191301 | 83 | 240 | 1.7 | 18.2 | 0.00 | 0.00 | 0.00 | 33 | 1006.2 |
| 20260505191202 | 82 | 186 | 1.7 | 18.2 | 0.00 | 0.00 | 0.00 | 32 | 1006.2 |
| 20260505191101 | 82 | 240 | 1.7 | 18.2 | 0.00 | 0.00 | 0.00 | 32 | 1006.2 |
| 20260505191038 | 82 | 200 | 1.7 | 18.2 | 0.00 | 0.00 | 0.00 | 33 | 1006.2 |
| 20260505191020 | 82 | 172 | 1.7 | 17.4 | 0.00 | 0.00 | 0.00 | 33 | 1006.0 |
| 20260505191000 | 82 | 189 | 1.7 | 18.2 | 0.00 | 0.00 | 0.00 | 33 | 1006.2 |
| 20260505190859 | 82 | 234 | 2.6 | 18.2 | 0.00 | 0.00 | 0.00 | 33 | 1006.3 |
| 20260505190811 | 82 | 189 | 3.5 | 18.2 | 0.00 | 0.00 | 0.00 | 32 | 1006.2 |
| 20260505190807 | 82 | 209 | 2.6 | 18.2 | 0.00 | 0.00 | 0.00 | 32 | 1006.2 |
| 20260505190558 | 82 | 215 | 2.6 | 16.5 | 0.00 | 0.00 | 0.00 | 32 | 1006.2 |
| 20260505190538 | 82 | 199 | 2.6 | 16.5 | 0.00 | 0.00 | 0.00 | 32 | 1006.2 |
| 20260505190520 | 82 | 199 | 0.9 | 16.5 | 0.00 | 0.00 | 0.00 | 32 | 1006.1 |
| 20260505190457 | 82 | 169 | 2.6 | 16.5 | 0.00 | 0.00 | 0.00 | 32 | 1006.3 |
| 20260505190357 | 82 | 173 | 2.6 | 16.5 | 0.00 | 0.00 | 0.00 | 35 | 1006.2 |
| 20260505190256 | 82 | 255 | 2.6 | 16.5 | 0.00 | 0.00 | 0.00 | 33 | 1006.3 |
| 20260505190155 | 82 | 253 | 2.6 | 16.5 | 0.00 | 0.00 | 0.00 | 35 | 1006.3 |
| 20260505190055 | 82 | 215 | 2.6 | 16.5 | 0.00 | 0.00 | 0.00 | 33 | 1006.3 |
| 20260505190037 | 82 | 205 | 2.6 | 16.5 | 0.00 | 0.00 | 0.00 | 33 | 1006.3 |
| 20260505190020 | 82 | 178 | 0.0 | 16.5 | 0.00 | 0.00 | 0.00 | 33 | 1006.2 |
| 20260505185955 | 82 | 210 | 2.6 | 16.5 | 0.00 | 0.00 | 0.00 | 33 | 1006.4 |
| 20260505185855 | 83 | 204 | 1.7 | 16.5 | 0.00 | 0.00 | 0.00 | 33 | 1006.4 |
| 20260505185807 | 83 | 166 | 0.9 | 16.5 | 0.00 | 0.00 | 0.00 | 32 | 1006.4 |
| 20260505185803 | 83 | 173 | 1.7 | 16.5 | 0.00 | 0.00 | 0.00 | 32 | 1006.3 |
| 20260505185554 | 83 | 173 | 0.9 | 12.2 | 0.00 | 0.00 | 0.00 | 33 | 1006.5 |
| 20260505185535 | 83 | 193 | 0.0 | 12.2 | 0.00 | 0.00 | 0.00 | 34 | 1006.3 |
| 20260505185453 | 83 | 160 | 0.9 | 12.2 | 0.00 | 0.00 | 0.00 | 34 | 1006.5 |
| 20260505185352 | 83 | 220 | 0.9 | 12.2 | 0.00 | 0.00 | 0.00 | 35 | 1006.4 |
| 20260505185251 | 83 | 199 | 0.9 | 12.2 | 0.00 | 0.00 | 0.00 | 36 | 1006.4 |
| 20260505185151 | 83 | 234 | 0.9 | 12.2 | 0.00 | 0.00 | 0.00 | 36 | 1006.4 |
| 20260505185050 | 83 | 204 | 0.9 | 12.2 | 0.00 | 0.00 | 0.00 | 35 | 1006.4 |
| 20260505185035 | 83 | 194 | 0.9 | 12.2 | 0.00 | 0.00 | 0.00 | 35 | 1006.4 |
| 20260505185020 | 83 | 134 | 6.1 | 12.2 | 0.00 | 0.00 | 0.00 | 35 | 1006.2 |
| 20260505184950 | 83 | 212 | 0.9 | 12.2 | 0.00 | 0.00 | 0.00 | 35 | 1006.4 |
| 20260505184849 | 83 | 198 | 0.9 | 9.6 | 0.00 | 0.00 | 0.00 | 36 | 1006.4 |
| 20260505184801 | 83 | 173 | 0.9 | 10.4 | 0.00 | 0.00 | 0.00 | 35 | 1006.4 |
| 20260505184757 | 83 | 188 | 0.9 | 9.6 | 0.00 | 0.00 | 0.00 | 35 | 1006.4 |
| 20260505184601 | 83 | 196 | 0.9 | 10.4 | 0.00 | 0.00 | 0.00 | 36 | 1006.4 |
| 20260505184553 | 83 | 165 | 0.9 | 10.4 | 0.00 | 0.00 | 0.00 | 36 | 1006.4 |
| 20260505184550 | 83 | 203 | 0.0 | 10.4 | 0.00 | 0.00 | 0.00 | 35 | 1006.3 |
| 20260505184546 | 83 | 218 | 0.9 | 10.4 | 0.00 | 0.00 | 0.00 | 35 | 1006.5 |
| 20260505184434 | 83 | 153 | 0.9 | 10.4 | 0.00 | 0.00 | 0.00 | 34 | 1006.6 |
| 20260505184429 | 83 | 186 | 0.9 | 10.4 | 0.00 | 0.00 | 0.00 | 35 | 1006.5 |
| 20260505184316 | 83 | 175 | 0.9 | 10.4 | 0.00 | 0.00 | 0.00 | 35 | 1006.5 |
| 20260505184157 | 83 | 166 | 0.9 | 10.4 | 0.00 | 0.00 | 0.00 | 34 | 1006.6 |
| 20260505184021 | 83 | 223 | 0.0 | 10.4 | 0.00 | 0.00 | 0.00 | 34 | 1006.3 |
| 20260505183855 | 83 | 162 | 1.7 | 16.5 | 0.00 | 0.00 | 0.00 | 34 | 1006.7 |
| 20260505183851 | 83 | 186 | 0.9 | 10.4 | 0.00 | 0.00 | 0.00 | 34 | 1006.5 |
| 20260505183641 | 83 | 213 | 1.7 | 16.5 | 0.00 | 0.00 | 0.00 | 35 | 1006.6 |
| 20260505183542 | 82 | 209 | 1.7 | 16.5 | 0.00 | 0.00 | 0.00 | 34 | 1006.6 |
| 20260505183534 | 82 | 261 | 1.7 | 16.5 | 0.00 | 0.00 | 0.00 | 34 | 1006.6 |
| 20260505183521 | 82 | 195 | 0.0 | 11.3 | 0.00 | 0.00 | 0.00 | 34 | 1006.3 |
| 20260505183439 | 82 | 189 | 0.9 | 16.5 | 0.00 | 0.00 | 0.00 | 35 | 1006.5 |
| 20260505183339 | 82 | 175 | 0.9 | 16.5 | 0.00 | 0.00 | 0.00 | 34 | 1006.6 |
| 20260505183239 | 82 | 186 | 1.7 | 16.5 | 0.00 | 0.00 | 0.00 | 35 | 1006.5 |
| 20260505183138 | 82 | 173 | 1.7 | 16.5 | 0.00 | 0.00 | 0.00 | 35 | 1006.6 |
| 20260505183042 | 82 | 177 | 1.7 | 16.5 | 0.00 | 0.00 | 0.00 | 33 | 1006.7 |
| 20260505183037 | 82 | 192 | 1.7 | 16.5 | 0.00 | 0.00 | 0.00 | 33 | 1006.7 |
| 20260505183035 | 82 | 154 | 5.2 | 12.2 | 0.00 | 0.00 | 0.00 | 33 | 1006.5 |
| 20260505182936 | 82 | 200 | 1.7 | 16.5 | 0.00 | 0.00 | 0.00 | 34 | 1006.7 |
| 20260505182850 | 83 | 244 | 1.7 | 13.0 | 0.00 | 0.00 | 0.00 | 34 | 1006.6 |
| 20260505182846 | 82 | 130 | 1.7 | 16.5 | 0.00 | 0.00 | 0.00 | 33 | 1006.7 |
| 20260505182635 | 83 | 192 | 1.7 | 13.9 | 0.00 | 0.00 | 0.00 | 36 | 1006.8 |
| 20260505182536 | 83 | 205 | 1.7 | 13.9 | 0.00 | 0.00 | 0.00 | 36 | 1006.7 |
| 20260505182521 | 83 | 182 | 1.7 | 13.9 | 0.00 | 0.00 | 0.00 | 36 | 1006.5 |
| 20260505182434 | 83 | 174 | 1.7 | 13.9 | 0.00 | 0.00 | 0.00 | 34 | 1006.7 |
| 20260505182334 | 83 | 210 | 1.7 | 13.9 | 0.00 | 0.00 | 0.00 | 34 | 1006.5 |
| 20260505182233 | 83 | 186 | 1.7 | 13.9 | 0.00 | 0.00 | 0.00 | 36 | 1006.7 |
| 20260505182133 | 83 | 109 | 1.7 | 13.9 | 0.00 | 0.00 | 0.00 | 34 | 1006.7 |
| 20260505182037 | 83 | 203 | 1.7 | 13.9 | 0.00 | 0.00 | 0.00 | 33 | 1006.8 |
| 20260505182031 | 83 | 197 | 1.7 | 13.9 | 0.00 | 0.00 | 0.00 | 33 | 1006.8 |
| 20260505182020 | 83 | 155 | 2.6 | 13.9 | 0.00 | 0.00 | 0.00 | 33 | 1006.5 |
| 20260505181931 | 83 | 199 | 0.9 | 13.9 | 0.00 | 0.00 | 0.00 | 36 | 1006.7 |
| 20260505181829 | 83 | 186 | 0.9 | 13.9 | 0.00 | 0.00 | 0.00 | 34 | 1006.7 |
| 20260505181743 | 83 | 144 | 0.9 | 8.7 | 0.00 | 0.00 | 0.00 | 35 | 1006.8 |
| 20260505181739 | 83 | 210 | 0.9 | 11.3 | 0.00 | 0.00 | 0.00 | 35 | 1006.8 |
| 20260505181535 | 83 | 196 | 0.9 | 8.7 | 0.00 | 0.00 | 0.00 | 35 | 1006.7 |
| 20260505181529 | 83 | 188 | 0.9 | 8.7 | 0.00 | 0.00 | 0.00 | 35 | 1006.7 |
| 20260505181520 | 83 | 227 | 0.0 | 7.8 | 0.00 | 0.00 | 0.00 | 36 | 1006.6 |
| 20260505181428 | 83 | 165 | 0.9 | 8.7 | 0.00 | 0.00 | 0.00 | 35 | 1006.8 |
| 20260505181327 | 83 | 222 | 0.9 | 8.7 | 0.00 | 0.00 | 0.00 | 35 | 1006.8 |
| 20260505181227 | 83 | 205 | 0.9 | 8.7 | 0.00 | 0.00 | 0.00 | 37 | 1006.9 |
| 20260505181126 | 83 | 204 | 0.9 | 8.7 | 0.00 | 0.00 | 0.00 | 36 | 1006.9 |
| 20260505181034 | 83 | 269 | 0.9 | 12.2 | 0.00 | 0.00 | 0.00 | 37 | 1006.9 |
| 20260505181025 | 83 | 265 | 0.9 | 12.2 | 0.00 | 0.00 | 0.00 | 37 | 1006.9 |
| 20260505181020 | 83 | 273 | 0.0 | 12.2 | 0.00 | 0.00 | 0.00 | 37 | 1006.7 |
| 20260505180937 | 82 | 209 | 1.7 | 12.2 | 0.00 | 0.00 | 0.00 | 36 | 1006.9 |
| 20260505180933 | 83 | 189 | 0.9 | 12.2 | 0.00 | 0.00 | 0.00 | 37 | 1006.9 |
| 20260505180737 | 82 | 176 | 1.7 | 14.8 | 0.00 | 0.00 | 0.00 | 36 | 1006.9 |
| 20260505180733 | 82 | 208 | 1.7 | 14.8 | 0.00 | 0.00 | 0.00 | 35 | 1006.9 |
| 20260505180531 | 82 | 209 | 1.7 | 14.8 | 0.00 | 0.00 | 0.00 | 36 | 1007.0 |
| 20260505180523 | 82 | 194 | 1.7 | 14.8 | 0.00 | 0.00 | 0.00 | 36 | 1007.0 |
| 20260505180520 | 82 | 188 | 0.0 | 14.8 | 0.00 | 0.00 | 0.00 | 36 | 1006.8 |
| 20260505180423 | 82 | 214 | 1.7 | 14.8 | 0.00 | 0.00 | 0.00 | 35 | 1006.9 |
| 20260505180322 | 82 | 236 | 1.7 | 14.8 | 0.00 | 0.00 | 0.00 | 35 | 1006.9 |
| 20260505180222 | 82 | 194 | 1.7 | 14.8 | 0.00 | 0.00 | 0.00 | 34 | 1006.9 |
| 20260505180122 | 82 | 171 | 1.7 | 14.8 | 0.00 | 0.00 | 0.00 | 35 | 1006.9 |
| 20260505180028 | 83 | 171 | 1.7 | 14.8 | 0.00 | 0.00 | 0.00 | 34 | 1007.0 |
| 20260505180021 | 83 | 153 | 1.7 | 14.8 | 0.00 | 0.00 | 0.00 | 34 | 1007.0 |
| 20260505175920 | 83 | 211 | 1.7 | 14.8 | 0.00 | 0.00 | 0.00 | 35 | 1006.9 |
| 20260505175818 | 83 | 209 | 0.9 | 14.8 | 0.00 | 0.00 | 0.00 | 35 | 1007.0 |
| 20260505175718 | 83 | 173 | 0.9 | 12.2 | 0.00 | 0.00 | 0.00 | 35 | 1007.0 |
| 20260505175618 | 83 | 185 | 0.9 | 12.2 | 0.00 | 0.00 | 0.00 | 35 | 1007.0 |
| 20260505175528 | 83 | 180 | 0.0 | 5.2 | 0.00 | 0.00 | 0.00 | 36 | 1007.0 |
| 20260505175520 | 83 | 181 | 0.0 | 5.2 | 0.00 | 0.00 | 0.00 | 36 | 1006.8 |
| 20260505175517 | 83 | 212 | 0.0 | 5.2 | 0.00 | 0.00 | 0.00 | 36 | 1007.0 |
| 20260505175416 | 83 | 194 | 0.0 | 5.2 | 0.00 | 0.00 | 0.00 | 35 | 1007.0 |
| 20260505175316 | 83 | 209 | 0.0 | 9.6 | 0.00 | 0.00 | 0.00 | 36 | 1007.0 |
| 20260505175214 | 83 | 201 | 0.9 | 9.6 | 0.00 | 0.00 | 0.00 | 35 | 1007.0 |
| 20260505175114 | 83 | 229 | 0.9 | 9.6 | 0.00 | 0.00 | 0.00 | 35 | 1007.1 |
| 20260505175027 | 83 | 236 | 0.9 | 9.6 | 0.00 | 0.00 | 0.00 | 35 | 1007.1 |
| 20260505175020 | 83 | 233 | 0.0 | 7.0 | 0.00 | 0.00 | 0.00 | 35 | 1006.8 |
| 20260505175013 | 83 | 233 | 0.9 | 9.6 | 0.00 | 0.00 | 0.00 | 35 | 1007.0 |
| 20260505174913 | 83 | 151 | 0.9 | 9.6 | 0.00 | 0.00 | 0.00 | 35 | 1007.0 |
| 20260505174812 | 83 | 292 | 0.9 | 9.6 | 0.00 | 0.00 | 0.00 | 35 | 1007.0 |
| 20260505174711 | 83 | 190 | 0.9 | 9.6 | 0.00 | 0.00 | 0.00 | 35 | 1007.0 |
| 20260505174610 | 83 | 180 | 0.9 | 9.6 | 0.00 | 0.00 | 0.00 | 35 | 1007.0 |
| 20260505174528 | 83 | 188 | 0.9 | 13.0 | 0.00 | 0.00 | 0.00 | 34 | 1007.0 |
| 20260505174520 | 83 | 190 | 0.0 | 13.0 | 0.00 | 0.00 | 0.00 | 34 | 1006.8 |
| 20260505174510 | 83 | 190 | 0.9 | 13.0 | 0.00 | 0.00 | 0.00 | 34 | 1007.0 |
| 20260505174432 | 83 | 176 | 0.9 | 13.0 | 0.00 | 0.00 | 0.00 | 35 | 1007.1 |
| 20260505174319 | 83 | 208 | 0.9 | 13.0 | 0.00 | 0.00 | 0.00 | 34 | 1007.1 |
| 20260505174110 | 83 | 188 | 0.9 | 13.0 | 0.00 | 0.00 | 0.00 | 36 | 1007.0 |
| 20260505174025 | 83 | 220 | 0.9 | 13.0 | 0.00 | 0.00 | 0.00 | 36 | 1007.0 |
| 20260505174020 | 83 | 189 | 0.0 | 13.0 | 0.00 | 0.00 | 0.00 | 36 | 1006.8 |
| 20260505174008 | 83 | 315 | 0.9 | 13.0 | 0.00 | 0.00 | 0.00 | 36 | 1007.0 |
| 20260505173908 | 83 | 303 | 0.9 | 13.0 | 0.00 | 0.00 | 0.00 | 35 | 1007.1 |
| 20260505173808 | 83 | 236 | 0.9 | 13.0 | 0.00 | 0.00 | 0.00 | 35 | 1007.1 |
| 20260505173752 | 83 | 178 | 0.9 | 13.0 | 0.00 | 0.00 | 0.00 | 38 | 1007.0 |
| 20260505173747 | 83 | 208 | 0.9 | 8.7 | 0.00 | 0.00 | 0.00 | 37 | 1007.1 |
| 20260505173742 | 83 | 219 | 0.9 | 12.2 | 0.00 | 0.00 | 0.00 | 38 | 1007.1 |
| 20260505173737 | 83 | 235 | 0.9 | 13.0 | 0.00 | 0.00 | 0.00 | 34 | 1007.1 |
| 20260505173620 | 83 | 227 | 0.9 | 8.7 | 0.00 | 0.00 | 0.00 | 38 | 1007.0 |
| 20260505173520 | 83 | 206 | 0.0 | 8.7 | 0.00 | 0.00 | 0.00 | 38 | 1006.9 |
| 20260505173304 | 83 | 236 | 0.9 | 12.2 | 0.00 | 0.00 | 0.00 | 39 | 1007.2 |
| 20260505173213 | 82 | 300 | 0.9 | 12.2 | 0.00 | 0.00 | 0.00 | 40 | 1007.2 |
| 20260505173209 | 83 | 179 | 0.9 | 12.2 | 0.00 | 0.00 | 0.00 | 41 | 1007.2 |
| 20260505173026 | 82 | 214 | 0.9 | 13.0 | 0.00 | 0.00 | 0.00 | 37 | 1007.2 |
| 20260505173020 | 82 | 170 | 0.0 | 13.0 | 0.00 | 0.00 | 0.00 | 37 | 1007.0 |
| 20260505172959 | 82 | 265 | 0.9 | 13.0 | 0.00 | 0.00 | 0.00 | 37 | 1007.2 |
| 20260505172859 | 83 | 209 | 0.9 | 13.0 | 0.00 | 0.00 | 0.00 | 37 | 1007.2 |
| 20260505172758 | 83 | 182 | 0.9 | 13.0 | 0.00 | 0.00 | 0.00 | 36 | 1007.2 |
| 20260505172657 | 83 | 207 | 0.9 | 13.0 | 0.00 | 0.00 | 0.00 | 36 | 1007.2 |
| 20260505172557 | 83 | 187 | 0.9 | 13.0 | 0.00 | 0.00 | 0.00 | 37 | 1007.2 |
| 20260505172525 | 83 | 169 | 0.9 | 13.0 | 0.00 | 0.00 | 0.00 | 37 | 1007.2 |
| 20260505172520 | 83 | 182 | 0.9 | 13.0 | 0.00 | 0.00 | 0.00 | 37 | 1007.1 |
| 20260505172456 | 83 | 193 | 0.9 | 13.0 | 0.00 | 0.00 | 0.00 | 37 | 1007.3 |
| 20260505172356 | 83 | 227 | 0.9 | 13.0 | 0.00 | 0.00 | 0.00 | 40 | 1007.2 |
| 20260505172308 | 83 | 213 | 0.9 | 13.0 | 0.00 | 0.00 | 0.00 | 38 | 1007.2 |
| 20260505172305 | 83 | 278 | 0.9 | 13.0 | 0.00 | 0.00 | 0.00 | 39 | 1007.1 |
| 20260505172113 | 83 | 186 | 0.9 | 9.6 | 0.00 | 0.00 | 0.00 | 37 | 1007.2 |
| 20260505172108 | 83 | 183 | 0.9 | 13.0 | 0.00 | 0.00 | 0.00 | 37 | 1007.2 |
| 20260505172100 | 83 | 165 | 0.9 | 9.6 | 0.00 | 0.00 | 0.00 | 37 | 1007.2 |
| 20260505172020 | 83 | 184 | 0.0 | 9.6 | 0.00 | 0.00 | 0.00 | 37 | 1007.0 |
| 20260505171853 | 83 | 194 | 0.9 | 9.6 | 0.00 | 0.00 | 0.00 | 36 | 1007.2 |
| 20260505171752 | 83 | 259 | 0.9 | 9.6 | 0.00 | 0.00 | 0.00 | 37 | 1007.0 |
| 20260505171705 | 83 | 199 | 0.9 | 7.0 | 0.00 | 0.00 | 0.00 | 39 | 1007.2 |
| 20260505171700 | 83 | 202 | 0.9 | 7.0 | 0.00 | 0.00 | 0.00 | 41 | 1007.2 |
| 20260505171550 | 83 | 163 | 0.0 | 6.1 | 0.00 | 0.00 | 0.00 | 38 | 1007.0 |
| 20260505171525 | 83 | 212 | 0.9 | 7.0 | 0.00 | 0.00 | 0.00 | 38 | 1007.2 |
| 20260505171447 | 83 | 186 | 0.9 | 7.0 | 0.00 | 0.00 | 0.00 | 38 | 1007.2 |
| 20260505171346 | 83 | 213 | 0.9 | 6.1 | 0.00 | 0.00 | 0.00 | 39 | 1007.2 |
| 20260505171246 | 83 | 236 | 0.9 | 6.1 | 0.00 | 0.00 | 0.00 | 37 | 1007.2 |
| 20260505171145 | 83 | 153 | 0.9 | 6.1 | 0.00 | 0.00 | 0.00 | 37 | 1007.3 |
| 20260505171044 | 83 | 156 | 0.9 | 6.1 | 0.00 | 0.00 | 0.00 | 36 | 1007.2 |
| 20260505171026 | 83 | 173 | 0.9 | 6.1 | 0.00 | 0.00 | 0.00 | 38 | 1007.2 |
| 20260505171020 | 83 | 198 | 1.7 | 6.1 | 0.00 | 0.00 | 0.00 | 38 | 1006.9 |
| 20260505170944 | 83 | 194 | 0.0 | 6.1 | 0.00 | 0.00 | 0.00 | 38 | 1007.1 |
| 20260505170909 | 83 | 226 | 0.0 | 5.2 | 0.00 | 0.00 | 0.00 | 38 | 1007.2 |
| 20260505170905 | 83 | 231 | 0.0 | 5.2 | 0.00 | 0.00 | 0.00 | 37 | 1007.2 |
| 20260505170900 | 83 | 178 | 0.0 | 5.2 | 0.00 | 0.00 | 0.00 | 40 | 1007.3 |
| 20260505170541 | 83 | 196 | 0.0 | 5.2 | 0.00 | 0.00 | 0.00 | 38 | 1007.2 |
| 20260505170526 | 83 | 259 | 0.0 | 5.2 | 0.00 | 0.00 | 0.00 | 38 | 1007.2 |
| 20260505170520 | 83 | 213 | 0.0 | 5.2 | 0.00 | 0.00 | 0.00 | 38 | 1007.1 |
| 20260505170441 | 83 | 186 | 0.0 | 5.2 | 0.00 | 0.00 | 0.00 | 38 | 1007.3 |
| 20260505170353 | 83 | 221 | 0.0 | 5.2 | 0.00 | 0.00 | 0.00 | 37 | 1007.3 |
| 20260505170349 | 83 | 215 | 0.0 | 5.2 | 0.00 | 0.00 | 0.00 | 36 | 1007.2 |
| 20260505170141 | 83 | 205 | 0.0 | 5.2 | 0.00 | 0.00 | 0.00 | 37 | 1007.2 |
| 20260505170040 | 83 | 180 | 0.0 | 5.2 | 0.00 | 0.00 | 0.00 | 36 | 1007.2 |
| 20260505170025 | 83 | 178 | 0.0 | 5.2 | 0.00 | 0.00 | 0.00 | 36 | 1007.2 |
| 20260505170020 | 83 | 171 | 0.0 | 5.2 | 0.00 | 0.00 | 0.00 | 36 | 1007.0 |
| 20260505165941 | 83 | 169 | 0.0 | 5.2 | 0.00 | 0.00 | 0.00 | 36 | 1007.2 |
| 20260505165839 | 83 | 167 | 0.0 | 5.2 | 0.00 | 0.00 | 0.00 | 36 | 1007.3 |
| 20260505165738 | 83 | 192 | 0.0 | 5.2 | 0.00 | 0.00 | 0.00 | 35 | 1007.2 |
| 20260505165651 | 83 | 253 | 0.0 | 5.2 | 0.00 | 0.00 | 0.00 | 38 | 1007.3 |
| 20260505165646 | 83 | 221 | 0.0 | 5.2 | 0.00 | 0.00 | 0.00 | 36 | 1007.2 |
| 20260505165535 | 83 | 227 | 0.0 | 5.2 | 0.00 | 0.00 | 0.00 | 38 | 1007.1 |
| 20260505165525 | 83 | 212 | 0.0 | 5.2 | 0.00 | 0.00 | 0.00 | 38 | 1007.3 |
| 20260505165437 | 83 | 231 | 0.0 | 5.2 | 0.00 | 0.00 | 0.00 | 36 | 1007.3 |
| 20260505165336 | 83 | 159 | 0.0 | 5.2 | 0.00 | 0.00 | 0.00 | 39 | 1007.3 |
| 20260505165236 | 83 | 243 | 0.0 | 5.2 | 0.00 | 0.00 | 0.00 | 37 | 1007.3 |
| 20260505165135 | 83 | 184 | 0.0 | 5.2 | 0.00 | 0.00 | 0.00 | 36 | 1007.4 |
| 20260505165054 | 84 | 195 | 0.0 | 4.3 | 0.00 | 0.00 | 0.00 | 38 | 1007.3 |
| 20260505165048 | 84 | 183 | 0.0 | 4.3 | 0.00 | 0.00 | 0.00 | 35 | 1007.4 |
| 20260505165041 | 84 | 143 | 0.0 | 4.3 | 0.00 | 0.00 | 0.00 | 35 | 1007.4 |
| 20260505165020 | 84 | 176 | 0.9 | 3.5 | 0.00 | 0.00 | 0.00 | 35 | 1007.1 |
| 20260505164833 | 84 | 203 | 0.0 | 4.3 | 0.00 | 0.00 | 0.00 | 37 | 1007.4 |
| 20260505164756 | 84 | 188 | 0.0 | 4.3 | 0.00 | 0.00 | 0.00 | 35 | 1007.4 |
| 20260505164750 | 84 | 192 | 0.0 | 4.3 | 0.00 | 0.00 | 0.00 | 37 | 1007.3 |
| 20260505164741 | 84 | 224 | 0.0 | 4.3 | 0.00 | 0.00 | 0.00 | 38 | 1007.3 |
| 20260505164520 | 84 | 186 | 0.0 | 3.5 | 0.00 | 0.00 | 0.00 | 35 | 1007.2 |
| 20260505164432 | 84 | 177 | 0.0 | 4.3 | 0.00 | 0.00 | 0.00 | 37 | 1007.4 |
| 20260505164331 | 84 | 242 | 0.0 | 0.9 | 0.00 | 0.00 | 0.00 | 36 | 1007.4 |
| 20260505164231 | 84 | 246 | 0.0 | 0.9 | 0.00 | 0.00 | 0.00 | 36 | 1007.4 |
| 20260505164129 | 84 | 231 | 0.0 | 0.9 | 0.00 | 0.00 | 0.00 | 36 | 1007.4 |
| 20260505164032 | 84 | 280 | 0.0 | 0.9 | 0.00 | 0.00 | 0.00 | 36 | 1007.5 |
| 20260505164025 | 84 | 251 | 0.0 | 0.9 | 0.00 | 0.00 | 0.00 | 36 | 1007.5 |
| 20260505164020 | 84 | 238 | 0.0 | 0.9 | 0.00 | 0.00 | 0.00 | 36 | 1007.2 |
| 20260505163928 | 84 | 233 | 0.0 | 0.9 | 0.00 | 0.00 | 0.00 | 37 | 1007.4 |
| 20260505163827 | 84 | 213 | 0.0 | 1.7 | 0.00 | 0.00 | 0.00 | 37 | 1007.4 |
| 20260505163728 | 84 | 210 | 0.0 | 6.1 | 0.00 | 0.00 | 0.00 | 38 | 1007.4 |
| 20260505163627 | 83 | 198 | 0.0 | 6.1 | 0.00 | 0.00 | 0.00 | 37 | 1007.4 |
| 20260505163528 | 83 | 217 | 0.0 | 6.1 | 0.00 | 0.00 | 0.00 | 37 | 1007.4 |
| 20260505163520 | 84 | 167 | 0.0 | 6.1 | 0.00 | 0.00 | 0.00 | 37 | 1007.2 |
| 20260505163426 | 83 | 199 | 0.0 | 6.1 | 0.00 | 0.00 | 0.00 | 38 | 1007.4 |
| 20260505163325 | 83 | 193 | 0.0 | 6.1 | 0.00 | 0.00 | 0.00 | 38 | 1007.5 |
| 20260505163224 | 83 | 233 | 0.0 | 6.1 | 0.00 | 0.00 | 0.00 | 37 | 1007.4 |
| 20260505163144 | 83 | 192 | 0.0 | 7.0 | 0.00 | 0.00 | 0.00 | 40 | 1007.5 |
| 20260505163138 | 83 | 229 | 0.0 | 7.0 | 0.00 | 0.00 | 0.00 | 39 | 1007.4 |
| 20260505163129 | 83 | 202 | 0.0 | 7.0 | 0.00 | 0.00 | 0.00 | 40 | 1007.5 |
| 20260505163020 | 83 | 204 | 0.0 | 7.0 | 0.00 | 0.00 | 0.00 | 38 | 1007.3 |
| 20260505162923 | 83 | 219 | 0.0 | 7.0 | 0.00 | 0.00 | 0.00 | 37 | 1007.5 |
| 20260505162822 | 82 | 279 | 0.0 | 7.0 | 0.00 | 0.00 | 0.00 | 38 | 1007.5 |
| 20260505162750 | 82 | 163 | 0.0 | 13.0 | 0.00 | 0.00 | 0.00 | 37 | 1007.4 |
| 20260505162722 | 82 | 213 | 0.0 | 7.0 | 0.00 | 0.00 | 0.00 | 37 | 1007.4 |
| 20260505162635 | 82 | 219 | 0.0 | 13.0 | 0.00 | 0.00 | 0.00 | 37 | 1007.4 |
| 20260505162550 | 82 | 162 | 0.0 | 11.3 | 0.00 | 0.00 | 0.00 | 37 | 1007.3 |
| 20260505162520 | 82 | 163 | 0.0 | 13.0 | 0.00 | 0.00 | 0.00 | 37 | 1007.4 |
| 20260505162420 | 82 | 248 | 0.0 | 13.0 | 0.00 | 0.00 | 0.00 | 38 | 1007.4 |
| 20260505162319 | 82 | 178 | 0.9 | 13.0 | 0.00 | 0.00 | 0.00 | 37 | 1007.4 |
| 20260505162218 | 82 | 197 | 0.0 | 13.0 | 0.00 | 0.00 | 0.00 | 39 | 1007.4 |
| 20260505162133 | 82 | 201 | 0.0 | 13.0 | 0.00 | 0.00 | 0.00 | 37 | 1007.4 |
| 20260505162125 | 82 | 180 | 0.0 | 13.0 | 0.00 | 0.00 | 0.00 | 38 | 1007.4 |
| 20260505162118 | 82 | 208 | 0.0 | 13.0 | 0.00 | 0.00 | 0.00 | 38 | 1007.4 |
| 20260505162020 | 82 | 196 | 0.0 | 11.3 | 0.00 | 0.00 | 0.00 | 38 | 1007.3 |
| 20260505162005 | 82 | 217 | 0.0 | 13.0 | 0.00 | 0.00 | 0.00 | 38 | 1007.4 |
| 20260505161717 | 82 | 185 | 0.0 | 13.0 | 0.00 | 0.00 | 0.00 | 38 | 1007.4 |
| 20260505161632 | 82 | 285 | 0.0 | 3.5 | 0.00 | 0.00 | 0.00 | 37 | 1007.3 |
| 20260505161520 | 82 | 213 | 0.0 | 4.3 | 0.00 | 0.00 | 0.00 | 37 | 1007.3 |
| 20260505161516 | 82 | 205 | 0.0 | 3.5 | 0.00 | 0.00 | 0.00 | 37 | 1007.4 |
| 20260505161416 | 82 | 194 | 0.0 | 4.3 | 0.00 | 0.00 | 0.00 | 38 | 1007.4 |
| 20260505161315 | 82 | 190 | 0.0 | 4.3 | 0.00 | 0.00 | 0.00 | 38 | 1007.5 |
| 20260505161215 | 82 | 202 | 0.0 | 4.3 | 0.00 | 0.00 | 0.00 | 39 | 1007.3 |
| 20260505161113 | 82 | 216 | 0.0 | 4.3 | 0.00 | 0.00 | 0.00 | 36 | 1007.3 |
| 20260505161024 | 82 | 247 | 0.0 | 4.3 | 0.00 | 0.00 | 0.00 | 38 | 1007.3 |
| 20260505161020 | 82 | 234 | 0.0 | 4.3 | 0.00 | 0.00 | 0.00 | 38 | 1007.2 |
| 20260505161013 | 82 | 234 | 0.0 | 4.3 | 0.00 | 0.00 | 0.00 | 38 | 1007.3 |
| 20260505160912 | 82 | 178 | 0.0 | 4.3 | 0.00 | 0.00 | 0.00 | 39 | 1007.4 |
| 20260505160811 | 82 | 178 | 0.0 | 7.0 | 0.00 | 0.00 | 0.00 | 39 | 1007.4 |
| 20260505160751 | 82 | 209 | 0.0 | 7.0 | 0.00 | 0.00 | 0.00 | 38 | 1007.5 |
| 20260505160747 | 82 | 240 | 0.0 | 7.0 | 0.00 | 0.00 | 0.00 | 38 | 1007.5 |
| 20260505160741 | 82 | 127 | 0.0 | 7.0 | 0.00 | 0.00 | 0.00 | 36 | 1007.5 |
| 20260505160520 | 82 | 157 | 4.3 | 5.2 | 0.00 | 0.00 | 0.00 | 38 | 1007.4 |
| 20260505160509 | 82 | 201 | 0.0 | 7.0 | 0.00 | 0.00 | 0.00 | 38 | 1007.5 |
| 20260505160409 | 82 | 192 | 0.0 | 7.0 | 0.00 | 0.00 | 0.00 | 38 | 1007.4 |
| 20260505160312 | 82 | 204 | 0.0 | 7.0 | 0.00 | 0.00 | 0.00 | 36 | 1007.4 |
| 20260505160306 | 82 | 224 | 0.0 | 7.0 | 0.00 | 0.00 | 0.00 | 38 | 1007.5 |
| 20260505160300 | 82 | 205 | 0.0 | 7.0 | 0.00 | 0.00 | 0.00 | 36 | 1007.4 |
| 20260505160256 | 82 | 233 | 0.0 | 7.0 | 0.00 | 0.00 | 0.00 | 37 | 1007.5 |
| 20260505160251 | 82 | 244 | 0.0 | 7.8 | 0.00 | 0.00 | 0.00 | 38 | 1007.6 |
| 20260505160245 | 82 | 153 | 0.0 | 7.0 | 0.00 | 0.00 | 0.00 | 38 | 1007.5 |
| 20260505153349 | 81 | 249 | 0.0 | 1.7 | 0.00 | 0.00 | 0.00 | 38 | 1003.8 |
| 20260505153304 | 81 | 239 | 0.0 | 4.3 | 0.00 | 0.00 | 0.00 | 39 | 1003.7 |
| 20260505153258 | 81 | 177 | 0.0 | 1.7 | 0.00 | 0.00 | 0.00 | 40 | 1003.7 |
| 20260505153048 | 81 | 195 | 0.0 | 4.3 | 0.00 | 0.00 | 0.00 | 38 | 1003.7 |
| 20260505153021 | 81 | 193 | 0.0 | 4.3 | 0.00 | 0.00 | 0.00 | 37 | 1003.7 |
| 20260505152949 | 81 | 225 | 0.0 | 4.3 | 0.00 | 0.00 | 0.00 | 37 | 1003.7 |
| 20260505152848 | 81 | 215 | 0.0 | 4.3 | 0.00 | 0.00 | 0.00 | 38 | 1003.7 |
| 20260505152750 | 81 | 190 | 0.0 | 4.3 | 0.00 | 0.00 | 0.00 | 38 | 1003.6 |
| 20260505152649 | 82 | 194 | 0.0 | 4.3 | 0.00 | 0.00 | 0.00 | 38 | 1003.7 |
| 20260505152550 | 82 | 232 | 0.0 | 4.3 | 0.00 | 0.00 | 0.00 | 37 | 1003.4 |
| 20260505152519 | 82 | 229 | 0.0 | 4.3 | 0.00 | 0.00 | 0.00 | 37 | 1003.6 |
| 20260505152500 | 82 | 216 | 0.0 | 4.3 | 0.00 | 0.00 | 0.00 | 37 | 1003.5 |
| 20260505152456 | 82 | 183 | 0.0 | 4.3 | 0.00 | 0.00 | 0.00 | 37 | 1003.5 |
| 20260505152247 | 82 | 186 | 0.0 | 4.3 | 0.00 | 0.00 | 0.00 | 38 | 1003.5 |
| 20260505152147 | 82 | 194 | 0.0 | 1.7 | 0.00 | 0.00 | 0.00 | 38 | 1003.4 |
| 20260505152046 | 82 | 195 | 0.0 | 3.5 | 0.00 | 0.00 | 0.00 | 40 | 1003.4 |
| 20260505152020 | 81 | 254 | 0.0 | 3.5 | 0.00 | 0.00 | 0.00 | 40 | 1003.4 |
| 20260505151959 | 81 | 254 | 0.0 | 3.5 | 0.00 | 0.00 | 0.00 | 40 | 1003.4 |
| 20260505151954 | 81 | 247 | 0.0 | 3.5 | 0.00 | 0.00 | 0.00 | 40 | 1003.5 |
| 20260505151745 | 81 | 247 | 0.0 | 3.5 | 0.00 | 0.00 | 0.00 | 40 | 1003.4 |
| 20260505151655 | 81 | 222 | 0.0 | 3.5 | 0.00 | 0.00 | 0.00 | 39 | 1003.4 |
| 20260505151651 | 81 | 182 | 0.0 | 3.5 | 0.00 | 0.00 | 0.00 | 38 | 1003.3 |
| 20260505151520 | 81 | 246 | 0.0 | 3.5 | 0.00 | 0.00 | 0.00 | 39 | 1003.3 |
| 20260505151518 | 81 | 244 | 0.0 | 3.5 | 0.00 | 0.00 | 0.00 | 39 | 1003.4 |
| 20260505151441 | 81 | 208 | 0.0 | 3.5 | 0.00 | 0.00 | 0.00 | 39 | 1003.4 |
| 20260505151401 | 81 | 242 | 0.0 | 3.5 | 0.00 | 0.00 | 0.00 | 38 | 1003.2 |
| 20260505151248 | 81 | 202 | 0.0 | 3.5 | 0.00 | 0.00 | 0.00 | 38 | 1003.2 |
| 20260505151038 | 82 | 190 | 0.0 | 3.5 | 0.00 | 0.00 | 0.00 | 37 | 1003.3 |
| 20260505151020 | 82 | 215 | 0.0 | 3.5 | 0.00 | 0.00 | 0.00 | 37 | 1003.0 |
| 20260505151018 | 82 | 245 | 0.0 | 3.5 | 0.00 | 0.00 | 0.00 | 37 | 1003.3 |
| 20260505150938 | 82 | 235 | 0.0 | 2.6 | 0.00 | 0.00 | 0.00 | 37 | 1003.1 |
| 20260505150837 | 82 | 194 | 0.0 | 2.6 | 0.00 | 0.00 | 0.00 | 36 | 1003.1 |
| 20260505150736 | 82 | 238 | 0.0 | 2.6 | 0.00 | 0.00 | 0.00 | 37 | 1003.1 |
| 20260505150635 | 82 | 220 | 0.0 | 2.6 | 0.00 | 0.00 | 0.00 | 37 | 1003.1 |
| 20260505150535 | 82 | 258 | 0.0 | 0.9 | 0.00 | 0.00 | 0.00 | 37 | 1003.1 |
| 20260505150520 | 82 | 201 | 0.0 | 0.0 | 0.00 | 0.00 | 0.00 | 37 | 1003.0 |
| 20260505150517 | 82 | 227 | 0.0 | 0.9 | 0.00 | 0.00 | 0.00 | 37 | 1003.1 |
| 20260505150434 | 82 | 213 | 0.0 | 0.0 | 0.00 | 0.00 | 0.00 | 38 | 1003.1 |
| 20260505150332 | 82 | 242 | 0.0 | 0.0 | 0.00 | 0.00 | 0.00 | 38 | 1003.1 |
| 20260505150231 | 82 | 248 | 0.0 | 0.0 | 0.00 | 0.00 | 0.00 | 37 | 1003.2 |
| 20260505150144 | 82 | 240 | 0.0 | 0.0 | 0.00 | 0.00 | 0.00 | 39 | 1003.3 |
| 20260505150140 | 82 | 229 | 0.0 | 0.0 | 0.00 | 0.00 | 0.00 | 39 | 1003.3 |
| 20260505140520 | 76 | 290 | 0.0 | 2.6 | 0.00 | 0.00 | 0.00 | 46 | 1004.2 |
| 20260505140456 | 76 | 296 | 0.0 | 2.6 | 0.00 | 0.00 | 0.00 | 45 | 1004.2 |
| 20260505140356 | 76 | 242 | 0.0 | 2.6 | 0.00 | 0.00 | 0.00 | 45 | 1004.2 |
| 20260505140253 | 76 | 194 | 0.0 | 1.7 | 0.00 | 0.00 | 0.00 | 46 | 1004.2 |
| 20260505140206 | 76 | 219 | 0.0 | 0.9 | 0.00 | 0.00 | 0.00 | 46 | 1004.3 |
| 20260505140201 | 76 | 197 | 0.0 | 1.7 | 0.00 | 0.00 | 0.00 | 47 | 1004.2 |
| 20260505130118 | 70 | 246 | 0.0 | 2.6 | 0.00 | 0.00 | 0.00 | 52 | 1006.0 |
| 20260505125019 | 70 | 228 | 0.0 | 5.2 | 0.00 | 0.00 | 0.00 | 52 | 1007.6 |
| 20260505124825 | 70 | 251 | 0.0 | 4.3 | 0.00 | 0.00 | 0.00 | 53 | 1006.8 |
| 20260505124819 | 70 | 247 | 0.0 | 3.5 | 0.00 | 0.00 | 0.00 | 53 | 1007.3 |
| 20260505124609 | 70 | 226 | 0.0 | 4.3 | 0.00 | 0.00 | 0.00 | 55 | 1006.7 |
| 20260505124519 | 69 | 262 | 0.0 | 3.5 | 0.00 | 0.00 | 0.00 | 56 | 1006.7 |
| 20260505124508 | 69 | 262 | 0.0 | 4.3 | 0.00 | 0.00 | 0.00 | 56 | 1006.8 |
| 20260505124459 | 69 | 251 | 0.0 | 4.3 | 0.00 | 0.00 | 0.00 | 56 | 1006.8 |
| 20260505124407 | 69 | 221 | 0.0 | 4.3 | 0.00 | 0.00 | 0.00 | 56 | 1006.4 |
| 20260505124358 | 69 | 245 | 0.0 | 4.3 | 0.00 | 0.00 | 0.00 | 56 | 1006.3 |
| 20260505124247 | 69 | 229 | 0.0 | 4.3 | 0.00 | 0.00 | 0.00 | 55 | 1006.6 |
| 20260505124243 | 69 | 202 | 0.0 | 4.3 | 0.00 | 0.00 | 0.00 | 54 | 1006.6 |
| 20260505124236 | 69 | 245 | 0.0 | 4.3 | 0.00 | 0.00 | 0.00 | 55 | 1006.4 |
| 20260505124118 | 69 | 252 | 0.0 | 4.3 | 0.00 | 0.00 | 0.00 | 55 | 1006.9 |
| 20260505124021 | 69 | 252 | 0.0 | 3.5 | 0.00 | 0.00 | 0.00 | 55 | 1006.8 |
| 20260505123802 | 69 | 243 | 0.0 | 4.3 | 0.00 | 0.00 | 0.00 | 54 | 1006.6 |
| 20260505123702 | 69 | 227 | 0.0 | 1.7 | 0.00 | 0.00 | 0.00 | 56 | 1006.6 |
| 20260505123606 | 68 | 265 | 0.0 | 1.7 | 0.00 | 0.00 | 0.00 | 56 | 1006.6 |
| 20260505123600 | 68 | 219 | 0.0 | 1.7 | 0.00 | 0.00 | 0.00 | 56 | 1006.5 |
| 20260505123501 | 68 | 226 | 0.0 | 1.7 | 0.00 | 0.00 | 0.00 | 56 | 1006.6 |
| 20260505123359 | 68 | 250 | 0.0 | 1.7 | 0.00 | 0.00 | 0.00 | 56 | 1006.7 |
| 20260505123259 | 68 | 202 | 0.0 | 1.7 | 0.00 | 0.00 | 0.00 | 57 | 1006.7 |
| 20260505123157 | 68 | 233 | 0.0 | 1.7 | 0.00 | 0.00 | 0.00 | 56 | 1006.8 |
| 20260505123057 | 68 | 206 | 0.0 | 1.7 | 0.00 | 0.00 | 0.00 | 55 | 1006.9 |
| 20260505123050 | 68 | 209 | 0.0 | 1.7 | 0.00 | 0.00 | 0.00 | 56 | 1007.6 |
| 20260505123003 | 68 | 205 | 0.0 | 1.7 | 0.00 | 0.00 | 0.00 | 56 | 1007.6 |
| 20260505122957 | 68 | 204 | 0.0 | 1.7 | 0.00 | 0.00 | 0.00 | 56 | 1007.6 |
| 20260505122857 | 68 | 240 | 0.0 | 0.9 | 0.00 | 0.00 | 0.00 | 56 | 1007.6 |
| 20260505122755 | 68 | 205 | 0.0 | 0.9 | 0.00 | 0.00 | 0.00 | 56 | 1007.1 |
| 20260505122655 | 68 | 223 | 0.0 | 0.9 | 0.00 | 0.00 | 0.00 | 57 | 1007.7 |
| 20260505122555 | 67 | 263 | 0.0 | 0.9 | 0.00 | 0.00 | 0.00 | 58 | 1007.0 |
| 20260505122519 | 67 | 242 | 0.0 | 0.0 | 0.00 | 0.00 | 0.00 | 58 | 1007.0 |
| 20260505122454 | 67 | 242 | 0.0 | 3.5 | 0.00 | 0.00 | 0.00 | 58 | 1007.0 |
| 20260505122353 | 67 | 230 | 0.0 | 3.5 | 0.00 | 0.00 | 0.00 | 57 | 1007.0 |
| 20260505122315 | 67 | 194 | 0.0 | 3.5 | 0.00 | 0.00 | 0.00 | 58 | 1007.1 |
| 20260505122202 | 67 | 198 | 0.0 | 3.5 | 0.00 | 0.00 | 0.00 | 57 | 1007.2 |
| 20260505122026 | 67 | 198 | 0.0 | 3.5 | 0.00 | 0.00 | 0.00 | 57 | 1007.3 |
| 20260505122019 | 67 | 197 | 0.0 | 1.7 | 0.00 | 0.00 | 0.00 | 57 | 1007.3 |
| 20260505121914 | 67 | 213 | 0.0 | 3.5 | 0.00 | 0.00 | 0.00 | 57 | 1007.3 |
| 20260505121908 | 67 | 197 | 0.0 | 3.5 | 0.00 | 0.00 | 0.00 | 57 | 1007.3 |
| 20260505121551 | 67 | 240 | 0.0 | 3.5 | 0.00 | 0.00 | 0.00 | 57 | 1007.4 |
| 20260505121520 | 67 | 188 | 0.0 | 3.5 | 0.00 | 0.00 | 0.00 | 58 | 1007.6 |
| 20260505121453 | 67 | 214 | 0.0 | 3.5 | 0.00 | 0.00 | 0.00 | 58 | 1007.6 |
| 20260505121448 | 67 | 231 | 0.0 | 3.5 | 0.00 | 0.00 | 0.00 | 58 | 1007.6 |
| 20260505121349 | 67 | 257 | 0.0 | 3.5 | 0.00 | 0.00 | 0.00 | 59 | 1007.5 |
| 20260505121248 | 66 | 222 | 0.0 | 3.5 | 0.00 | 0.00 | 0.00 | 58 | 1007.7 |
| 20260505121221 | 66 | 211 | 0.0 | 3.5 | 0.00 | 0.00 | 0.00 | 59 | 1008.1 |
| 20260505121217 | 66 | 198 | 0.0 | 3.5 | 0.00 | 0.00 | 0.00 | 58 | 1008.1 |
| 20260505121211 | 66 | 200 | 0.0 | 3.5 | 0.00 | 0.00 | 0.00 | 59 | 1008.1 |
| 20260505121054 | 66 | 196 | 0.0 | 3.5 | 0.00 | 0.00 | 0.00 | 58 | 1008.1 |
| 20260505121020 | 66 | 168 | 0.0 | 3.5 | 0.00 | 0.00 | 0.00 | 58 | 1008.1 |
| 20260505120900 | 66 | 205 | 0.0 | 3.5 | 0.00 | 0.00 | 0.00 | 58 | 1008.2 |
| 20260505120854 | 66 | 205 | 0.0 | 3.5 | 0.00 | 0.00 | 0.00 | 57 | 1008.1 |
| 20260505120713 | 66 | 222 | 0.0 | 3.5 | 0.00 | 0.00 | 0.00 | 58 | 1008.2 |
| 20260505120559 | 66 | 236 | 0.0 | 3.5 | 0.00 | 0.00 | 0.00 | 58 | 1008.1 |
| 20260505120551 | 66 | 225 | 0.0 | 0.9 | 0.00 | 0.00 | 0.00 | 58 | 1008.2 |
| 20260505120520 | 66 | 224 | 0.0 | 0.0 | 0.00 | 0.00 | 0.00 | 58 | 1008.2 |
| 20260505120358 | 66 | 236 | 0.0 | 0.9 | 0.00 | 0.00 | 0.00 | 59 | 1008.2 |
| 20260505120353 | 66 | 219 | 0.0 | 0.9 | 0.00 | 0.00 | 0.00 | 58 | 1008.2 |
| 20260505120218 | 66 | 214 | 0.0 | 1.7 | 0.00 | 0.00 | 0.00 | 59 | 1008.3 |
| 20260505120142 | 66 | 221 | 0.0 | 0.9 | 0.00 | 0.00 | 0.00 | 59 | 1008.3 |
| 20260505120100 | 66 | 215 | 0.0 | 1.7 | 0.00 | 0.00 | 0.00 | 60 | 1008.3 |
| 20260505120020 | 66 | 214 | 0.0 | 1.7 | 0.00 | 0.00 | 0.00 | 59 | 1008.3 |
| 20260505115941 | 66 | 214 | 0.0 | 1.7 | 0.00 | 0.00 | 0.00 | 59 | 1008.3 |
| 20260505115839 | 66 | 215 | 0.0 | 1.7 | 0.00 | 0.00 | 0.00 | 59 | 1008.3 |
| 20260505115739 | 66 | 221 | 0.0 | 1.7 | 0.00 | 0.00 | 0.00 | 60 | 1008.3 |
| 20260505115715 | 66 | 211 | 0.0 | 1.7 | 0.00 | 0.00 | 0.00 | 59 | 1008.3 |
| 20260505115638 | 66 | 198 | 0.0 | 1.7 | 0.00 | 0.00 | 0.00 | 59 | 1008.2 |
| 20260505115559 | 66 | 243 | 0.0 | 1.7 | 0.00 | 0.00 | 0.00 | 59 | 1008.2 |
| 20260505115520 | 66 | 191 | 0.0 | 1.7 | 0.00 | 0.00 | 0.00 | 59 | 1008.3 |
| 20260505115435 | 66 | 215 | 0.0 | 1.7 | 0.00 | 0.00 | 0.00 | 59 | 1008.3 |
| 20260505115334 | 66 | 191 | 0.0 | 1.7 | 0.00 | 0.00 | 0.00 | 60 | 1008.3 |
| 20260505115234 | 66 | 195 | 0.0 | 1.7 | 0.00 | 0.00 | 0.00 | 59 | 1008.4 |
| 20260505115133 | 65 | 199 | 0.0 | 1.7 | 0.00 | 0.00 | 0.00 | 60 | 1008.4 |
| 20260505115032 | 65 | 227 | 0.0 | 1.7 | 0.00 | 0.00 | 0.00 | 60 | 1008.4 |
| 20260505115020 | 66 | 227 | 0.0 | 1.7 | 0.00 | 0.00 | 0.00 | 60 | 1008.4 |
| 20260505114949 | 65 | 227 | 0.0 | 1.7 | 0.00 | 0.00 | 0.00 | 60 | 1008.4 |
| 20260505114931 | 65 | 188 | 0.0 | 1.7 | 0.00 | 0.00 | 0.00 | 60 | 1008.4 |
| 20260505114831 | 65 | 198 | 0.0 | 1.7 | 0.00 | 0.00 | 0.00 | 60 | 1008.4 |
| 20260505114731 | 65 | 222 | 0.0 | 1.7 | 0.00 | 0.00 | 0.00 | 61 | 1008.4 |
| 20260505114631 | 65 | 216 | 0.0 | 1.7 | 0.00 | 0.00 | 0.00 | 60 | 1008.4 |
| 20260505114530 | 65 | 217 | 0.0 | 1.7 | 0.00 | 0.00 | 0.00 | 61 | 1008.4 |
| 20260505114520 | 65 | 218 | 0.0 | 1.7 | 0.00 | 0.00 | 0.00 | 61 | 1008.4 |
| 20260505114449 | 65 | 229 | 0.0 | 1.7 | 0.00 | 0.00 | 0.00 | 63 | 1008.4 |
| 20260505114430 | 65 | 182 | 0.0 | 0.0 | 0.00 | 0.00 | 0.00 | 63 | 1008.4 |
| 20260505114329 | 65 | 212 | 0.0 | 0.0 | 0.00 | 0.00 | 0.00 | 63 | 1008.4 |
| 20260505114229 | 65 | 212 | 0.0 | 1.7 | 0.00 | 0.00 | 0.00 | 63 | 1008.4 |
| 20260505114143 | 65 | 212 | 0.0 | 1.7 | 0.00 | 0.00 | 0.00 | 62 | 1008.4 |
| 20260505114137 | 65 | 212 | 0.0 | 1.7 | 0.00 | 0.00 | 0.00 | 62 | 1008.4 |
| 20260505114020 | 65 | 212 | 0.0 | 1.7 | 0.00 | 0.00 | 0.00 | 62 | 1008.3 |
| 20260505113949 | 65 | 212 | 0.0 | 1.7 | 0.00 | 0.00 | 0.00 | 63 | 1008.3 |
| 20260505113926 | 65 | 175 | 0.0 | 1.7 | 0.00 | 0.00 | 0.00 | 63 | 1008.3 |
| 20260505113826 | 65 | 224 | 0.0 | 1.7 | 0.00 | 0.00 | 0.00 | 63 | 1008.3 |
| 20260505113752 | 65 | 224 | 0.0 | 1.7 | 0.00 | 0.00 | 0.00 | 61 | 1008.4 |
| 20260505113748 | 65 | 224 | 0.0 | 1.7 | 0.00 | 0.00 | 0.00 | 61 | 1008.4 |
| 20260505113743 | 65 | 224 | 0.0 | 1.7 | 0.00 | 0.00 | 0.00 | 62 | 1008.4 |
| 20260505113520 | 65 | 211 | 0.0 | 1.7 | 0.00 | 0.00 | 0.00 | 61 | 1008.4 |
| 20260505113447 | 65 | 217 | 0.0 | 1.7 | 0.00 | 0.00 | 0.00 | 61 | 1008.4 |
| 20260505113424 | 65 | 240 | 0.0 | 1.7 | 0.00 | 0.00 | 0.00 | 62 | 1008.4 |
| 20260505113323 | 65 | 188 | 0.0 | 1.7 | 0.00 | 0.00 | 0.00 | 64 | 1008.5 |
| 20260505113224 | 65 | 153 | 0.0 | 0.0 | 0.00 | 0.00 | 0.00 | 65 | 1008.5 |
| 20260505113124 | 64 | 153 | 0.0 | 0.0 | 0.00 | 0.00 | 0.00 | 63 | 1008.5 |
| 20260505113056 | 64 | 153 | 0.0 | 0.0 | 0.00 | 0.00 | 0.00 | 64 | 1008.4 |
| 20260505113052 | 64 | 103 | 0.0 | 0.0 | 0.00 | 0.00 | 0.00 | 64 | 1008.5 |
| 20260505113047 | 64 | 153 | 0.0 | 0.0 | 0.00 | 0.00 | 0.00 | 63 | 1008.5 |
| 20260505113038 | 64 | 153 | 0.0 | 0.0 | 0.00 | 0.00 | 0.00 | 63 | 1008.4 |
| 20260505113019 | 64 | 153 | 0.0 | 0.0 | 0.00 | 0.00 | 0.00 | 63 | 1008.4 |
| 20260505112737 | 64 | 206 | 0.0 | 0.0 | 0.00 | 0.00 | 0.00 | 64 | 1008.5 |
| 20260505112733 | 64 | 103 | 0.0 | 0.0 | 0.00 | 0.00 | 0.00 | 64 | 1008.5 |
| 20260505112524 | 64 | 206 | 0.0 | 0.0 | 0.00 | 0.00 | 0.00 | 65 | 1008.5 |
| 20260505112520 | 64 | 206 | 0.0 | 0.0 | 0.00 | 0.00 | 0.00 | 64 | 1008.4 |
| 20260505112423 | 64 | 206 | 0.0 | 0.0 | 0.00 | 0.00 | 0.00 | 64 | 1008.4 |
| 20260505112323 | 64 | 206 | 0.0 | 0.0 | 0.00 | 0.00 | 0.00 | 65 | 1008.4 |
| 20260505112223 | 64 | 206 | 0.0 | 0.0 | 0.00 | 0.00 | 0.00 | 65 | 1008.5 |
| 20260505112122 | 63 | 206 | 0.0 | 0.0 | 0.00 | 0.00 | 0.00 | 66 | 1008.4 |
| 20260505112022 | 63 | 206 | 0.0 | 0.0 | 0.00 | 0.00 | 0.00 | 67 | 1008.4 |
| 20260505112020 | 63 | 206 | 0.0 | 0.0 | 0.00 | 0.00 | 0.00 | 67 | 1008.4 |
| 20260505111947 | 63 | 206 | 0.0 | 0.0 | 0.00 | 0.00 | 0.00 | 67 | 1008.3 |
| 20260505111921 | 63 | 206 | 0.0 | 0.0 | 0.00 | 0.00 | 0.00 | 66 | 1008.3 |
| 20260505111820 | 63 | 206 | 0.0 | 0.0 | 0.00 | 0.00 | 0.00 | 66 | 1008.3 |
| 20260505111742 | 62 | 206 | 0.0 | 0.0 | 0.00 | 0.00 | 0.00 | 66 | 1008.3 |
| 20260505111719 | 63 | 206 | 0.0 | 0.0 | 0.00 | 0.00 | 0.00 | 67 | 1008.3 |
| 20260505111647 | 62 | 206 | 0.0 | 0.0 | 0.00 | 0.00 | 0.00 | 66 | 1008.3 |
| 20260505111641 | 62 | 206 | 0.0 | 0.0 | 0.00 | 0.00 | 0.00 | 67 | 1008.3 |
| 20260505111632 | 62 | 206 | 0.0 | 0.0 | 0.00 | 0.00 | 0.00 | 66 | 1008.3 |
| 20260505111520 | 62 | 206 | 0.0 | 0.0 | 0.00 | 0.00 | 0.00 | 66 | 1008.4 |
| 20260505111317 | 62 | 206 | 0.0 | 0.0 | 0.00 | 0.00 | 0.00 | 67 | 1008.2 |
| 20260505111217 | 62 | 206 | 0.0 | 0.0 | 0.00 | 0.00 | 0.00 | 67 | 1008.3 |
| 20260505111211 | 62 | 206 | 0.0 | 0.0 | 0.00 | 0.00 | 0.00 | 68 | 1008.2 |
| 20260505111115 | 62 | 206 | 0.0 | 0.0 | 0.00 | 0.00 | 0.00 | 67 | 1008.3 |
| 20260505111054 | 62 | 206 | 0.0 | 0.0 | 0.00 | 0.00 | 0.00 | 68 | 1008.3 |
| 20260505111020 | 62 | 206 | 0.0 | 0.0 | 0.00 | 0.00 | 0.00 | 68 | 1008.3 |
| 20260505110914 | 62 | 206 | 0.0 | 0.0 | 0.00 | 0.00 | 0.00 | 68 | 1008.2 |
| 20260505110813 | 61 | 206 | 0.0 | 0.0 | 0.00 | 0.00 | 0.00 | 69 | 1008.2 |
| 20260505110713 | 61 | 206 | 0.0 | 0.0 | 0.00 | 0.00 | 0.00 | 69 | 1008.2 |
| 20260505110613 | 61 | 206 | 0.0 | 0.0 | 0.00 | 0.00 | 0.00 | 69 | 1008.1 |
| 20260505110550 | 61 | 206 | 0.0 | 0.0 | 0.00 | 0.00 | 0.00 | 70 | 1008.3 |
| 20260505110511 | 61 | 206 | 0.0 | 0.0 | 0.00 | 0.00 | 0.00 | 70 | 1008.2 |
| 20260505110446 | 61 | 206 | 0.0 | 0.0 | 0.00 | 0.00 | 0.00 | 70 | 1008.2 |
| 20260505110411 | 60 | 206 | 0.0 | 0.0 | 0.00 | 0.00 | 0.00 | 70 | 1008.2 |
| 20260505110310 | 60 | 206 | 0.0 | 0.0 | 0.00 | 0.00 | 0.00 | 70 | 1008.2 |
| 20260505110209 | 60 | 206 | 0.0 | 0.0 | 0.00 | 0.00 | 0.00 | 71 | 1008.2 |
| 20260505110109 | 60 | 206 | 0.0 | 0.0 | 0.00 | 0.00 | 0.00 | 71 | 1008.2 |
| 20260505102204 | 58 | 0 | 0.0 | 0.9 | 0.00 | 0.00 | 0.00 | 71 | 1008.1 |
| 20260505102200 | 58 | 0 | 0.0 | 0.9 | 0.00 | 0.00 | 0.00 | 71 | 1008.1 |
| 20260505102020 | 58 | 360 | 0.0 | 0.9 | 0.00 | 0.00 | 0.00 | 71 | 1008.2 |
| 20260505101937 | 58 | 0 | 0.0 | 0.9 | 0.00 | 0.00 | 0.00 | 71 | 1008.1 |
| 20260505101850 | 58 | 0 | 0.0 | 0.9 | 0.00 | 0.00 | 0.00 | 71 | 1008.1 |
| 20260505101748 | 58 | 0 | 0.0 | 0.9 | 0.00 | 0.00 | 0.00 | 71 | 1008.1 |
| 20260505101658 | 59 | 0 | 0.0 | 0.9 | 0.00 | 0.00 | 0.00 | 70 | 1008.1 |
| 20260505101648 | 58 | 0 | 0.0 | 0.9 | 0.00 | 0.00 | 0.00 | 70 | 1008.1 |
| 20260505101552 | 58 | 0 | 0.0 | 0.9 | 0.00 | 0.00 | 0.00 | 70 | 1008.1 |
| 20260505101542 | 59 | 0 | 0.0 | 0.9 | 0.00 | 0.00 | 0.00 | 70 | 1008.1 |
| 20260505101519 | 59 | 360 | 0.0 | 0.9 | 0.00 | 0.00 | 0.00 | 70 | 1008.2 |
| 20260505101354 | 59 | 0 | 0.0 | 0.9 | 0.00 | 0.00 | 0.00 | 70 | 1007.9 |
| 20260505101350 | 59 | 0 | 0.0 | 0.9 | 0.00 | 0.00 | 0.00 | 70 | 1008.1 |
| 20260505101338 | 59 | 0 | 0.0 | 0.9 | 0.00 | 0.00 | 0.00 | 70 | 1007.9 |
| 20260505101333 | 59 | 0 | 0.0 | 0.9 | 0.00 | 0.00 | 0.00 | 70 | 1007.9 |
| 20260505101328 | 59 | 0 | 0.0 | 0.9 | 0.00 | 0.00 | 0.00 | 70 | 1008.0 |
| 20260505101319 | 59 | 0 | 0.0 | 0.9 | 0.00 | 0.00 | 0.00 | 70 | 1008.0 |
| 20260505101020 | 59 | 360 | 0.0 | 0.9 | 0.00 | 0.00 | 0.00 | 70 | 1008.0 |
| 20260505100745 | 59 | 0 | 0.0 | 0.0 | 0.00 | 0.00 | 0.00 | 70 | 1007.9 |
| 20260505100645 | 59 | 0 | 0.0 | 0.0 | 0.00 | 0.00 | 0.00 | 69 | 1007.9 |
| 20260505100544 | 59 | 0 | 0.0 | 0.0 | 0.00 | 0.00 | 0.00 | 69 | 1007.9 |
| 20260505100519 | 59 | 360 | 0.0 | 0.0 | 0.00 | 0.00 | 0.00 | 69 | 1008.0 |
| 20260505100430 | 59 | 0 | 0.0 | 0.0 | 0.00 | 0.00 | 0.00 | 69 | 1007.9 |
| 20260505100343 | 59 | 0 | 0.0 | 0.0 | 0.00 | 0.00 | 0.00 | 69 | 1007.9 |
| 20260505100243 | 59 | 0 | 0.0 | 0.0 | 0.00 | 0.00 | 0.00 | 69 | 1007.9 |
| 20260505100142 | 59 | 0 | 0.0 | 0.0 | 0.00 | 0.00 | 0.00 | 69 | 1007.9 |
| 20260505100040 | 59 | 0 | 0.0 | 0.0 | 0.00 | 0.00 | 0.00 | 69 | 1007.9 |
| 20260505100020 | 59 | 360 | 0.0 | 0.0 | 0.00 | 0.00 | 0.00 | 69 | 1008.0 |
| 20260505095932 | 59 | 0 | 0.0 | 0.0 | 0.00 | 0.00 | 0.00 | 69 | 1007.9 |
| 20260505095927 | 59 | 0 | 0.0 | 0.0 | 0.00 | 0.00 | 0.00 | 69 | 1007.9 |
| 20260505095923 | 60 | 0 | 0.0 | 0.0 | 0.00 | 0.00 | 0.00 | 69 | 1007.9 |
| 20260505095917 | 59 | 0 | 0.0 | 0.0 | 0.00 | 0.00 | 0.00 | 69 | 1007.9 |
| 20260505095804 | 59 | 0 | 0.0 | 0.0 | 0.00 | 0.00 | 0.00 | 69 | 1007.9 |
| 20260505095536 | 60 | 0 | 0.0 | 0.0 | 0.00 | 0.00 | 0.00 | 69 | 1007.9 |
| 20260505095520 | 60 | 360 | 0.0 | 0.0 | 0.00 | 0.00 | 0.00 | 69 | 1008.0 |
| 20260505095359 | 60 | 0 | 0.0 | 0.0 | 0.00 | 0.00 | 0.00 | 69 | 1007.9 |
| 20260505095245 | 60 | 0 | 0.0 | 0.0 | 0.00 | 0.00 | 0.00 | 69 | 1007.8 |
| 20260505095036 | 60 | 0 | 0.0 | 0.0 | 0.00 | 0.00 | 0.00 | 68 | 1007.8 |
| 20260505095020 | 60 | 360 | 0.0 | 0.0 | 0.00 | 0.00 | 0.00 | 68 | 1007.9 |
| 20260505094926 | 60 | 0 | 0.0 | 0.0 | 0.00 | 0.00 | 0.00 | 68 | 1007.8 |
| 20260505094835 | 60 | 0 | 0.0 | 0.0 | 0.00 | 0.00 | 0.00 | 68 | 1007.8 |
| 20260505094734 | 60 | 0 | 0.0 | 0.0 | 0.00 | 0.00 | 0.00 | 68 | 1007.8 |
| 20260505094634 | 60 | 0 | 0.0 | 0.0 | 0.00 | 0.00 | 0.00 | 68 | 1007.7 |
| 20260505094546 | 60 | 0 | 0.0 | 0.0 | 0.00 | 0.00 | 0.00 | 68 | 1007.7 |
| 20260505094542 | 60 | 0 | 0.0 | 0.0 | 0.00 | 0.00 | 0.00 | 68 | 1007.7 |
| 20260505094520 | 60 | 360 | 0.0 | 0.0 | 0.00 | 0.00 | 0.00 | 68 | 1007.8 |
| 20260505094425 | 60 | 0 | 0.0 | 0.0 | 0.00 | 0.00 | 0.00 | 68 | 1007.7 |
| 20260505094331 | 60 | 0 | 0.0 | 0.0 | 0.00 | 0.00 | 0.00 | 68 | 1007.7 |
| 20260505094231 | 60 | 0 | 0.0 | 0.0 | 0.00 | 0.00 | 0.00 | 68 | 1007.7 |
| 20260505094129 | 60 | 0 | 0.0 | 0.0 | 0.00 | 0.00 | 0.00 | 68 | 1007.7 |
| 20260505094035 | 60 | 360 | 0.0 | 0.0 | 0.00 | 0.00 | 0.00 | 68 | 1007.8 |
| 20260505094030 | 60 | 0 | 0.0 | 0.0 | 0.00 | 0.00 | 0.00 | 68 | 1007.7 |
| 20260505093925 | 60 | 0 | 0.0 | 0.0 | 0.00 | 0.00 | 0.00 | 68 | 1007.7 |
| 20260505093850 | 60 | 0 | 0.0 | 0.0 | 0.00 | 0.00 | 0.00 | 68 | 1007.7 |
| 20260505093737 | 60 | 0 | 0.0 | 0.0 | 0.00 | 0.00 | 0.00 | 68 | 1007.7 |
| 20260505093535 | 60 | 360 | 0.0 | 0.0 | 0.00 | 0.00 | 0.00 | 68 | 1007.9 |
| 20260505093528 | 60 | 0 | 0.0 | 0.0 | 0.00 | 0.00 | 0.00 | 68 | 1007.7 |
| 20260505093423 | 60 | 0 | 0.0 | 2.6 | 0.00 | 0.00 | 0.00 | 68 | 1007.8 |
| 20260505093327 | 60 | 0 | 0.0 | 2.6 | 0.00 | 0.00 | 0.00 | 68 | 1007.7 |
| 20260505093226 | 60 | 0 | 0.0 | 2.6 | 0.00 | 0.00 | 0.00 | 68 | 1007.7 |
| 20260505093126 | 60 | 0 | 0.0 | 2.6 | 0.00 | 0.00 | 0.00 | 68 | 1007.8 |
| 20260505093025 | 60 | 0 | 0.0 | 2.6 | 0.00 | 0.00 | 0.00 | 68 | 1007.7 |
| 20260505093020 | 60 | 360 | 0.0 | 2.6 | 0.00 | 0.00 | 0.00 | 68 | 1007.8 |
| 20260505092922 | 60 | 0 | 0.0 | 2.6 | 0.00 | 0.00 | 0.00 | 68 | 1007.7 |
| 20260505092838 | 60 | 0 | 0.0 | 2.6 | 0.00 | 0.00 | 0.00 | 68 | 1007.8 |
| 20260505092834 | 60 | 0 | 0.0 | 2.6 | 0.00 | 0.00 | 0.00 | 68 | 1007.8 |
| 20260505092637 | 60 | 0 | 0.0 | 2.6 | 0.00 | 0.00 | 0.00 | 68 | 1007.8 |
| 20260505092633 | 60 | 0 | 0.0 | 2.6 | 0.00 | 0.00 | 0.00 | 68 | 1007.7 |
| 20260505092520 | 60 | 360 | 0.0 | 2.6 | 0.00 | 0.00 | 0.00 | 68 | 1007.8 |
| 20260505092426 | 60 | 0 | 0.0 | 0.9 | 0.00 | 0.00 | 0.00 | 68 | 1007.7 |
| 20260505092418 | 60 | 0 | 0.0 | 0.9 | 0.00 | 0.00 | 0.00 | 68 | 1007.7 |
| 20260505092414 | 60 | 0 | 0.0 | 0.9 | 0.00 | 0.00 | 0.00 | 68 | 1007.6 |
| 20260505092407 | 60 | 0 | 0.0 | 0.0 | 0.00 | 0.00 | 0.00 | 68 | 1007.7 |
| 20260505092254 | 60 | 0 | 0.0 | 0.0 | 0.00 | 0.00 | 0.00 | 68 | 1007.7 |
| 20260505092020 | 60 | 360 | 0.0 | 0.0 | 0.00 | 0.00 | 0.00 | 68 | 1007.7 |
| 20260505091922 | 60 | 0 | 0.0 | 0.9 | 0.00 | 0.00 | 0.00 | 68 | 1007.6 |
| 20260505091820 | 60 | 0 | 0.0 | 0.9 | 0.00 | 0.00 | 0.00 | 68 | 1007.7 |
| 20260505091720 | 60 | 0 | 0.0 | 0.9 | 0.00 | 0.00 | 0.00 | 68 | 1007.7 |
| 20260505091619 | 60 | 0 | 0.0 | 0.9 | 0.00 | 0.00 | 0.00 | 68 | 1007.7 |
| 20260505091520 | 60 | 360 | 0.0 | 0.0 | 0.00 | 0.00 | 0.00 | 68 | 1007.8 |
| 20260505091418 | 60 | 0 | 0.0 | 0.9 | 0.00 | 0.00 | 0.00 | 68 | 1007.7 |
| 20260505091337 | 60 | 0 | 0.0 | 0.9 | 0.00 | 0.00 | 0.00 | 68 | 1007.7 |
| 20260505091224 | 60 | 0 | 0.0 | 0.9 | 0.00 | 0.00 | 0.00 | 68 | 1007.7 |
| 20260505091020 | 60 | 360 | 0.0 | 0.0 | 0.00 | 0.00 | 0.00 | 68 | 1007.7 |
| 20260505091015 | 60 | 0 | 0.0 | 0.0 | 0.00 | 0.00 | 0.00 | 68 | 1007.7 |
| 20260505090914 | 60 | 0 | 0.0 | 0.0 | 0.00 | 0.00 | 0.00 | 68 | 1007.6 |
| 20260505090814 | 60 | 0 | 0.0 | 0.0 | 0.00 | 0.00 | 0.00 | 68 | 1007.7 |
| 20260505090715 | 60 | 0 | 0.0 | 0.0 | 0.00 | 0.00 | 0.00 | 68 | 1007.6 |
| 20260505090614 | 60 | 0 | 0.0 | 0.0 | 0.00 | 0.00 | 0.00 | 68 | 1007.6 |
| 20260505090534 | 60 | 360 | 0.0 | 0.0 | 0.00 | 0.00 | 0.00 | 68 | 1007.7 |
| 20260505090514 | 60 | 0 | 0.0 | 0.0 | 0.00 | 0.00 | 0.00 | 68 | 1007.6 |
| 20260505090413 | 60 | 0 | 0.0 | 0.0 | 0.00 | 0.00 | 0.00 | 68 | 1007.6 |
| 20260505090311 | 60 | 0 | 0.0 | 0.0 | 0.00 | 0.00 | 0.00 | 68 | 1007.6 |
| 20260505090211 | 60 | 0 | 0.0 | 0.0 | 0.00 | 0.00 | 0.00 | 68 | 1007.5 |
| 20260505090110 | 60 | 0 | 0.0 | 1.7 | 0.00 | 0.00 | 0.00 | 68 | 1007.5 |
| 20260505090101 | 60 | 0 | 0.0 | 3.5 | 0.00 | 0.00 | 0.00 | 68 | 1007.5 |
| 20260505090020 | 60 | 360 | 0.0 | 3.5 | 0.00 | 0.00 | 0.00 | 68 | 1007.6 |
| 20260505085942 | 60 | 0 | 0.0 | 3.5 | 0.00 | 0.00 | 0.00 | 68 | 1007.5 |
| 20260505085721 | 60 | 0 | 0.0 | 3.5 | 0.00 | 0.00 | 0.00 | 68 | 1007.4 |
| 20260505085716 | 60 | 0 | 0.0 | 3.5 | 0.00 | 0.00 | 0.00 | 68 | 1007.5 |
| 20260505085550 | 60 | 360 | 0.0 | 3.5 | 0.00 | 0.00 | 0.00 | 67 | 1007.5 |
| 20260505085526 | 60 | 0 | 0.0 | 3.5 | 0.00 | 0.00 | 0.00 | 67 | 1007.4 |
| 20260505085404 | 60 | 0 | 0.0 | 3.5 | 0.00 | 0.00 | 0.00 | 68 | 1007.4 |
| 20260505085304 | 60 | 0 | 0.0 | 3.5 | 0.00 | 0.00 | 0.00 | 67 | 1007.5 |
| 20260505085201 | 60 | 0 | 0.0 | 3.5 | 0.00 | 0.00 | 0.00 | 68 | 1007.5 |
| 20260505085100 | 60 | 0 | 0.0 | 3.5 | 0.00 | 0.00 | 0.00 | 67 | 1007.5 |
| 20260505085020 | 60 | 360 | 0.0 | 0.9 | 0.00 | 0.00 | 0.00 | 67 | 1007.5 |
| 20260505085000 | 60 | 0 | 0.0 | 0.9 | 0.00 | 0.00 | 0.00 | 67 | 1007.4 |
| 20260505084917 | 60 | 0 | 0.0 | 0.0 | 0.00 | 0.00 | 0.00 | 67 | 1007.4 |
| 20260505084900 | 60 | 0 | 0.0 | 0.0 | 0.00 | 0.00 | 0.00 | 67 | 1007.4 |
| 20260505084758 | 60 | 0 | 0.0 | 0.0 | 0.00 | 0.00 | 0.00 | 67 | 1007.4 |
| 20260505084658 | 60 | 0 | 0.0 | 0.0 | 0.00 | 0.00 | 0.00 | 67 | 1007.4 |
| 20260505084559 | 60 | 0 | 0.0 | 0.0 | 0.00 | 0.00 | 0.00 | 67 | 1007.4 |
| 20260505084520 | 60 | 360 | 0.0 | 0.0 | 0.00 | 0.00 | 0.00 | 67 | 1007.5 |
| 20260505084438 | 60 | 0 | 0.0 | 0.0 | 0.00 | 0.00 | 0.00 | 67 | 1007.5 |
| 20260505084434 | 60 | 0 | 0.0 | 0.0 | 0.00 | 0.00 | 0.00 | 67 | 1007.4 |
| 20260505084428 | 60 | 0 | 0.0 | 0.0 | 0.00 | 0.00 | 0.00 | 67 | 1007.5 |
| 20260505084314 | 60 | 0 | 0.0 | 0.0 | 0.00 | 0.00 | 0.00 | 67 | 1007.5 |
| 20260505084021 | 60 | 360 | 0.0 | 0.0 | 0.00 | 0.00 | 0.00 | 66 | 1007.6 |
| 20260505083955 | 60 | 0 | 0.0 | 0.0 | 0.00 | 0.00 | 0.00 | 66 | 1007.5 |
| 20260505083914 | 60 | 0 | 0.0 | 0.0 | 0.00 | 0.00 | 0.00 | 66 | 1007.5 |
| 20260505083909 | 60 | 0 | 0.0 | 0.0 | 0.00 | 0.00 | 0.00 | 66 | 1007.5 |
| 20260505083904 | 60 | 0 | 0.0 | 0.0 | 0.00 | 0.00 | 0.00 | 66 | 1007.5 |
| 20260505083654 | 60 | 0 | 0.0 | 0.0 | 0.00 | 0.00 | 0.00 | 66 | 1007.5 |
| 20260505083553 | 60 | 0 | 0.0 | 0.0 | 0.00 | 0.00 | 0.00 | 66 | 1007.5 |
| 20260505083519 | 61 | 360 | 0.0 | 0.0 | 0.00 | 0.00 | 0.00 | 66 | 1007.6 |
| 20260505083451 | 60 | 0 | 0.0 | 0.0 | 0.00 | 0.00 | 0.00 | 66 | 1007.5 |
| 20260505083414 | 60 | 0 | 0.0 | 0.0 | 0.00 | 0.00 | 0.00 | 66 | 1007.5 |
| 20260505083404 | 61 | 0 | 0.0 | 0.0 | 0.00 | 0.00 | 0.00 | 66 | 1007.6 |
| 20260505083400 | 61 | 0 | 0.0 | 0.0 | 0.00 | 0.00 | 0.00 | 66 | 1007.6 |
| 20260505083149 | 61 | 0 | 0.0 | 0.0 | 0.00 | 0.00 | 0.00 | 66 | 1007.6 |
| 20260505083050 | 61 | 0 | 0.0 | 0.0 | 0.00 | 0.00 | 0.00 | 65 | 1007.6 |
| 20260505083020 | 61 | 360 | 0.0 | 0.0 | 0.00 | 0.00 | 0.00 | 65 | 1007.7 |
| 20260505082949 | 61 | 0 | 0.0 | 0.0 | 0.00 | 0.00 | 0.00 | 65 | 1007.6 |
| 20260505082914 | 61 | 0 | 0.0 | 0.0 | 0.00 | 0.00 | 0.00 | 65 | 1007.6 |
| 20260505082847 | 61 | 0 | 0.0 | 0.0 | 0.00 | 0.00 | 0.00 | 65 | 1007.6 |
| 20260505082746 | 61 | 0 | 0.0 | 0.0 | 0.00 | 0.00 | 0.00 | 65 | 1007.6 |
| 20260505082646 | 61 | 0 | 0.0 | 0.0 | 0.00 | 0.00 | 0.00 | 65 | 1007.6 |
| 20260505082546 | 61 | 0 | 0.0 | 0.0 | 0.00 | 0.00 | 0.00 | 65 | 1007.6 |
| 20260505082520 | 61 | 360 | 0.0 | 0.0 | 0.00 | 0.00 | 0.00 | 65 | 1007.8 |
| 20260505082445 | 61 | 0 | 0.0 | 0.0 | 0.00 | 0.00 | 0.00 | 65 | 1007.7 |
| 20260505082413 | 61 | 0 | 0.0 | 0.0 | 0.00 | 0.00 | 0.00 | 65 | 1007.7 |
| 20260505082346 | 61 | 0 | 0.0 | 0.0 | 0.00 | 0.00 | 0.00 | 65 | 1007.6 |
| 20260505082304 | 61 | 0 | 0.0 | 0.0 | 0.00 | 0.00 | 0.00 | 65 | 1007.7 |
| 20260505082257 | 61 | 0 | 0.0 | 0.0 | 0.00 | 0.00 | 0.00 | 65 | 1007.6 |
| 20260505082137 | 61 | 0 | 0.0 | 0.0 | 0.00 | 0.00 | 0.00 | 65 | 1007.7 |
| 20260505082130 | 61 | 0 | 0.0 | 0.0 | 0.00 | 0.00 | 0.00 | 65 | 1007.7 |
| 20260505082051 | 61 | 360 | 0.0 | 0.0 | 0.00 | 0.00 | 0.00 | 65 | 1007.8 |
| 20260505081845 | 61 | 0 | 0.0 | 0.0 | 0.00 | 0.00 | 0.00 | 65 | 1007.7 |
| 20260505081744 | 61 | 0 | 0.0 | 0.0 | 0.00 | 0.00 | 0.00 | 65 | 1007.6 |
| 20260505081644 | 61 | 0 | 0.0 | 0.0 | 0.00 | 0.00 | 0.00 | 65 | 1007.6 |
| 20260505081556 | 61 | 0 | 0.0 | 0.0 | 0.00 | 0.00 | 0.00 | 64 | 1007.7 |
| 20260505081550 | 61 | 0 | 0.0 | 0.0 | 0.00 | 0.00 | 0.00 | 64 | 1007.6 |
| 20260505081535 | 61 | 360 | 0.0 | 0.0 | 0.00 | 0.00 | 0.00 | 64 | 1007.8 |
| 20260505081413 | 61 | 0 | 0.0 | 0.0 | 0.00 | 0.00 | 0.00 | 64 | 1007.6 |
| 20260505081338 | 61 | 0 | 0.0 | 0.0 | 0.00 | 0.00 | 0.00 | 64 | 1007.6 |
| 20260505081314 | 61 | 0 | 0.0 | 0.0 | 0.00 | 0.00 | 0.00 | 64 | 1007.6 |
| 20260505081309 | 61 | 0 | 0.0 | 0.0 | 0.00 | 0.00 | 0.00 | 64 | 1007.6 |
| 20260505081155 | 61 | 0 | 0.0 | 0.0 | 0.00 | 0.00 | 0.00 | 64 | 1007.6 |
| 20260505081020 | 61 | 360 | 0.0 | 0.0 | 0.00 | 0.00 | 0.00 | 64 | 1007.8 |
| 20260505080909 | 62 | 0 | 0.0 | 0.0 | 0.00 | 0.00 | 0.00 | 64 | 1007.7 |
| 20260505080837 | 62 | 0 | 0.0 | 0.0 | 0.00 | 0.00 | 0.00 | 64 | 1007.7 |
| 20260505080736 | 62 | 0 | 0.0 | 0.0 | 0.00 | 0.00 | 0.00 | 64 | 1007.7 |
| 20260505080636 | 62 | 0 | 0.0 | 0.0 | 0.00 | 0.00 | 0.00 | 64 | 1007.6 |
| 20260505080626 | 62 | 0 | 0.0 | 0.0 | 0.00 | 0.00 | 0.00 | 63 | 1007.6 |
| 20260505080535 | 62 | 0 | 0.0 | 0.0 | 0.00 | 0.00 | 0.00 | 63 | 1007.6 |
| 20260505080515 | 62 | 0 | 0.0 | 0.0 | 0.00 | 0.00 | 0.00 | 63 | 1007.6 |
| 20260505080335 | 62 | 0 | 0.0 | 0.0 | 0.00 | 0.00 | 0.00 | 63 | 1007.6 |
| 20260505080235 | 62 | 0 | 0.0 | 0.0 | 0.00 | 0.00 | 0.00 | 63 | 1007.6 |
| 20260505080134 | 62 | 0 | 0.0 | 0.0 | 0.00 | 0.00 | 0.00 | 63 | 1007.6 |
| 20260505080103 | 62 | 0 | 0.0 | 0.0 | 0.00 | 0.00 | 0.00 | 63 | 1007.6 |
| 20260505080059 | 62 | 0 | 0.0 | 0.0 | 0.00 | 0.00 | 0.00 | 63 | 1007.6 |
| 20260505080053 | 62 | 0 | 0.0 | 0.0 | 0.00 | 0.00 | 0.00 | 63 | 1007.6 |
| 20260505080020 | 62 | 360 | 0.0 | 0.0 | 0.00 | 0.00 | 0.00 | 63 | 1007.7 |
| 20260505075936 | 62 | 0 | 0.0 | 0.0 | 0.00 | 0.00 | 0.00 | 63 | 1007.6 |
| 20260505075728 | 62 | 0 | 0.0 | 0.0 | 0.00 | 0.00 | 0.00 | 63 | 1007.6 |
| 20260505075626 | 62 | 0 | 0.0 | 0.0 | 0.00 | 0.00 | 0.00 | 63 | 1007.5 |
| 20260505075527 | 62 | 0 | 0.0 | 0.0 | 0.00 | 0.00 | 0.00 | 63 | 1007.6 |
| 20260505075520 | 62 | 360 | 0.0 | 0.0 | 0.00 | 0.00 | 0.00 | 63 | 1007.7 |
| 20260505075409 | 62 | 0 | 0.0 | 0.0 | 0.00 | 0.00 | 0.00 | 63 | 1007.6 |
| 20260505075341 | 62 | 0 | 0.0 | 0.0 | 0.00 | 0.00 | 0.00 | 63 | 1007.6 |
| 20260505075335 | 62 | 0 | 0.0 | 0.0 | 0.00 | 0.00 | 0.00 | 63 | 1007.6 |
| 20260505075126 | 62 | 0 | 0.0 | 0.0 | 0.00 | 0.00 | 0.00 | 63 | 1007.6 |
| 20260505075025 | 62 | 0 | 0.0 | 0.0 | 0.00 | 0.00 | 0.00 | 63 | 1007.6 |
| 20260505075020 | 62 | 360 | 0.0 | 0.0 | 0.00 | 0.00 | 0.00 | 63 | 1007.7 |
| 20260505074925 | 62 | 0 | 0.0 | 0.0 | 0.00 | 0.00 | 0.00 | 63 | 1007.6 |
| 20260505074907 | 62 | 0 | 0.0 | 0.0 | 0.00 | 0.00 | 0.00 | 62 | 1007.7 |
| 20260505074825 | 62 | 0 | 0.0 | 0.0 | 0.00 | 0.00 | 0.00 | 62 | 1007.7 |
| 20260505074724 | 62 | 0 | 0.0 | 0.0 | 0.00 | 0.00 | 0.00 | 62 | 1007.7 |
| 20260505074624 | 62 | 0 | 0.0 | 0.0 | 0.00 | 0.00 | 0.00 | 62 | 1007.7 |
| 20260505074538 | 62 | 0 | 0.0 | 0.0 | 0.00 | 0.00 | 0.00 | 63 | 1007.7 |
| 20260505074532 | 62 | 0 | 0.0 | 0.0 | 0.00 | 0.00 | 0.00 | 62 | 1007.7 |
| 20260505074519 | 62 | 360 | 0.0 | 0.0 | 0.00 | 0.00 | 0.00 | 62 | 1007.8 |
| 20260505074405 | 62 | 0 | 0.0 | 0.0 | 0.00 | 0.00 | 0.00 | 62 | 1007.7 |
| 20260505074322 | 62 | 0 | 0.0 | 0.0 | 0.00 | 0.00 | 0.00 | 62 | 1007.7 |
| 20260505074237 | 62 | 0 | 0.0 | 0.0 | 0.00 | 0.00 | 0.00 | 62 | 1007.7 |
| 20260505074232 | 62 | 0 | 0.0 | 0.0 | 0.00 | 0.00 | 0.00 | 62 | 1007.7 |
| 20260505074022 | 62 | 0 | 0.0 | 0.0 | 0.00 | 0.00 | 0.00 | 62 | 1007.6 |
| 20260505074020 | 62 | 360 | 0.0 | 0.0 | 0.00 | 0.00 | 0.00 | 62 | 1007.8 |
| 20260505073922 | 62 | 0 | 0.0 | 0.0 | 0.00 | 0.00 | 0.00 | 62 | 1007.7 |
| 20260505073905 | 62 | 0 | 0.0 | 0.0 | 0.00 | 0.00 | 0.00 | 62 | 1007.6 |
| 20260505073821 | 62 | 0 | 0.0 | 0.0 | 0.00 | 0.00 | 0.00 | 62 | 1007.6 |
| 20260505073721 | 62 | 0 | 0.0 | 0.0 | 0.00 | 0.00 | 0.00 | 62 | 1007.7 |
| 20260505073620 | 62 | 0 | 0.0 | 0.0 | 0.00 | 0.00 | 0.00 | 62 | 1007.7 |
| 20260505073535 | 62 | 360 | 0.0 | 0.0 | 0.00 | 0.00 | 0.00 | 62 | 1007.7 |
| 20260505073520 | 62 | 0 | 0.0 | 0.0 | 0.00 | 0.00 | 0.00 | 62 | 1007.6 |
| 20260505073403 | 62 | 0 | 0.0 | 0.0 | 0.00 | 0.00 | 0.00 | 62 | 1007.6 |
| 20260505073334 | 62 | 0 | 0.0 | 0.0 | 0.00 | 0.00 | 0.00 | 62 | 1007.6 |
| 20260505073328 | 62 | 0 | 0.0 | 0.0 | 0.00 | 0.00 | 0.00 | 62 | 1007.6 |
| 20260505073118 | 62 | 0 | 0.0 | 0.0 | 0.00 | 0.00 | 0.00 | 62 | 1007.6 |
| 20260505073020 | 62 | 360 | 0.0 | 0.0 | 0.00 | 0.00 | 0.00 | 62 | 1007.7 |
| 20260505073018 | 62 | 0 | 0.0 | 0.0 | 0.00 | 0.00 | 0.00 | 62 | 1007.6 |
| 20260505072903 | 62 | 0 | 0.0 | 0.0 | 0.00 | 0.00 | 0.00 | 62 | 1007.6 |
| 20260505072817 | 62 | 0 | 0.0 | 0.0 | 0.00 | 0.00 | 0.00 | 61 | 1007.6 |
| 20260505072738 | 62 | 0 | 0.0 | 0.0 | 0.00 | 0.00 | 0.00 | 62 | 1007.6 |
| 20260505072624 | 62 | 0 | 0.0 | 0.0 | 0.00 | 0.00 | 0.00 | 61 | 1007.7 |
| 20260505072520 | 62 | 360 | 0.0 | 0.0 | 0.00 | 0.00 | 0.00 | 61 | 1007.7 |
| 20260505072403 | 62 | 0 | 0.0 | 0.0 | 0.00 | 0.00 | 0.00 | 61 | 1007.6 |
| 20260505072314 | 62 | 0 | 0.0 | 0.0 | 0.00 | 0.00 | 0.00 | 61 | 1007.6 |
| 20260505072214 | 62 | 0 | 0.0 | 0.0 | 0.00 | 0.00 | 0.00 | 61 | 1007.6 |
| 20260505072113 | 62 | 0 | 0.0 | 0.0 | 0.00 | 0.00 | 0.00 | 61 | 1007.6 |
| 20260505072035 | 62 | 360 | 0.0 | 0.0 | 0.00 | 0.00 | 0.00 | 61 | 1007.7 |
| 20260505072027 | 62 | 0 | 0.0 | 0.0 | 0.00 | 0.00 | 0.00 | 61 | 1007.6 |
| 20260505072022 | 62 | 0 | 0.0 | 0.0 | 0.00 | 0.00 | 0.00 | 61 | 1007.6 |
| 20260505071901 | 62 | 0 | 0.0 | 0.0 | 0.00 | 0.00 | 0.00 | 61 | 1007.6 |
| 20260505071812 | 62 | 0 | 0.0 | 0.0 | 0.00 | 0.00 | 0.00 | 61 | 1007.6 |
| 20260505071711 | 62 | 0 | 0.0 | 0.0 | 0.00 | 0.00 | 0.00 | 61 | 1007.6 |
| 20260505071640 | 62 | 0 | 0.0 | 0.0 | 0.00 | 0.00 | 0.00 | 61 | 1007.6 |
| 20260505071611 | 62 | 0 | 0.0 | 0.0 | 0.00 | 0.00 | 0.00 | 61 | 1007.6 |
| 20260505071536 | 62 | 0 | 0.0 | 0.0 | 0.00 | 0.00 | 0.00 | 61 | 1007.6 |
| 20260505071531 | 62 | 0 | 0.0 | 0.0 | 0.00 | 0.00 | 0.00 | 61 | 1007.6 |
| 20260505071522 | 62 | 0 | 0.0 | 0.0 | 0.00 | 0.00 | 0.00 | 61 | 1007.6 |
| 20260505071520 | 63 | 360 | 0.0 | 0.0 | 0.00 | 0.00 | 0.00 | 61 | 1007.7 |
| 20260505071207 | 62 | 0 | 0.0 | 0.0 | 0.00 | 0.00 | 0.00 | 61 | 1007.6 |
| 20260505071105 | 62 | 0 | 0.0 | 0.0 | 0.00 | 0.00 | 0.00 | 61 | 1007.7 |
| 20260505071020 | 63 | 360 | 0.0 | 0.0 | 0.00 | 0.00 | 0.00 | 61 | 1007.7 |
| 20260505071005 | 63 | 0 | 0.0 | 0.0 | 0.00 | 0.00 | 0.00 | 61 | 1007.6 |
| 20260505070907 | 63 | 0 | 0.0 | 0.0 | 0.00 | 0.00 | 0.00 | 61 | 1007.7 |
| 20260505070900 | 63 | 0 | 0.0 | 0.0 | 0.00 | 0.00 | 0.00 | 61 | 1007.7 |
| 20260505070804 | 63 | 0 | 0.0 | 0.0 | 0.00 | 0.00 | 0.00 | 60 | 1007.7 |
| 20260505070704 | 63 | 0 | 0.0 | 0.0 | 0.00 | 0.00 | 0.00 | 60 | 1007.7 |
| 20260505070603 | 63 | 0 | 0.0 | 0.0 | 0.00 | 0.00 | 0.00 | 60 | 1007.7 |
| 20260505070522 | 63 | 0 | 0.0 | 0.0 | 0.00 | 0.00 | 0.00 | 60 | 1007.8 |
| 20260505070520 | 63 | 360 | 0.0 | 0.0 | 0.00 | 0.00 | 0.00 | 60 | 1007.8 |
| 20260505070516 | 63 | 0 | 0.0 | 0.0 | 0.00 | 0.00 | 0.00 | 60 | 1007.7 |
| 20260505070403 | 63 | 0 | 0.0 | 0.0 | 0.00 | 0.00 | 0.00 | 60 | 1007.8 |
| 20260505070301 | 63 | 0 | 0.0 | 0.0 | 0.00 | 0.00 | 0.00 | 60 | 1007.7 |
| 20260505070201 | 63 | 0 | 0.0 | 0.0 | 0.00 | 0.00 | 0.00 | 60 | 1007.7 |
| 20260505070115 | 63 | 0 | 0.0 | 0.0 | 0.00 | 0.00 | 0.00 | 60 | 1007.7 |
| 20260505070109 | 63 | 0 | 0.0 | 0.0 | 0.00 | 0.00 | 0.00 | 60 | 1007.7 |
| 20260505070050 | 63 | 360 | 0.0 | 0.0 | 0.00 | 0.00 | 0.00 | 60 | 1007.8 |
| 20260505065859 | 63 | 0 | 0.0 | 0.0 | 0.00 | 0.00 | 0.00 | 60 | 1007.7 |
| 20260505065758 | 63 | 0 | 0.0 | 0.0 | 0.00 | 0.00 | 0.00 | 60 | 1007.6 |
| 20260505065658 | 63 | 0 | 0.0 | 0.0 | 0.00 | 0.00 | 0.00 | 60 | 1007.6 |
| 20260505065558 | 63 | 0 | 0.0 | 0.0 | 0.00 | 0.00 | 0.00 | 60 | 1007.6 |
| 20260505065520 | 63 | 360 | 0.0 | 0.0 | 0.00 | 0.00 | 0.00 | 60 | 1007.7 |
| 20260505065457 | 63 | 0 | 0.0 | 0.0 | 0.00 | 0.00 | 0.00 | 60 | 1007.6 |
| 20260505065356 | 63 | 0 | 0.0 | 0.0 | 0.00 | 0.00 | 0.00 | 60 | 1007.7 |
| 20260505065256 | 63 | 0 | 0.0 | 0.0 | 0.00 | 0.00 | 0.00 | 60 | 1007.6 |
| 20260505065209 | 63 | 0 | 0.0 | 0.0 | 0.00 | 0.00 | 0.00 | 60 | 1007.6 |
| 20260505065203 | 63 | 0 | 0.0 | 0.0 | 0.00 | 0.00 | 0.00 | 60 | 1007.6 |
| 20260505065020 | 63 | 360 | 0.0 | 0.0 | 0.00 | 0.00 | 0.00 | 60 | 1007.7 |
| 20260505064954 | 63 | 0 | 0.0 | 0.0 | 0.00 | 0.00 | 0.00 | 60 | 1007.6 |
| 20260505064853 | 63 | 0 | 0.0 | 0.0 | 0.00 | 0.00 | 0.00 | 60 | 1007.6 |
| 20260505064753 | 63 | 0 | 0.0 | 0.9 | 0.00 | 0.00 | 0.00 | 60 | 1007.6 |
| 20260505064652 | 63 | 0 | 0.0 | 0.9 | 0.00 | 0.00 | 0.00 | 60 | 1007.7 |
| 20260505064552 | 63 | 0 | 0.0 | 0.9 | 0.00 | 0.00 | 0.00 | 60 | 1007.6 |
| 20260505064520 | 63 | 360 | 0.0 | 0.9 | 0.00 | 0.00 | 0.00 | 60 | 1007.7 |
| 20260505064451 | 63 | 0 | 0.0 | 0.9 | 0.00 | 0.00 | 0.00 | 60 | 1007.6 |
| 20260505064352 | 63 | 0 | 0.0 | 0.9 | 0.00 | 0.00 | 0.00 | 60 | 1007.6 |
| 20260505064250 | 63 | 0 | 0.0 | 0.9 | 0.00 | 0.00 | 0.00 | 60 | 1007.6 |
| 20260505064150 | 63 | 0 | 0.0 | 0.9 | 0.00 | 0.00 | 0.00 | 60 | 1007.6 |
| 20260505064049 | 63 | 0 | 0.0 | 0.9 | 0.00 | 0.00 | 0.00 | 60 | 1007.6 |
| 20260505064020 | 63 | 360 | 0.0 | 0.9 | 0.00 | 0.00 | 0.00 | 60 | 1007.7 |
| 20260505063949 | 63 | 0 | 0.0 | 0.9 | 0.00 | 0.00 | 0.00 | 60 | 1007.6 |
| 20260505063856 | 63 | 0 | 0.0 | 0.9 | 0.00 | 0.00 | 0.00 | 60 | 1007.6 |
| 20260505063849 | 63 | 0 | 0.0 | 1.7 | 0.00 | 0.00 | 0.00 | 60 | 1007.6 |
| 20260505063748 | 63 | 0 | 0.0 | 1.7 | 0.00 | 0.00 | 0.00 | 60 | 1007.6 |
| 20260505063647 | 63 | 0 | 0.0 | 1.7 | 0.00 | 0.00 | 0.00 | 60 | 1007.6 |
| 20260505063546 | 63 | 0 | 0.0 | 1.7 | 0.00 | 0.00 | 0.00 | 60 | 1007.6 |
| 20260505063519 | 63 | 360 | 0.0 | 1.7 | 0.00 | 0.00 | 0.00 | 60 | 1007.7 |
| 20260505063500 | 62 | 0 | 0.0 | 1.7 | 0.00 | 0.00 | 0.00 | 60 | 1007.6 |
| 20260505063451 | 62 | 0 | 0.0 | 1.7 | 0.00 | 0.00 | 0.00 | 60 | 1007.6 |
| 20260505063245 | 62 | 0 | 0.0 | 1.7 | 0.00 | 0.00 | 0.00 | 60 | 1007.6 |
| 20260505063145 | 62 | 0 | 0.0 | 1.7 | 0.00 | 0.00 | 0.00 | 60 | 1007.6 |
| 20260505063044 | 62 | 0 | 0.0 | 1.7 | 0.00 | 0.00 | 0.00 | 60 | 1007.6 |
| 20260505063020 | 63 | 360 | 0.0 | 1.7 | 0.00 | 0.00 | 0.00 | 60 | 1007.7 |
| 20260505062958 | 62 | 0 | 0.0 | 1.7 | 0.00 | 0.00 | 0.00 | 60 | 1007.6 |
| 20260505062950 | 62 | 0 | 0.0 | 1.7 | 0.00 | 0.00 | 0.00 | 60 | 1007.6 |
| 20260505062743 | 62 | 0 | 0.0 | 1.7 | 0.00 | 0.00 | 0.00 | 60 | 1007.6 |
| 20260505062643 | 62 | 0 | 0.0 | 1.7 | 0.00 | 0.00 | 0.00 | 60 | 1007.6 |
| 20260505062609 | 62 | 0 | 0.0 | 1.7 | 0.00 | 0.00 | 0.00 | 60 | 1007.7 |
| 20260505062543 | 62 | 0 | 0.0 | 1.7 | 0.00 | 0.00 | 0.00 | 60 | 1007.7 |
| 20260505062520 | 63 | 360 | 0.0 | 1.7 | 0.00 | 0.00 | 0.00 | 60 | 1007.8 |
| 20260505062501 | 62 | 0 | 0.0 | 1.7 | 0.00 | 0.00 | 0.00 | 60 | 1007.7 |
| 20260505062341 | 62 | 0 | 0.0 | 1.7 | 0.00 | 0.00 | 0.00 | 60 | 1007.7 |
| 20260505062241 | 62 | 0 | 0.0 | 1.7 | 0.00 | 0.00 | 0.00 | 60 | 1007.7 |
| 20260505062158 | 62 | 0 | 0.0 | 1.7 | 0.00 | 0.00 | 0.00 | 60 | 1007.7 |
| 20260505062154 | 62 | 0 | 0.0 | 1.7 | 0.00 | 0.00 | 0.00 | 59 | 1007.7 |
| 20260505062149 | 62 | 0 | 0.0 | 1.7 | 0.00 | 0.00 | 0.00 | 60 | 1007.7 |
| 20260505062035 | 63 | 360 | 0.0 | 0.9 | 0.00 | 0.00 | 0.00 | 59 | 1007.8 |
| 20260505062000 | 62 | 0 | 0.0 | 1.7 | 0.00 | 0.00 | 0.00 | 59 | 1007.7 |
| 20260505061837 | 62 | 0 | 0.0 | 1.7 | 0.00 | 0.00 | 0.00 | 59 | 1007.7 |
| 20260505061737 | 62 | 0 | 0.0 | 1.7 | 0.00 | 0.00 | 0.00 | 59 | 1007.6 |
| 20260505061637 | 62 | 0 | 0.0 | 1.7 | 0.00 | 0.00 | 0.00 | 59 | 1007.6 |
| 20260505061536 | 62 | 0 | 0.0 | 1.7 | 0.00 | 0.00 | 0.00 | 59 | 1007.6 |
| 20260505061520 | 62 | 360 | 0.0 | 5.2 | 0.00 | 0.00 | 0.00 | 59 | 1007.7 |
| 20260505061436 | 62 | 0 | 0.0 | 5.2 | 0.00 | 0.00 | 0.00 | 59 | 1007.6 |
| 20260505061349 | 62 | 0 | 0.0 | 5.2 | 0.00 | 0.00 | 0.00 | 59 | 1007.6 |
| 20260505061335 | 62 | 0 | 0.0 | 5.2 | 0.00 | 0.00 | 0.00 | 60 | 1007.6 |
| 20260505061235 | 62 | 0 | 0.0 | 5.2 | 0.00 | 0.00 | 0.00 | 60 | 1007.6 |
| 20260505061135 | 62 | 0 | 0.0 | 5.2 | 0.00 | 0.00 | 0.00 | 60 | 1007.6 |
| 20260505061116 | 62 | 0 | 0.0 | 5.2 | 0.00 | 0.00 | 0.00 | 60 | 1007.6 |
| 20260505061110 | 62 | 0 | 0.0 | 5.2 | 0.00 | 0.00 | 0.00 | 60 | 1007.6 |
| 20260505061104 | 62 | 0 | 0.0 | 5.2 | 0.00 | 0.00 | 0.00 | 60 | 1007.6 |
| 20260505061050 | 62 | 360 | 0.0 | 5.2 | 0.00 | 0.00 | 0.00 | 60 | 1007.7 |
| 20260505060833 | 62 | 0 | 0.0 | 5.2 | 0.00 | 0.00 | 0.00 | 60 | 1007.6 |
| 20260505060732 | 62 | 0 | 0.0 | 5.2 | 0.00 | 0.00 | 0.00 | 60 | 1007.5 |
| 20260505060632 | 62 | 0 | 0.0 | 9.6 | 0.00 | 0.00 | 0.00 | 60 | 1007.5 |
| 20260505060605 | 62 | 360 | 0.0 | 9.6 | 0.00 | 0.00 | 0.00 | 60 | 1007.6 |
| 20260505060531 | 62 | 0 | 0.0 | 9.6 | 0.00 | 0.00 | 0.00 | 60 | 1007.6 |
| 20260505060445 | 62 | 0 | 0.0 | 9.6 | 0.00 | 0.00 | 0.00 | 60 | 1007.5 |
| 20260505060437 | 62 | 0 | 0.0 | 9.6 | 0.00 | 0.00 | 0.00 | 60 | 1007.6 |
| 20260505060230 | 62 | 0 | 0.0 | 9.6 | 0.00 | 0.00 | 0.00 | 60 | 1007.5 |
| 20260505060129 | 62 | 0 | 0.0 | 9.6 | 0.00 | 0.00 | 0.00 | 60 | 1007.6 |
| 20260505060043 | 62 | 0 | 0.0 | 9.6 | 0.00 | 0.00 | 0.00 | 60 | 1007.6 |
| 20260505060038 | 62 | 0 | 0.0 | 9.6 | 0.00 | 0.00 | 0.00 | 60 | 1007.5 |
| 20260505060020 | 62 | 360 | 0.0 | 9.6 | 0.00 | 0.00 | 0.00 | 60 | 1007.7 |
| 20260505055827 | 62 | 0 | 0.0 | 9.6 | 0.00 | 0.00 | 0.00 | 60 | 1007.6 |
| 20260505055748 | 62 | 0 | 0.0 | 9.6 | 0.00 | 0.00 | 0.00 | 60 | 1007.6 |
| 20260505055634 | 61 | 0 | 0.0 | 7.0 | 0.00 | 0.00 | 0.00 | 60 | 1007.6 |
| 20260505055520 | 61 | 360 | 0.0 | 3.5 | 0.00 | 0.00 | 0.00 | 60 | 1007.7 |
| 20260505055454 | 61 | 0 | 0.0 | 0.9 | 0.00 | 0.00 | 0.00 | 60 | 1007.6 |
| 20260505055448 | 61 | 0 | 0.0 | 3.5 | 0.00 | 0.00 | 0.00 | 60 | 1007.6 |
| 20260505055440 | 61 | 0 | 0.0 | 3.5 | 0.00 | 0.00 | 0.00 | 61 | 1007.6 |
| 20260505055124 | 61 | 0 | 0.0 | 0.9 | 0.00 | 0.00 | 0.00 | 60 | 1007.5 |
| 20260505055035 | 61 | 360 | 0.0 | 5.2 | 0.00 | 0.00 | 0.00 | 61 | 1007.6 |
| 20260505055023 | 61 | 0 | 0.0 | 0.9 | 0.00 | 0.00 | 0.00 | 61 | 1007.6 |
| 20260505054951 | 61 | 0 | 0.0 | 5.2 | 0.00 | 0.00 | 0.00 | 60 | 1007.5 |
| 20260505054943 | 61 | 0 | 0.0 | 5.2 | 0.00 | 0.00 | 0.00 | 60 | 1007.5 |
| 20260505054832 | 61 | 0 | 0.0 | 5.2 | 0.00 | 0.00 | 0.00 | 60 | 1007.5 |
| 20260505054622 | 61 | 0 | 0.0 | 5.2 | 0.00 | 0.00 | 0.00 | 60 | 1007.6 |
| 20260505054522 | 61 | 0 | 0.0 | 5.2 | 0.00 | 0.00 | 0.00 | 60 | 1007.6 |
| 20260505054520 | 61 | 360 | 0.0 | 5.2 | 0.00 | 0.00 | 0.00 | 60 | 1007.7 |
| 20260505054435 | 61 | 0 | 0.0 | 5.2 | 0.00 | 0.00 | 0.00 | 60 | 1007.6 |
| 20260505054427 | 61 | 0 | 0.0 | 5.2 | 0.00 | 0.00 | 0.00 | 60 | 1007.6 |
| 20260505054219 | 61 | 0 | 0.0 | 5.2 | 0.00 | 0.00 | 0.00 | 60 | 1007.6 |
| 20260505054119 | 61 | 0 | 0.0 | 5.2 | 0.00 | 0.00 | 0.00 | 60 | 1007.6 |
| 20260505054020 | 61 | 360 | 3.5 | 3.5 | 0.00 | 0.00 | 0.00 | 60 | 1007.6 |
| 20260505053918 | 61 | 0 | 0.0 | 0.0 | 0.00 | 0.00 | 0.00 | 60 | 1007.5 |
| 20260505053833 | 61 | 0 | 0.0 | 0.0 | 0.00 | 0.00 | 0.00 | 60 | 1007.5 |
| 20260505053827 | 61 | 0 | 0.0 | 0.0 | 0.00 | 0.00 | 0.00 | 60 | 1007.6 |
| 20260505053617 | 61 | 0 | 0.0 | 0.0 | 0.00 | 0.00 | 0.00 | 59 | 1007.6 |
| 20260505053602 | 61 | 0 | 0.0 | 0.0 | 0.00 | 0.00 | 0.00 | 59 | 1007.6 |
| 20260505053520 | 61 | 360 | 0.0 | 0.0 | 0.00 | 0.00 | 0.00 | 59 | 1007.7 |
| 20260505053516 | 61 | 0 | 0.0 | 0.0 | 0.00 | 0.00 | 0.00 | 59 | 1007.5 |
| 20260505053452 | 61 | 0 | 0.0 | 0.0 | 0.00 | 0.00 | 0.00 | 59 | 1007.6 |
| 20260505053314 | 61 | 0 | 0.0 | 0.0 | 0.00 | 0.00 | 0.00 | 59 | 1007.6 |
| 20260505053214 | 62 | 0 | 0.0 | 0.0 | 0.00 | 0.00 | 0.00 | 59 | 1007.6 |
| 20260505053114 | 62 | 0 | 0.0 | 0.0 | 0.00 | 0.00 | 0.00 | 58 | 1007.5 |
| 20260505053107 | 62 | 0 | 0.0 | 0.0 | 0.00 | 0.00 | 0.00 | 58 | 1007.5 |
| 20260505053020 | 62 | 360 | 0.0 | 0.0 | 0.00 | 0.00 | 0.00 | 58 | 1007.7 |
| 20260505053014 | 62 | 0 | 0.0 | 0.0 | 0.00 | 0.00 | 0.00 | 58 | 1007.6 |
| 20260505052949 | 62 | 0 | 0.0 | 0.0 | 0.00 | 0.00 | 0.00 | 58 | 1007.5 |
| 20260505052812 | 62 | 0 | 0.0 | 0.0 | 0.00 | 0.00 | 0.00 | 58 | 1007.5 |
| 20260505052723 | 62 | 0 | 0.0 | 0.0 | 0.00 | 0.00 | 0.00 | 58 | 1007.6 |
| 20260505052609 | 62 | 0 | 0.0 | 0.0 | 0.00 | 0.00 | 0.00 | 58 | 1007.6 |
| 20260505052520 | 62 | 360 | 0.0 | 0.0 | 0.00 | 0.00 | 0.00 | 58 | 1007.6 |
| 20260505052509 | 62 | 0 | 0.0 | 0.0 | 0.00 | 0.00 | 0.00 | 58 | 1007.5 |
| 20260505052448 | 62 | 0 | 0.0 | 0.9 | 0.00 | 0.00 | 0.00 | 58 | 1007.6 |
| 20260505052308 | 62 | 0 | 0.0 | 0.9 | 0.00 | 0.00 | 0.00 | 58 | 1007.7 |
| 20260505052207 | 62 | 0 | 0.0 | 0.9 | 0.00 | 0.00 | 0.00 | 57 | 1007.6 |
| 20260505052107 | 62 | 0 | 0.0 | 0.9 | 0.00 | 0.00 | 0.00 | 57 | 1007.6 |
| 20260505052020 | 62 | 360 | 0.0 | 0.9 | 0.00 | 0.00 | 0.00 | 58 | 1007.8 |
| 20260505052006 | 62 | 0 | 0.0 | 0.9 | 0.00 | 0.00 | 0.00 | 58 | 1007.7 |
| 20260505051906 | 62 | 0 | 0.0 | 0.9 | 0.00 | 0.00 | 0.00 | 57 | 1007.7 |
| 20260505051841 | 62 | 0 | 0.0 | 0.9 | 0.00 | 0.00 | 0.00 | 57 | 1007.7 |
| 20260505051806 | 62 | 0 | 0.0 | 0.9 | 0.00 | 0.00 | 0.00 | 57 | 1007.7 |
| 20260505051705 | 62 | 0 | 0.0 | 0.9 | 0.00 | 0.00 | 0.00 | 57 | 1007.6 |
| 20260505051605 | 62 | 0 | 0.0 | 0.9 | 0.00 | 0.00 | 0.00 | 57 | 1007.7 |
| 20260505051520 | 62 | 360 | 0.0 | 0.9 | 0.00 | 0.00 | 0.00 | 57 | 1007.8 |
| 20260505051503 | 62 | 0 | 0.0 | 0.9 | 0.00 | 0.00 | 0.00 | 57 | 1007.7 |
| 20260505051340 | 62 | 0 | 0.0 | 0.0 | 0.00 | 0.00 | 0.00 | 57 | 1007.6 |
| 20260505051301 | 62 | 0 | 0.0 | 0.0 | 0.00 | 0.00 | 0.00 | 57 | 1007.7 |
| 20260505051201 | 62 | 0 | 0.0 | 0.0 | 0.00 | 0.00 | 0.00 | 57 | 1007.7 |
| 20260505051100 | 62 | 0 | 0.0 | 0.0 | 0.00 | 0.00 | 0.00 | 57 | 1007.7 |
| 20260505051020 | 62 | 360 | 0.0 | 0.0 | 0.00 | 0.00 | 0.00 | 57 | 1007.8 |
| 20260505051000 | 62 | 0 | 0.0 | 0.0 | 0.00 | 0.00 | 0.00 | 57 | 1007.7 |
| 20260505050838 | 62 | 0 | 0.0 | 0.0 | 0.00 | 0.00 | 0.00 | 56 | 1007.7 |
| 20260505050759 | 62 | 0 | 0.0 | 0.0 | 0.00 | 0.00 | 0.00 | 56 | 1007.7 |
| 20260505050659 | 62 | 0 | 0.0 | 0.0 | 0.00 | 0.00 | 0.00 | 56 | 1007.7 |
| 20260505050558 | 62 | 0 | 0.0 | 0.0 | 0.00 | 0.00 | 0.00 | 56 | 1007.7 |
| 20260505050535 | 62 | 360 | 0.0 | 0.0 | 0.00 | 0.00 | 0.00 | 56 | 1007.8 |
| 20260505050459 | 62 | 0 | 0.0 | 0.0 | 0.00 | 0.00 | 0.00 | 56 | 1007.7 |
| 20260505050336 | 62 | 0 | 0.0 | 0.0 | 0.00 | 0.00 | 0.00 | 56 | 1007.7 |
| 20260505050258 | 62 | 0 | 0.0 | 0.0 | 0.00 | 0.00 | 0.00 | 56 | 1007.7 |
| 20260505050158 | 62 | 0 | 0.0 | 0.0 | 0.00 | 0.00 | 0.00 | 56 | 1007.8 |
| 20260505050110 | 62 | 0 | 0.0 | 0.0 | 0.00 | 0.00 | 0.00 | 56 | 1007.8 |
| 20260505050105 | 62 | 0 | 0.0 | 0.0 | 0.00 | 0.00 | 0.00 | 56 | 1007.7 |
| 20260505041734 | 63 | 0 | 0.0 | 5.2 | 0.00 | 0.00 | 0.00 | 51 | 1007.7 |
| 20260505041634 | 63 | 0 | 0.0 | 5.2 | 0.00 | 0.00 | 0.00 | 51 | 1007.7 |
| 20260505041535 | 63 | 360 | 0.0 | 7.0 | 0.00 | 0.00 | 0.00 | 51 | 1007.7 |
| 20260505041533 | 63 | 0 | 0.9 | 7.0 | 0.00 | 0.00 | 0.00 | 51 | 1007.7 |
| 20260505041433 | 63 | 0 | 0.9 | 7.0 | 0.00 | 0.00 | 0.00 | 51 | 1007.7 |
| 20260505041326 | 63 | 0 | 0.9 | 7.0 | 0.00 | 0.00 | 0.00 | 51 | 1007.7 |
| 20260505041230 | 64 | 0 | 0.9 | 7.0 | 0.00 | 0.00 | 0.00 | 51 | 1007.7 |
| 20260505041130 | 64 | 0 | 0.9 | 7.0 | 0.00 | 0.00 | 0.00 | 51 | 1007.6 |
| 20260505041109 | 64 | 0 | 0.9 | 7.0 | 0.00 | 0.00 | 0.00 | 51 | 1007.7 |
| 20260505041020 | 64 | 360 | 0.0 | 7.0 | 0.00 | 0.00 | 0.00 | 51 | 1007.5 |
| 20260505040957 | 64 | 0 | 0.9 | 7.0 | 0.00 | 0.00 | 0.00 | 51 | 1007.6 |
| 20260505040951 | 64 | 0 | 0.9 | 7.0 | 0.00 | 0.00 | 0.00 | 51 | 1007.5 |
| 20260505040838 | 64 | 0 | 0.9 | 7.0 | 0.00 | 0.00 | 0.00 | 51 | 1007.6 |
| 20260505040627 | 64 | 0 | 0.9 | 15.6 | 0.00 | 0.00 | 0.00 | 50 | 1007.6 |
| 20260505040540 | 64 | 0 | 0.9 | 15.6 | 0.00 | 0.00 | 0.00 | 50 | 1007.5 |
| 20260505040535 | 64 | 0 | 0.9 | 15.6 | 0.00 | 0.00 | 0.00 | 50 | 1007.5 |
| 20260505040520 | 64 | 360 | 0.0 | 15.6 | 0.00 | 0.00 | 0.00 | 50 | 1007.5 |
| 20260505040345 | 64 | 0 | 0.9 | 15.6 | 0.00 | 0.00 | 0.00 | 50 | 1007.5 |
| 20260505040335 | 64 | 0 | 0.9 | 15.6 | 0.00 | 0.00 | 0.00 | 50 | 1007.5 |
| 20260505040124 | 64 | 0 | 0.9 | 15.6 | 0.00 | 0.00 | 0.00 | 50 | 1007.5 |
| 20260505040035 | 64 | 360 | 0.0 | 15.6 | 0.00 | 0.00 | 0.00 | 50 | 1007.5 |
| 20260505040022 | 64 | 0 | 0.9 | 15.6 | 0.00 | 0.00 | 0.00 | 50 | 1007.4 |
| 20260505035922 | 64 | 0 | 0.9 | 15.6 | 0.00 | 0.00 | 0.00 | 50 | 1007.5 |
| 20260505035821 | 64 | 0 | 0.9 | 15.6 | 0.00 | 0.00 | 0.00 | 50 | 1007.4 |
| 20260505035721 | 64 | 0 | 0.9 | 15.6 | 0.00 | 0.00 | 0.00 | 50 | 1007.5 |
| 20260505035619 | 64 | 0 | 0.9 | 15.6 | 0.00 | 0.00 | 0.00 | 50 | 1007.4 |
| 20260505035520 | 64 | 360 | 0.0 | 15.6 | 0.00 | 0.00 | 0.00 | 50 | 1007.4 |
| 20260505035419 | 64 | 0 | 0.9 | 15.6 | 0.00 | 0.00 | 0.00 | 49 | 1007.4 |
| 20260505035316 | 64 | 0 | 0.9 | 15.6 | 0.00 | 0.00 | 0.00 | 49 | 1007.4 |
| 20260505035216 | 64 | 0 | 0.9 | 15.6 | 0.00 | 0.00 | 0.00 | 49 | 1007.4 |
| 20260505035115 | 64 | 0 | 0.0 | 15.6 | 0.00 | 0.00 | 0.00 | 49 | 1007.4 |
| 20260505035020 | 64 | 360 | 0.0 | 7.0 | 0.00 | 0.00 | 0.00 | 49 | 1007.5 |
| 20260505035014 | 64 | 0 | 0.9 | 7.0 | 0.00 | 0.00 | 0.00 | 49 | 1007.5 |
| 20260505034915 | 64 | 0 | 0.9 | 10.4 | 0.00 | 0.00 | 0.00 | 49 | 1007.5 |
| 20260505034821 | 64 | 0 | 0.9 | 10.4 | 0.00 | 0.00 | 0.00 | 49 | 1007.5 |
| 20260505034814 | 64 | 0 | 0.9 | 10.4 | 0.00 | 0.00 | 0.00 | 49 | 1007.4 |
| 20260505034714 | 64 | 0 | 0.9 | 10.4 | 0.00 | 0.00 | 0.00 | 49 | 1007.5 |
| 20260505034614 | 64 | 0 | 0.9 | 13.0 | 0.00 | 0.00 | 0.00 | 49 | 1007.6 |
| 20260505034520 | 64 | 360 | 0.0 | 10.4 | 0.00 | 0.00 | 0.00 | 49 | 1007.5 |
| 20260505034513 | 64 | 0 | 0.9 | 13.0 | 0.00 | 0.00 | 0.00 | 49 | 1007.5 |
| 20260505034414 | 64 | 0 | 0.9 | 13.0 | 0.00 | 0.00 | 0.00 | 49 | 1007.5 |
| 20260505034320 | 64 | 0 | 0.9 | 13.0 | 0.00 | 0.00 | 0.00 | 49 | 1007.5 |
| 20260505034313 | 65 | 0 | 1.7 | 13.0 | 0.00 | 0.00 | 0.00 | 49 | 1007.5 |
| 20260505034212 | 64 | 0 | 1.7 | 13.0 | 0.00 | 0.00 | 0.00 | 49 | 1007.5 |
| 20260505034112 | 65 | 0 | 1.7 | 13.0 | 0.00 | 0.00 | 0.00 | 49 | 1007.4 |
| 20260505034020 | 65 | 360 | 2.6 | 10.4 | 0.00 | 0.00 | 0.00 | 49 | 1007.4 |
| 20260505034011 | 65 | 0 | 0.9 | 13.0 | 0.00 | 0.00 | 0.00 | 49 | 1007.4 |
| 20260505033910 | 65 | 0 | 0.9 | 13.0 | 0.00 | 0.00 | 0.00 | 49 | 1007.4 |
| 20260505033822 | 65 | 0 | 0.9 | 13.0 | 0.00 | 0.00 | 0.00 | 48 | 1007.4 |
| 20260505033809 | 65 | 0 | 1.7 | 13.0 | 0.00 | 0.00 | 0.00 | 48 | 1007.5 |
| 20260505033709 | 65 | 0 | 1.7 | 13.0 | 0.00 | 0.00 | 0.00 | 48 | 1007.4 |
| 20260505033609 | 65 | 0 | 1.7 | 11.3 | 0.00 | 0.00 | 0.00 | 48 | 1007.5 |
| 20260505033535 | 65 | 360 | 0.0 | 10.4 | 0.00 | 0.00 | 0.00 | 48 | 1007.4 |
| 20260505033509 | 65 | 0 | 0.9 | 11.3 | 0.00 | 0.00 | 0.00 | 48 | 1007.4 |
| 20260505033407 | 65 | 0 | 0.9 | 11.3 | 0.00 | 0.00 | 0.00 | 48 | 1007.4 |
| 20260505033321 | 65 | 0 | 0.9 | 11.3 | 0.00 | 0.00 | 0.00 | 48 | 1007.4 |
| 20260505033307 | 65 | 0 | 0.9 | 11.3 | 0.00 | 0.00 | 0.00 | 48 | 1007.5 |
| 20260505033207 | 65 | 0 | 0.9 | 11.3 | 0.00 | 0.00 | 0.00 | 48 | 1007.5 |